<?xml version="1.0" encoding="UTF-8" standalone="no" ?>
<gpx xmlns="http://www.topografix.com/GPX/1/1" xmlns:xsi="http://www.w3.org/2001/XMLSchema-instance" xsi:schemaLocation="http://www.topografix.com/GPX/1/1 http://www.topografix.com/GPX/1/1/gpx.xsd" version="1.1" creator="VisuGPX - https://www.visugpx.com">
  <metadata>
    <name>Jumet-Bouffioulx par le Ravel 1</name>
    <desc><![CDATA[Trace de la chaussée de Bruxelles à Jumet, jusque Bouffioulx centre.
Majoritairement par le Ravel n°1]]></desc>
  </metadata>
  <trk>
    <name><![CDATA[Lokabox Bouffioulx]]></name>
    <desc><![CDATA[]]></desc>
    <trkseg>
      <trkpt lat="50.44037" lon="4.43752">
        <ele>223.8</ele>
        <time>2012-07-27T13:10:56.795Z</time>
      </trkpt>
      <trkpt lat="50.44039" lon="4.43746">
        <ele>216.3</ele>
        <time>2012-07-27T13:10:57.775Z</time>
      </trkpt>
      <trkpt lat="50.44026" lon="4.4375">
        <ele>230.1</ele>
        <time>2012-07-27T13:10:59.784Z</time>
      </trkpt>
      <trkpt lat="50.4402" lon="4.43735">
        <ele>207.9</ele>
        <time>2012-07-27T13:11:01.784Z</time>
      </trkpt>
      <trkpt lat="50.44015" lon="4.4373">
        <ele>204.4</ele>
        <time>2012-07-27T13:11:02.774Z</time>
      </trkpt>
      <trkpt lat="50.44022" lon="4.43724">
        <ele>216.2</ele>
        <time>2012-07-27T13:11:03.765Z</time>
      </trkpt>
      <trkpt lat="50.44016" lon="4.4372">
        <ele>214.5</ele>
        <time>2012-07-27T13:11:08.000Z</time>
      </trkpt>
      <trkpt lat="50.4402" lon="4.43716">
        <ele>212.7</ele>
        <time>2012-07-27T13:11:11.000Z</time>
      </trkpt>
      <trkpt lat="50.44023" lon="4.43721">
        <ele>211.3</ele>
        <time>2012-07-27T13:14:41.000Z</time>
      </trkpt>
      <trkpt lat="50.44023" lon="4.43713">
        <ele>213</ele>
        <time>2012-07-27T13:15:37.000Z</time>
      </trkpt>
      <trkpt lat="50.44019" lon="4.43707">
        <ele>213.6</ele>
        <time>2012-07-27T13:15:41.000Z</time>
      </trkpt>
      <trkpt lat="50.44018" lon="4.43715">
        <ele>213.8</ele>
        <time>2012-07-27T13:15:46.000Z</time>
      </trkpt>
      <trkpt lat="50.4402" lon="4.43723">
        <ele>214.3</ele>
        <time>2012-07-27T13:15:50.000Z</time>
      </trkpt>
      <trkpt lat="50.44022" lon="4.4373">
        <ele>212.8</ele>
        <time>2012-07-27T13:15:55.000Z</time>
      </trkpt>
      <trkpt lat="50.44022" lon="4.43739">
        <ele>212.4</ele>
        <time>2012-07-27T13:15:59.000Z</time>
      </trkpt>
      <trkpt lat="50.44022" lon="4.43748">
        <ele>212.6</ele>
        <time>2012-07-27T13:16:01.000Z</time>
      </trkpt>
      <trkpt lat="50.44023" lon="4.43759">
        <ele>211.9</ele>
        <time>2012-07-27T13:16:03.000Z</time>
      </trkpt>
      <trkpt lat="50.44024" lon="4.43772">
        <ele>212</ele>
        <time>2012-07-27T13:16:05.000Z</time>
      </trkpt>
      <trkpt lat="50.44026" lon="4.43783">
        <ele>211.9</ele>
        <time>2012-07-27T13:16:07.000Z</time>
      </trkpt>
      <trkpt lat="50.44029" lon="4.43792">
        <ele>211.8</ele>
        <time>2012-07-27T13:16:09.000Z</time>
      </trkpt>
      <trkpt lat="50.44032" lon="4.43802">
        <ele>212.9</ele>
        <time>2012-07-27T13:16:12.000Z</time>
      </trkpt>
      <trkpt lat="50.44035" lon="4.43811">
        <ele>212.5</ele>
        <time>2012-07-27T13:16:15.000Z</time>
      </trkpt>
      <trkpt lat="50.44039" lon="4.43814">
        <ele>211.3</ele>
        <time>2012-07-27T13:16:17.000Z</time>
      </trkpt>
      <trkpt lat="50.44046" lon="4.43811">
        <ele>212.1</ele>
        <time>2012-07-27T13:16:19.000Z</time>
      </trkpt>
      <trkpt lat="50.44055" lon="4.43807">
        <ele>213.7</ele>
        <time>2012-07-27T13:16:21.000Z</time>
      </trkpt>
      <trkpt lat="50.4406" lon="4.43805">
        <ele>214.3</ele>
        <time>2012-07-27T13:16:22.000Z</time>
      </trkpt>
      <trkpt lat="50.44065" lon="4.43803">
        <ele>215</ele>
        <time>2012-07-27T13:16:23.000Z</time>
      </trkpt>
      <trkpt lat="50.44071" lon="4.43801">
        <ele>215.4</ele>
        <time>2012-07-27T13:16:24.000Z</time>
      </trkpt>
      <trkpt lat="50.44077" lon="4.43799">
        <ele>215.6</ele>
        <time>2012-07-27T13:16:25.000Z</time>
      </trkpt>
      <trkpt lat="50.44084" lon="4.43797">
        <ele>216</ele>
        <time>2012-07-27T13:16:26.000Z</time>
      </trkpt>
      <trkpt lat="50.44089" lon="4.43793">
        <ele>216.1</ele>
        <time>2012-07-27T13:16:27.000Z</time>
      </trkpt>
      <trkpt lat="50.44095" lon="4.4379">
        <ele>216.2</ele>
        <time>2012-07-27T13:16:28.001Z</time>
      </trkpt>
      <trkpt lat="50.44101" lon="4.43787">
        <ele>217.1</ele>
        <time>2012-07-27T13:16:29.000Z</time>
      </trkpt>
      <trkpt lat="50.44107" lon="4.43784">
        <ele>217.2</ele>
        <time>2012-07-27T13:16:30.000Z</time>
      </trkpt>
      <trkpt lat="50.44115" lon="4.43781">
        <ele>218.3</ele>
        <time>2012-07-27T13:16:31.000Z</time>
      </trkpt>
      <trkpt lat="50.44121" lon="4.43779">
        <ele>218.5</ele>
        <time>2012-07-27T13:16:32.000Z</time>
      </trkpt>
      <trkpt lat="50.44128" lon="4.43778">
        <ele>218.3</ele>
        <time>2012-07-27T13:16:33.000Z</time>
      </trkpt>
      <trkpt lat="50.44134" lon="4.43774">
        <ele>219</ele>
        <time>2012-07-27T13:16:34.000Z</time>
      </trkpt>
      <trkpt lat="50.4414" lon="4.43772">
        <ele>219</ele>
        <time>2012-07-27T13:16:35.000Z</time>
      </trkpt>
      <trkpt lat="50.44146" lon="4.43769">
        <ele>219.2</ele>
        <time>2012-07-27T13:16:36.000Z</time>
      </trkpt>
      <trkpt lat="50.44153" lon="4.43767">
        <ele>219</ele>
        <time>2012-07-27T13:16:37.000Z</time>
      </trkpt>
      <trkpt lat="50.4416" lon="4.43765">
        <ele>219.4</ele>
        <time>2012-07-27T13:16:38.000Z</time>
      </trkpt>
      <trkpt lat="50.44167" lon="4.43762">
        <ele>219.6</ele>
        <time>2012-07-27T13:16:39.000Z</time>
      </trkpt>
      <trkpt lat="50.44174" lon="4.43759">
        <ele>219.3</ele>
        <time>2012-07-27T13:16:40.000Z</time>
      </trkpt>
      <trkpt lat="50.4418" lon="4.43756">
        <ele>220.4</ele>
        <time>2012-07-27T13:16:41.000Z</time>
      </trkpt>
      <trkpt lat="50.44186" lon="4.43753">
        <ele>220.4</ele>
        <time>2012-07-27T13:16:42.000Z</time>
      </trkpt>
      <trkpt lat="50.44192" lon="4.4375">
        <ele>220.6</ele>
        <time>2012-07-27T13:16:42.999Z</time>
      </trkpt>
      <trkpt lat="50.44198" lon="4.43748">
        <ele>221</ele>
        <time>2012-07-27T13:16:44.000Z</time>
      </trkpt>
      <trkpt lat="50.44205" lon="4.43746">
        <ele>221.1</ele>
        <time>2012-07-27T13:16:45.000Z</time>
      </trkpt>
      <trkpt lat="50.44208" lon="4.43752">
        <ele>220.2</ele>
        <time>2012-07-27T13:16:46.000Z</time>
      </trkpt>
      <trkpt lat="50.44211" lon="4.43759">
        <ele>220.1</ele>
        <time>2012-07-27T13:16:47.000Z</time>
      </trkpt>
      <trkpt lat="50.44211" lon="4.43766">
        <ele>218.3</ele>
        <time>2012-07-27T13:16:48.000Z</time>
      </trkpt>
      <trkpt lat="50.44211" lon="4.43775">
        <ele>217.3</ele>
        <time>2012-07-27T13:16:49.000Z</time>
      </trkpt>
      <trkpt lat="50.44211" lon="4.43786">
        <ele>216</ele>
        <time>2012-07-27T13:16:50.000Z</time>
      </trkpt>
      <trkpt lat="50.44212" lon="4.43797">
        <ele>214.7</ele>
        <time>2012-07-27T13:16:51.000Z</time>
      </trkpt>
      <trkpt lat="50.44213" lon="4.43808">
        <ele>214</ele>
        <time>2012-07-27T13:16:52.000Z</time>
      </trkpt>
      <trkpt lat="50.44213" lon="4.4382">
        <ele>214.3</ele>
        <time>2012-07-27T13:16:53.000Z</time>
      </trkpt>
      <trkpt lat="50.44214" lon="4.43832">
        <ele>214.4</ele>
        <time>2012-07-27T13:16:54.000Z</time>
      </trkpt>
      <trkpt lat="50.44215" lon="4.43843">
        <ele>214.2</ele>
        <time>2012-07-27T13:16:55.000Z</time>
      </trkpt>
      <trkpt lat="50.44216" lon="4.43854">
        <ele>214.2</ele>
        <time>2012-07-27T13:16:56.000Z</time>
      </trkpt>
      <trkpt lat="50.44216" lon="4.43866">
        <ele>213.9</ele>
        <time>2012-07-27T13:16:57.000Z</time>
      </trkpt>
      <trkpt lat="50.44216" lon="4.43877">
        <ele>213.2</ele>
        <time>2012-07-27T13:16:58.000Z</time>
      </trkpt>
      <trkpt lat="50.44217" lon="4.43889">
        <ele>213</ele>
        <time>2012-07-27T13:16:59.000Z</time>
      </trkpt>
      <trkpt lat="50.44217" lon="4.43899">
        <ele>212.5</ele>
        <time>2012-07-27T13:17:00.000Z</time>
      </trkpt>
      <trkpt lat="50.44217" lon="4.4391">
        <ele>213.1</ele>
        <time>2012-07-27T13:17:01.000Z</time>
      </trkpt>
      <trkpt lat="50.44216" lon="4.43921">
        <ele>212.8</ele>
        <time>2012-07-27T13:17:02.000Z</time>
      </trkpt>
      <trkpt lat="50.44216" lon="4.43932">
        <ele>211.7</ele>
        <time>2012-07-27T13:17:03.000Z</time>
      </trkpt>
      <trkpt lat="50.44215" lon="4.43942">
        <ele>210.9</ele>
        <time>2012-07-27T13:17:04.000Z</time>
      </trkpt>
      <trkpt lat="50.44215" lon="4.43953">
        <ele>211.1</ele>
        <time>2012-07-27T13:17:05.000Z</time>
      </trkpt>
      <trkpt lat="50.44216" lon="4.43964">
        <ele>210.8</ele>
        <time>2012-07-27T13:17:06.000Z</time>
      </trkpt>
      <trkpt lat="50.44216" lon="4.43974">
        <ele>210.8</ele>
        <time>2012-07-27T13:17:07.000Z</time>
      </trkpt>
      <trkpt lat="50.44216" lon="4.43985">
        <ele>210.2</ele>
        <time>2012-07-27T13:17:08.000Z</time>
      </trkpt>
      <trkpt lat="50.44215" lon="4.43996">
        <ele>209.7</ele>
        <time>2012-07-27T13:17:08.999Z</time>
      </trkpt>
      <trkpt lat="50.44214" lon="4.44007">
        <ele>209.7</ele>
        <time>2012-07-27T13:17:10.000Z</time>
      </trkpt>
      <trkpt lat="50.44212" lon="4.44016">
        <ele>210.1</ele>
        <time>2012-07-27T13:17:11.000Z</time>
      </trkpt>
      <trkpt lat="50.44206" lon="4.44021">
        <ele>209.7</ele>
        <time>2012-07-27T13:17:12.000Z</time>
      </trkpt>
      <trkpt lat="50.44201" lon="4.44027">
        <ele>210.2</ele>
        <time>2012-07-27T13:17:13.000Z</time>
      </trkpt>
      <trkpt lat="50.44197" lon="4.44039">
        <ele>209.5</ele>
        <time>2012-07-27T13:17:15.000Z</time>
      </trkpt>
      <trkpt lat="50.44195" lon="4.44048">
        <ele>209.5</ele>
        <time>2012-07-27T13:17:16.000Z</time>
      </trkpt>
      <trkpt lat="50.44203" lon="4.44052">
        <ele>209.8</ele>
        <time>2012-07-27T13:17:17.000Z</time>
      </trkpt>
      <trkpt lat="50.44207" lon="4.44056">
        <ele>208.9</ele>
        <time>2012-07-27T13:17:18.000Z</time>
      </trkpt>
      <trkpt lat="50.44212" lon="4.44062">
        <ele>208.8</ele>
        <time>2012-07-27T13:17:20.000Z</time>
      </trkpt>
      <trkpt lat="50.44216" lon="4.44068">
        <ele>208.2</ele>
        <time>2012-07-27T13:17:22.000Z</time>
      </trkpt>
      <trkpt lat="50.4422" lon="4.44082">
        <ele>207.1</ele>
        <time>2012-07-27T13:17:23.999Z</time>
      </trkpt>
      <trkpt lat="50.44222" lon="4.44088">
        <ele>207.9</ele>
        <time>2012-07-27T13:17:25.000Z</time>
      </trkpt>
      <trkpt lat="50.44224" lon="4.44098">
        <ele>208.3</ele>
        <time>2012-07-27T13:17:26.000Z</time>
      </trkpt>
      <trkpt lat="50.44226" lon="4.44108">
        <ele>208</ele>
        <time>2012-07-27T13:17:27.000Z</time>
      </trkpt>
      <trkpt lat="50.44229" lon="4.44117">
        <ele>207.8</ele>
        <time>2012-07-27T13:17:28.000Z</time>
      </trkpt>
      <trkpt lat="50.44232" lon="4.44125">
        <ele>207</ele>
        <time>2012-07-27T13:17:29.000Z</time>
      </trkpt>
      <trkpt lat="50.44234" lon="4.44135">
        <ele>207.1</ele>
        <time>2012-07-27T13:17:29.999Z</time>
      </trkpt>
      <trkpt lat="50.44236" lon="4.44145">
        <ele>206.3</ele>
        <time>2012-07-27T13:17:31.000Z</time>
      </trkpt>
      <trkpt lat="50.44238" lon="4.44154">
        <ele>206.4</ele>
        <time>2012-07-27T13:17:32.000Z</time>
      </trkpt>
      <trkpt lat="50.44239" lon="4.44163">
        <ele>206.2</ele>
        <time>2012-07-27T13:17:33.000Z</time>
      </trkpt>
      <trkpt lat="50.44239" lon="4.44175">
        <ele>205.7</ele>
        <time>2012-07-27T13:17:34.000Z</time>
      </trkpt>
      <trkpt lat="50.44239" lon="4.44189">
        <ele>205.1</ele>
        <time>2012-07-27T13:17:35.000Z</time>
      </trkpt>
      <trkpt lat="50.44241" lon="4.44199">
        <ele>204.9</ele>
        <time>2012-07-27T13:17:36.000Z</time>
      </trkpt>
      <trkpt lat="50.44242" lon="4.44208">
        <ele>204.5</ele>
        <time>2012-07-27T13:17:37.000Z</time>
      </trkpt>
      <trkpt lat="50.44245" lon="4.44217">
        <ele>204.4</ele>
        <time>2012-07-27T13:17:38.000Z</time>
      </trkpt>
      <trkpt lat="50.44246" lon="4.44226">
        <ele>204.4</ele>
        <time>2012-07-27T13:17:39.000Z</time>
      </trkpt>
      <trkpt lat="50.44249" lon="4.44234">
        <ele>204.3</ele>
        <time>2012-07-27T13:17:40.000Z</time>
      </trkpt>
      <trkpt lat="50.4425" lon="4.44244">
        <ele>204.2</ele>
        <time>2012-07-27T13:17:41.000Z</time>
      </trkpt>
      <trkpt lat="50.44251" lon="4.44253">
        <ele>204.1</ele>
        <time>2012-07-27T13:17:41.999Z</time>
      </trkpt>
      <trkpt lat="50.44253" lon="4.44263">
        <ele>204.2</ele>
        <time>2012-07-27T13:17:43.000Z</time>
      </trkpt>
      <trkpt lat="50.44254" lon="4.44278">
        <ele>203.9</ele>
        <time>2012-07-27T13:17:44.000Z</time>
      </trkpt>
      <trkpt lat="50.44265" lon="4.44287">
        <ele>203.7</ele>
        <time>2012-07-27T13:17:45.000Z</time>
      </trkpt>
      <trkpt lat="50.44266" lon="4.44297">
        <ele>203.5</ele>
        <time>2012-07-27T13:17:46.000Z</time>
      </trkpt>
      <trkpt lat="50.44268" lon="4.44305">
        <ele>202.6</ele>
        <time>2012-07-27T13:17:47.000Z</time>
      </trkpt>
      <trkpt lat="50.4427" lon="4.44315">
        <ele>202.6</ele>
        <time>2012-07-27T13:17:47.999Z</time>
      </trkpt>
      <trkpt lat="50.44272" lon="4.44324">
        <ele>203.6</ele>
        <time>2012-07-27T13:17:49.000Z</time>
      </trkpt>
      <trkpt lat="50.44274" lon="4.44335">
        <ele>203</ele>
        <time>2012-07-27T13:17:50.000Z</time>
      </trkpt>
      <trkpt lat="50.44273" lon="4.44348">
        <ele>200</ele>
        <time>2012-07-27T13:17:51.000Z</time>
      </trkpt>
      <trkpt lat="50.44274" lon="4.44358">
        <ele>199.2</ele>
        <time>2012-07-27T13:17:52.000Z</time>
      </trkpt>
      <trkpt lat="50.44274" lon="4.44368">
        <ele>198</ele>
        <time>2012-07-27T13:17:53.000Z</time>
      </trkpt>
      <trkpt lat="50.4428" lon="4.44375">
        <ele>199.6</ele>
        <time>2012-07-27T13:17:54.000Z</time>
      </trkpt>
      <trkpt lat="50.44281" lon="4.44386">
        <ele>198.3</ele>
        <time>2012-07-27T13:17:55.000Z</time>
      </trkpt>
      <trkpt lat="50.44282" lon="4.44397">
        <ele>197.3</ele>
        <time>2012-07-27T13:17:55.999Z</time>
      </trkpt>
      <trkpt lat="50.44283" lon="4.44408">
        <ele>197.8</ele>
        <time>2012-07-27T13:17:57.000Z</time>
      </trkpt>
      <trkpt lat="50.44283" lon="4.44419">
        <ele>197.4</ele>
        <time>2012-07-27T13:17:58.000Z</time>
      </trkpt>
      <trkpt lat="50.44285" lon="4.44428">
        <ele>196.8</ele>
        <time>2012-07-27T13:17:59.000Z</time>
      </trkpt>
      <trkpt lat="50.44285" lon="4.44436">
        <ele>196.6</ele>
        <time>2012-07-27T13:18:00.000Z</time>
      </trkpt>
      <trkpt lat="50.44287" lon="4.44446">
        <ele>196.9</ele>
        <time>2012-07-27T13:18:01.000Z</time>
      </trkpt>
      <trkpt lat="50.44288" lon="4.44455">
        <ele>196.7</ele>
        <time>2012-07-27T13:18:02.000Z</time>
      </trkpt>
      <trkpt lat="50.44292" lon="4.44466">
        <ele>197.4</ele>
        <time>2012-07-27T13:18:03.000Z</time>
      </trkpt>
      <trkpt lat="50.44298" lon="4.44475">
        <ele>200.7</ele>
        <time>2012-07-27T13:18:04.000Z</time>
      </trkpt>
      <trkpt lat="50.44303" lon="4.44487">
        <ele>202.5</ele>
        <time>2012-07-27T13:18:05.000Z</time>
      </trkpt>
      <trkpt lat="50.44304" lon="4.44496">
        <ele>203.3</ele>
        <time>2012-07-27T13:18:06.000Z</time>
      </trkpt>
      <trkpt lat="50.44305" lon="4.44506">
        <ele>203.1</ele>
        <time>2012-07-27T13:18:07.000Z</time>
      </trkpt>
      <trkpt lat="50.44306" lon="4.44518">
        <ele>203.3</ele>
        <time>2012-07-27T13:18:08.000Z</time>
      </trkpt>
      <trkpt lat="50.44308" lon="4.44528">
        <ele>203</ele>
        <time>2012-07-27T13:18:09.000Z</time>
      </trkpt>
      <trkpt lat="50.44311" lon="4.44536">
        <ele>202.6</ele>
        <time>2012-07-27T13:18:10.000Z</time>
      </trkpt>
      <trkpt lat="50.44312" lon="4.44545">
        <ele>202.6</ele>
        <time>2012-07-27T13:18:11.000Z</time>
      </trkpt>
      <trkpt lat="50.44314" lon="4.44556">
        <ele>198.5</ele>
        <time>2012-07-27T13:18:13.000Z</time>
      </trkpt>
      <trkpt lat="50.44317" lon="4.44571">
        <ele>200</ele>
        <time>2012-07-27T13:18:15.000Z</time>
      </trkpt>
      <trkpt lat="50.4432" lon="4.44578">
        <ele>201.2</ele>
        <time>2012-07-27T13:18:16.000Z</time>
      </trkpt>
      <trkpt lat="50.44322" lon="4.44588">
        <ele>201.5</ele>
        <time>2012-07-27T13:18:17.000Z</time>
      </trkpt>
      <trkpt lat="50.44325" lon="4.44596">
        <ele>202.9</ele>
        <time>2012-07-27T13:18:18.000Z</time>
      </trkpt>
      <trkpt lat="50.44326" lon="4.44603">
        <ele>201.9</ele>
        <time>2012-07-27T13:18:19.000Z</time>
      </trkpt>
      <trkpt lat="50.4433" lon="4.44612">
        <ele>201.7</ele>
        <time>2012-07-27T13:18:20.000Z</time>
      </trkpt>
      <trkpt lat="50.44333" lon="4.44622">
        <ele>202.6</ele>
        <time>2012-07-27T13:18:21.000Z</time>
      </trkpt>
      <trkpt lat="50.44335" lon="4.44632">
        <ele>202.7</ele>
        <time>2012-07-27T13:18:22.000Z</time>
      </trkpt>
      <trkpt lat="50.44339" lon="4.44641">
        <ele>202.9</ele>
        <time>2012-07-27T13:18:23.000Z</time>
      </trkpt>
      <trkpt lat="50.44342" lon="4.44651">
        <ele>202.7</ele>
        <time>2012-07-27T13:18:24.000Z</time>
      </trkpt>
      <trkpt lat="50.44345" lon="4.44661">
        <ele>203.8</ele>
        <time>2012-07-27T13:18:25.000Z</time>
      </trkpt>
      <trkpt lat="50.44347" lon="4.4467">
        <ele>202.4</ele>
        <time>2012-07-27T13:18:26.000Z</time>
      </trkpt>
      <trkpt lat="50.4435" lon="4.4468">
        <ele>201.9</ele>
        <time>2012-07-27T13:18:27.000Z</time>
      </trkpt>
      <trkpt lat="50.44354" lon="4.4469">
        <ele>201.2</ele>
        <time>2012-07-27T13:18:28.000Z</time>
      </trkpt>
      <trkpt lat="50.44358" lon="4.44699">
        <ele>201.5</ele>
        <time>2012-07-27T13:18:29.000Z</time>
      </trkpt>
      <trkpt lat="50.4436" lon="4.44708">
        <ele>200.4</ele>
        <time>2012-07-27T13:18:30.000Z</time>
      </trkpt>
      <trkpt lat="50.44364" lon="4.44719">
        <ele>200</ele>
        <time>2012-07-27T13:18:31.000Z</time>
      </trkpt>
      <trkpt lat="50.44366" lon="4.44729">
        <ele>198.6</ele>
        <time>2012-07-27T13:18:32.000Z</time>
      </trkpt>
      <trkpt lat="50.44368" lon="4.44738">
        <ele>198.7</ele>
        <time>2012-07-27T13:18:33.000Z</time>
      </trkpt>
      <trkpt lat="50.44371" lon="4.44748">
        <ele>198.4</ele>
        <time>2012-07-27T13:18:34.000Z</time>
      </trkpt>
      <trkpt lat="50.44373" lon="4.44759">
        <ele>198.2</ele>
        <time>2012-07-27T13:18:35.000Z</time>
      </trkpt>
      <trkpt lat="50.44376" lon="4.44766">
        <ele>198.6</ele>
        <time>2012-07-27T13:18:36.000Z</time>
      </trkpt>
      <trkpt lat="50.44381" lon="4.44775">
        <ele>198.7</ele>
        <time>2012-07-27T13:18:37.000Z</time>
      </trkpt>
      <trkpt lat="50.44385" lon="4.44784">
        <ele>198.8</ele>
        <time>2012-07-27T13:18:38.000Z</time>
      </trkpt>
      <trkpt lat="50.44388" lon="4.44792">
        <ele>200</ele>
        <time>2012-07-27T13:18:39.000Z</time>
      </trkpt>
      <trkpt lat="50.4439" lon="4.44807">
        <ele>200.2</ele>
        <time>2012-07-27T13:18:40.000Z</time>
      </trkpt>
      <trkpt lat="50.44391" lon="4.44816">
        <ele>198.7</ele>
        <time>2012-07-27T13:18:41.000Z</time>
      </trkpt>
      <trkpt lat="50.44391" lon="4.44825">
        <ele>198.2</ele>
        <time>2012-07-27T13:18:42.000Z</time>
      </trkpt>
      <trkpt lat="50.44394" lon="4.44835">
        <ele>198.9</ele>
        <time>2012-07-27T13:18:43.000Z</time>
      </trkpt>
      <trkpt lat="50.44397" lon="4.44845">
        <ele>200.4</ele>
        <time>2012-07-27T13:18:44.000Z</time>
      </trkpt>
      <trkpt lat="50.444" lon="4.44854">
        <ele>201.1</ele>
        <time>2012-07-27T13:18:45.000Z</time>
      </trkpt>
      <trkpt lat="50.44403" lon="4.44864">
        <ele>200.7</ele>
        <time>2012-07-27T13:18:46.000Z</time>
      </trkpt>
      <trkpt lat="50.44406" lon="4.44873">
        <ele>201.3</ele>
        <time>2012-07-27T13:18:47.000Z</time>
      </trkpt>
      <trkpt lat="50.4441" lon="4.44882">
        <ele>200.7</ele>
        <time>2012-07-27T13:18:48.000Z</time>
      </trkpt>
      <trkpt lat="50.44414" lon="4.4489">
        <ele>200.2</ele>
        <time>2012-07-27T13:18:49.000Z</time>
      </trkpt>
      <trkpt lat="50.44418" lon="4.44897">
        <ele>200.4</ele>
        <time>2012-07-27T13:18:50.000Z</time>
      </trkpt>
      <trkpt lat="50.44419" lon="4.44905">
        <ele>201.1</ele>
        <time>2012-07-27T13:18:51.000Z</time>
      </trkpt>
      <trkpt lat="50.44422" lon="4.44915">
        <ele>200.2</ele>
        <time>2012-07-27T13:18:52.000Z</time>
      </trkpt>
      <trkpt lat="50.44424" lon="4.44924">
        <ele>199.7</ele>
        <time>2012-07-27T13:18:53.000Z</time>
      </trkpt>
      <trkpt lat="50.44427" lon="4.44936">
        <ele>202.3</ele>
        <time>2012-07-27T13:18:56.000Z</time>
      </trkpt>
      <trkpt lat="50.44427" lon="4.44944">
        <ele>201.9</ele>
        <time>2012-07-27T13:18:58.000Z</time>
      </trkpt>
      <trkpt lat="50.44428" lon="4.44954">
        <ele>203.8</ele>
        <time>2012-07-27T13:19:00.000Z</time>
      </trkpt>
      <trkpt lat="50.44428" lon="4.44964">
        <ele>203.9</ele>
        <time>2012-07-27T13:19:02.000Z</time>
      </trkpt>
      <trkpt lat="50.4443" lon="4.44971">
        <ele>204.7</ele>
        <time>2012-07-27T13:19:03.000Z</time>
      </trkpt>
      <trkpt lat="50.44432" lon="4.44983">
        <ele>204.3</ele>
        <time>2012-07-27T13:19:05.000Z</time>
      </trkpt>
      <trkpt lat="50.44433" lon="4.44994">
        <ele>202.4</ele>
        <time>2012-07-27T13:19:07.000Z</time>
      </trkpt>
      <trkpt lat="50.44435" lon="4.45004">
        <ele>201.2</ele>
        <time>2012-07-27T13:19:09.000Z</time>
      </trkpt>
      <trkpt lat="50.44438" lon="4.45015">
        <ele>200</ele>
        <time>2012-07-27T13:19:11.000Z</time>
      </trkpt>
      <trkpt lat="50.4444" lon="4.45029">
        <ele>199.9</ele>
        <time>2012-07-27T13:19:13.000Z</time>
      </trkpt>
      <trkpt lat="50.44442" lon="4.45037">
        <ele>200</ele>
        <time>2012-07-27T13:19:14.000Z</time>
      </trkpt>
      <trkpt lat="50.44444" lon="4.45047">
        <ele>199.2</ele>
        <time>2012-07-27T13:19:16.000Z</time>
      </trkpt>
      <trkpt lat="50.44446" lon="4.45055">
        <ele>200</ele>
        <time>2012-07-27T13:19:17.000Z</time>
      </trkpt>
      <trkpt lat="50.44447" lon="4.45063">
        <ele>201</ele>
        <time>2012-07-27T13:19:18.000Z</time>
      </trkpt>
      <trkpt lat="50.44447" lon="4.45076">
        <ele>199.3</ele>
        <time>2012-07-27T13:19:20.000Z</time>
      </trkpt>
      <trkpt lat="50.44447" lon="4.45091">
        <ele>198.2</ele>
        <time>2012-07-27T13:19:22.000Z</time>
      </trkpt>
      <trkpt lat="50.4445" lon="4.45097">
        <ele>198</ele>
        <time>2012-07-27T13:19:23.000Z</time>
      </trkpt>
      <trkpt lat="50.4445" lon="4.45105">
        <ele>198.4</ele>
        <time>2012-07-27T13:19:24.000Z</time>
      </trkpt>
      <trkpt lat="50.4445" lon="4.45114">
        <ele>198.1</ele>
        <time>2012-07-27T13:19:25.000Z</time>
      </trkpt>
      <trkpt lat="50.44455" lon="4.45123">
        <ele>197.8</ele>
        <time>2012-07-27T13:19:26.000Z</time>
      </trkpt>
      <trkpt lat="50.44459" lon="4.45133">
        <ele>197.3</ele>
        <time>2012-07-27T13:19:27.000Z</time>
      </trkpt>
      <trkpt lat="50.44466" lon="4.45139">
        <ele>197.2</ele>
        <time>2012-07-27T13:19:28.000Z</time>
      </trkpt>
      <trkpt lat="50.44469" lon="4.45152">
        <ele>197.9</ele>
        <time>2012-07-27T13:19:29.995Z</time>
      </trkpt>
      <trkpt lat="50.44471" lon="4.45161">
        <ele>199.3</ele>
        <time>2012-07-27T13:19:30.998Z</time>
      </trkpt>
      <trkpt lat="50.44472" lon="4.45168">
        <ele>198.9</ele>
        <time>2012-07-27T13:19:32.000Z</time>
      </trkpt>
      <trkpt lat="50.44475" lon="4.4518">
        <ele>198.7</ele>
        <time>2012-07-27T13:19:34.000Z</time>
      </trkpt>
      <trkpt lat="50.44475" lon="4.45192">
        <ele>197.2</ele>
        <time>2012-07-27T13:19:36.000Z</time>
      </trkpt>
      <trkpt lat="50.44476" lon="4.452">
        <ele>197.6</ele>
        <time>2012-07-27T13:19:37.000Z</time>
      </trkpt>
      <trkpt lat="50.44476" lon="4.45208">
        <ele>197.8</ele>
        <time>2012-07-27T13:19:38.000Z</time>
      </trkpt>
      <trkpt lat="50.44477" lon="4.45216">
        <ele>198.7</ele>
        <time>2012-07-27T13:19:39.000Z</time>
      </trkpt>
      <trkpt lat="50.44478" lon="4.45225">
        <ele>199.2</ele>
        <time>2012-07-27T13:19:40.000Z</time>
      </trkpt>
      <trkpt lat="50.4448" lon="4.45233">
        <ele>198.3</ele>
        <time>2012-07-27T13:19:41.000Z</time>
      </trkpt>
      <trkpt lat="50.4448" lon="4.45241">
        <ele>198.4</ele>
        <time>2012-07-27T13:19:42.000Z</time>
      </trkpt>
      <trkpt lat="50.44482" lon="4.4525">
        <ele>199</ele>
        <time>2012-07-27T13:19:43.000Z</time>
      </trkpt>
      <trkpt lat="50.44483" lon="4.45258">
        <ele>198.7</ele>
        <time>2012-07-27T13:19:44.000Z</time>
      </trkpt>
      <trkpt lat="50.44484" lon="4.45267">
        <ele>198.3</ele>
        <time>2012-07-27T13:19:45.000Z</time>
      </trkpt>
      <trkpt lat="50.44486" lon="4.45276">
        <ele>200.3</ele>
        <time>2012-07-27T13:19:46.000Z</time>
      </trkpt>
      <trkpt lat="50.44489" lon="4.45284">
        <ele>200.7</ele>
        <time>2012-07-27T13:19:47.000Z</time>
      </trkpt>
      <trkpt lat="50.44489" lon="4.45294">
        <ele>200.5</ele>
        <time>2012-07-27T13:19:48.000Z</time>
      </trkpt>
      <trkpt lat="50.44493" lon="4.45302">
        <ele>199.4</ele>
        <time>2012-07-27T13:19:49.000Z</time>
      </trkpt>
      <trkpt lat="50.44495" lon="4.45309">
        <ele>198.4</ele>
        <time>2012-07-27T13:19:50.000Z</time>
      </trkpt>
      <trkpt lat="50.44497" lon="4.45317">
        <ele>199</ele>
        <time>2012-07-27T13:19:51.000Z</time>
      </trkpt>
      <trkpt lat="50.44497" lon="4.45326">
        <ele>197.6</ele>
        <time>2012-07-27T13:19:52.000Z</time>
      </trkpt>
      <trkpt lat="50.44499" lon="4.45336">
        <ele>199.5</ele>
        <time>2012-07-27T13:19:53.000Z</time>
      </trkpt>
      <trkpt lat="50.445" lon="4.45344">
        <ele>197.9</ele>
        <time>2012-07-27T13:19:54.000Z</time>
      </trkpt>
      <trkpt lat="50.44501" lon="4.45359">
        <ele>194.3</ele>
        <time>2012-07-27T13:19:56.000Z</time>
      </trkpt>
      <trkpt lat="50.44501" lon="4.45368">
        <ele>193.9</ele>
        <time>2012-07-27T13:19:57.000Z</time>
      </trkpt>
      <trkpt lat="50.44501" lon="4.45377">
        <ele>193.7</ele>
        <time>2012-07-27T13:19:58.000Z</time>
      </trkpt>
      <trkpt lat="50.44503" lon="4.45388">
        <ele>193.3</ele>
        <time>2012-07-27T13:19:59.000Z</time>
      </trkpt>
      <trkpt lat="50.44504" lon="4.45396">
        <ele>192.4</ele>
        <time>2012-07-27T13:20:00.000Z</time>
      </trkpt>
      <trkpt lat="50.44507" lon="4.45406">
        <ele>193.5</ele>
        <time>2012-07-27T13:20:01.000Z</time>
      </trkpt>
      <trkpt lat="50.44509" lon="4.45414">
        <ele>193.8</ele>
        <time>2012-07-27T13:20:02.000Z</time>
      </trkpt>
      <trkpt lat="50.44508" lon="4.45423">
        <ele>194.4</ele>
        <time>2012-07-27T13:20:03.000Z</time>
      </trkpt>
      <trkpt lat="50.4451" lon="4.45431">
        <ele>194.9</ele>
        <time>2012-07-27T13:20:04.000Z</time>
      </trkpt>
      <trkpt lat="50.44512" lon="4.4544">
        <ele>192.4</ele>
        <time>2012-07-27T13:20:05.000Z</time>
      </trkpt>
      <trkpt lat="50.44513" lon="4.45449">
        <ele>191.9</ele>
        <time>2012-07-27T13:20:06.000Z</time>
      </trkpt>
      <trkpt lat="50.44514" lon="4.45457">
        <ele>191.7</ele>
        <time>2012-07-27T13:20:07.000Z</time>
      </trkpt>
      <trkpt lat="50.44516" lon="4.45467">
        <ele>190.8</ele>
        <time>2012-07-27T13:20:08.000Z</time>
      </trkpt>
      <trkpt lat="50.44518" lon="4.45475">
        <ele>189.6</ele>
        <time>2012-07-27T13:20:09.000Z</time>
      </trkpt>
      <trkpt lat="50.4452" lon="4.45485">
        <ele>190.8</ele>
        <time>2012-07-27T13:20:10.000Z</time>
      </trkpt>
      <trkpt lat="50.4452" lon="4.45493">
        <ele>191.1</ele>
        <time>2012-07-27T13:20:11.000Z</time>
      </trkpt>
      <trkpt lat="50.44521" lon="4.45502">
        <ele>190.6</ele>
        <time>2012-07-27T13:20:12.000Z</time>
      </trkpt>
      <trkpt lat="50.44522" lon="4.45516">
        <ele>188</ele>
        <time>2012-07-27T13:20:14.000Z</time>
      </trkpt>
      <trkpt lat="50.44524" lon="4.45525">
        <ele>186.7</ele>
        <time>2012-07-27T13:20:15.000Z</time>
      </trkpt>
      <trkpt lat="50.44526" lon="4.45535">
        <ele>187.5</ele>
        <time>2012-07-27T13:20:16.000Z</time>
      </trkpt>
      <trkpt lat="50.44527" lon="4.45544">
        <ele>188.9</ele>
        <time>2012-07-27T13:20:17.000Z</time>
      </trkpt>
      <trkpt lat="50.44529" lon="4.45553">
        <ele>189.7</ele>
        <time>2012-07-27T13:20:18.000Z</time>
      </trkpt>
      <trkpt lat="50.44531" lon="4.45563">
        <ele>190.5</ele>
        <time>2012-07-27T13:20:19.000Z</time>
      </trkpt>
      <trkpt lat="50.44533" lon="4.45572">
        <ele>191.9</ele>
        <time>2012-07-27T13:20:20.000Z</time>
      </trkpt>
      <trkpt lat="50.44535" lon="4.45581">
        <ele>192</ele>
        <time>2012-07-27T13:20:21.000Z</time>
      </trkpt>
      <trkpt lat="50.44537" lon="4.4559">
        <ele>193.7</ele>
        <time>2012-07-27T13:20:22.000Z</time>
      </trkpt>
      <trkpt lat="50.44538" lon="4.45599">
        <ele>194</ele>
        <time>2012-07-27T13:20:23.000Z</time>
      </trkpt>
      <trkpt lat="50.44539" lon="4.45608">
        <ele>192.9</ele>
        <time>2012-07-27T13:20:24.000Z</time>
      </trkpt>
      <trkpt lat="50.44541" lon="4.45617">
        <ele>193</ele>
        <time>2012-07-27T13:20:25.000Z</time>
      </trkpt>
      <trkpt lat="50.44543" lon="4.45626">
        <ele>194</ele>
        <time>2012-07-27T13:20:26.000Z</time>
      </trkpt>
      <trkpt lat="50.44544" lon="4.45635">
        <ele>192.8</ele>
        <time>2012-07-27T13:20:27.000Z</time>
      </trkpt>
      <trkpt lat="50.44545" lon="4.45643">
        <ele>191.6</ele>
        <time>2012-07-27T13:20:28.000Z</time>
      </trkpt>
      <trkpt lat="50.44546" lon="4.45652">
        <ele>191.1</ele>
        <time>2012-07-27T13:20:29.000Z</time>
      </trkpt>
      <trkpt lat="50.44548" lon="4.45662">
        <ele>190.9</ele>
        <time>2012-07-27T13:20:30.000Z</time>
      </trkpt>
      <trkpt lat="50.44549" lon="4.45672">
        <ele>191.2</ele>
        <time>2012-07-27T13:20:31.000Z</time>
      </trkpt>
      <trkpt lat="50.44549" lon="4.45681">
        <ele>189.3</ele>
        <time>2012-07-27T13:20:32.000Z</time>
      </trkpt>
      <trkpt lat="50.4455" lon="4.4569">
        <ele>188.7</ele>
        <time>2012-07-27T13:20:33.000Z</time>
      </trkpt>
      <trkpt lat="50.4455" lon="4.45701">
        <ele>188.3</ele>
        <time>2012-07-27T13:20:34.000Z</time>
      </trkpt>
      <trkpt lat="50.4455" lon="4.45709">
        <ele>185.9</ele>
        <time>2012-07-27T13:20:35.000Z</time>
      </trkpt>
      <trkpt lat="50.44551" lon="4.45718">
        <ele>186.6</ele>
        <time>2012-07-27T13:20:36.000Z</time>
      </trkpt>
      <trkpt lat="50.44553" lon="4.45729">
        <ele>186.9</ele>
        <time>2012-07-27T13:20:37.000Z</time>
      </trkpt>
      <trkpt lat="50.44553" lon="4.45739">
        <ele>187.4</ele>
        <time>2012-07-27T13:20:38.000Z</time>
      </trkpt>
      <trkpt lat="50.44553" lon="4.45749">
        <ele>188.8</ele>
        <time>2012-07-27T13:20:39.000Z</time>
      </trkpt>
      <trkpt lat="50.44554" lon="4.4576">
        <ele>189.2</ele>
        <time>2012-07-27T13:20:40.000Z</time>
      </trkpt>
      <trkpt lat="50.44554" lon="4.45769">
        <ele>190.3</ele>
        <time>2012-07-27T13:20:41.000Z</time>
      </trkpt>
      <trkpt lat="50.44554" lon="4.45779">
        <ele>190.6</ele>
        <time>2012-07-27T13:20:42.000Z</time>
      </trkpt>
      <trkpt lat="50.44554" lon="4.45789">
        <ele>191.3</ele>
        <time>2012-07-27T13:20:43.000Z</time>
      </trkpt>
      <trkpt lat="50.44554" lon="4.45798">
        <ele>192.8</ele>
        <time>2012-07-27T13:20:44.000Z</time>
      </trkpt>
      <trkpt lat="50.44554" lon="4.45808">
        <ele>194.6</ele>
        <time>2012-07-27T13:20:45.000Z</time>
      </trkpt>
      <trkpt lat="50.44554" lon="4.45817">
        <ele>195</ele>
        <time>2012-07-27T13:20:46.000Z</time>
      </trkpt>
      <trkpt lat="50.44552" lon="4.45827">
        <ele>194.9</ele>
        <time>2012-07-27T13:20:47.000Z</time>
      </trkpt>
      <trkpt lat="50.44552" lon="4.45836">
        <ele>195.4</ele>
        <time>2012-07-27T13:20:48.000Z</time>
      </trkpt>
      <trkpt lat="50.4455" lon="4.45846">
        <ele>196.7</ele>
        <time>2012-07-27T13:20:49.000Z</time>
      </trkpt>
      <trkpt lat="50.4455" lon="4.45856">
        <ele>197.7</ele>
        <time>2012-07-27T13:20:50.000Z</time>
      </trkpt>
      <trkpt lat="50.44549" lon="4.45866">
        <ele>197.5</ele>
        <time>2012-07-27T13:20:51.000Z</time>
      </trkpt>
      <trkpt lat="50.44548" lon="4.45876">
        <ele>197.9</ele>
        <time>2012-07-27T13:20:52.000Z</time>
      </trkpt>
      <trkpt lat="50.44548" lon="4.45886">
        <ele>198.2</ele>
        <time>2012-07-27T13:20:53.000Z</time>
      </trkpt>
      <trkpt lat="50.44547" lon="4.45895">
        <ele>198.8</ele>
        <time>2012-07-27T13:20:54.000Z</time>
      </trkpt>
      <trkpt lat="50.44546" lon="4.45904">
        <ele>197.7</ele>
        <time>2012-07-27T13:20:55.000Z</time>
      </trkpt>
      <trkpt lat="50.44546" lon="4.45913">
        <ele>198</ele>
        <time>2012-07-27T13:20:56.000Z</time>
      </trkpt>
      <trkpt lat="50.44544" lon="4.45922">
        <ele>198.1</ele>
        <time>2012-07-27T13:20:57.000Z</time>
      </trkpt>
      <trkpt lat="50.44542" lon="4.45931">
        <ele>197.7</ele>
        <time>2012-07-27T13:20:58.000Z</time>
      </trkpt>
      <trkpt lat="50.44541" lon="4.45941">
        <ele>197.8</ele>
        <time>2012-07-27T13:20:59.000Z</time>
      </trkpt>
      <trkpt lat="50.4454" lon="4.4595">
        <ele>198.9</ele>
        <time>2012-07-27T13:21:00.000Z</time>
      </trkpt>
      <trkpt lat="50.44539" lon="4.4596">
        <ele>199.1</ele>
        <time>2012-07-27T13:21:01.000Z</time>
      </trkpt>
      <trkpt lat="50.44538" lon="4.4597">
        <ele>199.8</ele>
        <time>2012-07-27T13:21:02.000Z</time>
      </trkpt>
      <trkpt lat="50.44537" lon="4.4598">
        <ele>200.2</ele>
        <time>2012-07-27T13:21:03.000Z</time>
      </trkpt>
      <trkpt lat="50.44536" lon="4.45988">
        <ele>199.8</ele>
        <time>2012-07-27T13:21:04.000Z</time>
      </trkpt>
      <trkpt lat="50.44535" lon="4.45998">
        <ele>200.3</ele>
        <time>2012-07-27T13:21:05.000Z</time>
      </trkpt>
      <trkpt lat="50.44534" lon="4.46007">
        <ele>200.3</ele>
        <time>2012-07-27T13:21:06.000Z</time>
      </trkpt>
      <trkpt lat="50.44533" lon="4.46015">
        <ele>200.7</ele>
        <time>2012-07-27T13:21:07.000Z</time>
      </trkpt>
      <trkpt lat="50.44532" lon="4.46025">
        <ele>200.7</ele>
        <time>2012-07-27T13:21:08.000Z</time>
      </trkpt>
      <trkpt lat="50.44531" lon="4.46034">
        <ele>201</ele>
        <time>2012-07-27T13:21:09.000Z</time>
      </trkpt>
      <trkpt lat="50.44531" lon="4.46043">
        <ele>200.6</ele>
        <time>2012-07-27T13:21:10.000Z</time>
      </trkpt>
      <trkpt lat="50.4453" lon="4.46052">
        <ele>200.3</ele>
        <time>2012-07-27T13:21:11.000Z</time>
      </trkpt>
      <trkpt lat="50.44529" lon="4.4606">
        <ele>201.1</ele>
        <time>2012-07-27T13:21:12.000Z</time>
      </trkpt>
      <trkpt lat="50.44529" lon="4.46069">
        <ele>201.2</ele>
        <time>2012-07-27T13:21:13.000Z</time>
      </trkpt>
      <trkpt lat="50.44527" lon="4.46078">
        <ele>201</ele>
        <time>2012-07-27T13:21:14.000Z</time>
      </trkpt>
      <trkpt lat="50.44527" lon="4.46087">
        <ele>200.5</ele>
        <time>2012-07-27T13:21:15.000Z</time>
      </trkpt>
      <trkpt lat="50.44526" lon="4.46095">
        <ele>200.1</ele>
        <time>2012-07-27T13:21:16.000Z</time>
      </trkpt>
      <trkpt lat="50.44525" lon="4.46103">
        <ele>200.4</ele>
        <time>2012-07-27T13:21:17.000Z</time>
      </trkpt>
      <trkpt lat="50.44524" lon="4.46112">
        <ele>200.6</ele>
        <time>2012-07-27T13:21:19.000Z</time>
      </trkpt>
      <trkpt lat="50.44523" lon="4.4612">
        <ele>202.4</ele>
        <time>2012-07-27T13:21:22.000Z</time>
      </trkpt>
      <trkpt lat="50.44522" lon="4.46129">
        <ele>203.3</ele>
        <time>2012-07-27T13:21:24.000Z</time>
      </trkpt>
      <trkpt lat="50.4452" lon="4.46138">
        <ele>204.6</ele>
        <time>2012-07-27T13:21:26.000Z</time>
      </trkpt>
      <trkpt lat="50.44518" lon="4.46148">
        <ele>204.9</ele>
        <time>2012-07-27T13:21:28.000Z</time>
      </trkpt>
      <trkpt lat="50.44518" lon="4.4616">
        <ele>206</ele>
        <time>2012-07-27T13:21:30.000Z</time>
      </trkpt>
      <trkpt lat="50.44516" lon="4.46172">
        <ele>206.4</ele>
        <time>2012-07-27T13:21:32.000Z</time>
      </trkpt>
      <trkpt lat="50.44515" lon="4.4618">
        <ele>206.4</ele>
        <time>2012-07-27T13:21:33.000Z</time>
      </trkpt>
      <trkpt lat="50.44513" lon="4.46193">
        <ele>206.7</ele>
        <time>2012-07-27T13:21:35.000Z</time>
      </trkpt>
      <trkpt lat="50.44512" lon="4.462">
        <ele>208.1</ele>
        <time>2012-07-27T13:21:36.000Z</time>
      </trkpt>
      <trkpt lat="50.44511" lon="4.46207">
        <ele>208.1</ele>
        <time>2012-07-27T13:21:37.000Z</time>
      </trkpt>
      <trkpt lat="50.44508" lon="4.46221">
        <ele>208.3</ele>
        <time>2012-07-27T13:21:39.000Z</time>
      </trkpt>
      <trkpt lat="50.44506" lon="4.46228">
        <ele>209.5</ele>
        <time>2012-07-27T13:21:40.000Z</time>
      </trkpt>
      <trkpt lat="50.44506" lon="4.46237">
        <ele>209.4</ele>
        <time>2012-07-27T13:21:41.000Z</time>
      </trkpt>
      <trkpt lat="50.44504" lon="4.46252">
        <ele>210.7</ele>
        <time>2012-07-27T13:21:43.000Z</time>
      </trkpt>
      <trkpt lat="50.44503" lon="4.4626">
        <ele>211.4</ele>
        <time>2012-07-27T13:21:44.000Z</time>
      </trkpt>
      <trkpt lat="50.44502" lon="4.46267">
        <ele>212</ele>
        <time>2012-07-27T13:21:45.000Z</time>
      </trkpt>
      <trkpt lat="50.44501" lon="4.46274">
        <ele>212.1</ele>
        <time>2012-07-27T13:21:46.000Z</time>
      </trkpt>
      <trkpt lat="50.44501" lon="4.46281">
        <ele>212.4</ele>
        <time>2012-07-27T13:21:47.000Z</time>
      </trkpt>
      <trkpt lat="50.445" lon="4.46296">
        <ele>212.9</ele>
        <time>2012-07-27T13:21:49.000Z</time>
      </trkpt>
      <trkpt lat="50.44499" lon="4.46303">
        <ele>214.3</ele>
        <time>2012-07-27T13:21:50.000Z</time>
      </trkpt>
      <trkpt lat="50.44498" lon="4.46317">
        <ele>214.3</ele>
        <time>2012-07-27T13:21:52.000Z</time>
      </trkpt>
      <trkpt lat="50.44498" lon="4.46324">
        <ele>213.2</ele>
        <time>2012-07-27T13:21:53.000Z</time>
      </trkpt>
      <trkpt lat="50.44497" lon="4.46332">
        <ele>213.8</ele>
        <time>2012-07-27T13:21:54.000Z</time>
      </trkpt>
      <trkpt lat="50.44496" lon="4.46341">
        <ele>213.7</ele>
        <time>2012-07-27T13:21:55.000Z</time>
      </trkpt>
      <trkpt lat="50.44495" lon="4.46348">
        <ele>214.4</ele>
        <time>2012-07-27T13:21:56.000Z</time>
      </trkpt>
      <trkpt lat="50.44493" lon="4.46356">
        <ele>214.8</ele>
        <time>2012-07-27T13:21:57.000Z</time>
      </trkpt>
      <trkpt lat="50.44492" lon="4.46363">
        <ele>214.8</ele>
        <time>2012-07-27T13:21:58.000Z</time>
      </trkpt>
      <trkpt lat="50.44494" lon="4.46373">
        <ele>216.1</ele>
        <time>2012-07-27T13:21:59.000Z</time>
      </trkpt>
      <trkpt lat="50.44492" lon="4.46388">
        <ele>216.6</ele>
        <time>2012-07-27T13:22:01.000Z</time>
      </trkpt>
      <trkpt lat="50.44492" lon="4.46396">
        <ele>216.5</ele>
        <time>2012-07-27T13:22:02.000Z</time>
      </trkpt>
      <trkpt lat="50.44492" lon="4.46404">
        <ele>216.1</ele>
        <time>2012-07-27T13:22:03.000Z</time>
      </trkpt>
      <trkpt lat="50.44494" lon="4.46416">
        <ele>215.9</ele>
        <time>2012-07-27T13:22:05.000Z</time>
      </trkpt>
      <trkpt lat="50.44487" lon="4.46423">
        <ele>214.8</ele>
        <time>2012-07-27T13:22:06.000Z</time>
      </trkpt>
      <trkpt lat="50.44486" lon="4.46433">
        <ele>214.5</ele>
        <time>2012-07-27T13:22:07.000Z</time>
      </trkpt>
      <trkpt lat="50.44483" lon="4.46441">
        <ele>215.3</ele>
        <time>2012-07-27T13:22:09.000Z</time>
      </trkpt>
      <trkpt lat="50.44483" lon="4.46449">
        <ele>215.1</ele>
        <time>2012-07-27T13:22:10.000Z</time>
      </trkpt>
      <trkpt lat="50.44482" lon="4.46457">
        <ele>214.2</ele>
        <time>2012-07-27T13:22:11.000Z</time>
      </trkpt>
      <trkpt lat="50.44479" lon="4.46472">
        <ele>213.6</ele>
        <time>2012-07-27T13:22:13.000Z</time>
      </trkpt>
      <trkpt lat="50.44479" lon="4.46479">
        <ele>211.7</ele>
        <time>2012-07-27T13:22:14.000Z</time>
      </trkpt>
      <trkpt lat="50.44477" lon="4.46486">
        <ele>211</ele>
        <time>2012-07-27T13:22:15.000Z</time>
      </trkpt>
      <trkpt lat="50.44475" lon="4.46494">
        <ele>209.6</ele>
        <time>2012-07-27T13:22:16.000Z</time>
      </trkpt>
      <trkpt lat="50.44477" lon="4.46507">
        <ele>208.2</ele>
        <time>2012-07-27T13:22:18.000Z</time>
      </trkpt>
      <trkpt lat="50.44477" lon="4.46515">
        <ele>207.3</ele>
        <time>2012-07-27T13:22:19.000Z</time>
      </trkpt>
      <trkpt lat="50.44477" lon="4.46524">
        <ele>207.2</ele>
        <time>2012-07-27T13:22:20.000Z</time>
      </trkpt>
      <trkpt lat="50.44473" lon="4.46531">
        <ele>207.7</ele>
        <time>2012-07-27T13:22:21.000Z</time>
      </trkpt>
      <trkpt lat="50.44474" lon="4.46542">
        <ele>208.1</ele>
        <time>2012-07-27T13:22:22.000Z</time>
      </trkpt>
      <trkpt lat="50.44474" lon="4.46551">
        <ele>208.4</ele>
        <time>2012-07-27T13:22:23.000Z</time>
      </trkpt>
      <trkpt lat="50.44473" lon="4.4656">
        <ele>208.3</ele>
        <time>2012-07-27T13:22:24.000Z</time>
      </trkpt>
      <trkpt lat="50.44472" lon="4.46568">
        <ele>208</ele>
        <time>2012-07-27T13:22:24.999Z</time>
      </trkpt>
      <trkpt lat="50.44468" lon="4.46574">
        <ele>209.1</ele>
        <time>2012-07-27T13:22:26.000Z</time>
      </trkpt>
      <trkpt lat="50.44466" lon="4.46583">
        <ele>212.9</ele>
        <time>2012-07-27T13:22:27.000Z</time>
      </trkpt>
      <trkpt lat="50.44466" lon="4.46596">
        <ele>216.2</ele>
        <time>2012-07-27T13:22:29.000Z</time>
      </trkpt>
      <trkpt lat="50.4446" lon="4.46609">
        <ele>215</ele>
        <time>2012-07-27T13:22:31.000Z</time>
      </trkpt>
      <trkpt lat="50.44457" lon="4.46617">
        <ele>213.9</ele>
        <time>2012-07-27T13:22:32.000Z</time>
      </trkpt>
      <trkpt lat="50.44454" lon="4.46624">
        <ele>213.4</ele>
        <time>2012-07-27T13:22:33.000Z</time>
      </trkpt>
      <trkpt lat="50.44454" lon="4.46632">
        <ele>212</ele>
        <time>2012-07-27T13:22:34.000Z</time>
      </trkpt>
      <trkpt lat="50.44453" lon="4.46642">
        <ele>211.7</ele>
        <time>2012-07-27T13:22:36.000Z</time>
      </trkpt>
      <trkpt lat="50.44453" lon="4.46656">
        <ele>210.7</ele>
        <time>2012-07-27T13:22:38.000Z</time>
      </trkpt>
      <trkpt lat="50.4445" lon="4.46664">
        <ele>206.2</ele>
        <time>2012-07-27T13:22:39.000Z</time>
      </trkpt>
      <trkpt lat="50.44449" lon="4.46671">
        <ele>203.7</ele>
        <time>2012-07-27T13:22:40.000Z</time>
      </trkpt>
      <trkpt lat="50.44451" lon="4.46686">
        <ele>203.7</ele>
        <time>2012-07-27T13:22:42.000Z</time>
      </trkpt>
      <trkpt lat="50.4445" lon="4.46694">
        <ele>204.5</ele>
        <time>2012-07-27T13:22:43.000Z</time>
      </trkpt>
      <trkpt lat="50.4445" lon="4.46702">
        <ele>202.9</ele>
        <time>2012-07-27T13:22:44.000Z</time>
      </trkpt>
      <trkpt lat="50.4445" lon="4.46709">
        <ele>202.7</ele>
        <time>2012-07-27T13:22:45.000Z</time>
      </trkpt>
      <trkpt lat="50.44447" lon="4.46716">
        <ele>201.7</ele>
        <time>2012-07-27T13:22:46.000Z</time>
      </trkpt>
      <trkpt lat="50.44446" lon="4.46724">
        <ele>200.6</ele>
        <time>2012-07-27T13:22:47.000Z</time>
      </trkpt>
      <trkpt lat="50.44442" lon="4.46739">
        <ele>200.8</ele>
        <time>2012-07-27T13:22:49.000Z</time>
      </trkpt>
      <trkpt lat="50.44442" lon="4.46756">
        <ele>200.5</ele>
        <time>2012-07-27T13:22:51.000Z</time>
      </trkpt>
      <trkpt lat="50.44446" lon="4.46762">
        <ele>199.3</ele>
        <time>2012-07-27T13:22:52.000Z</time>
      </trkpt>
      <trkpt lat="50.44445" lon="4.46772">
        <ele>204.5</ele>
        <time>2012-07-27T13:22:53.000Z</time>
      </trkpt>
      <trkpt lat="50.44442" lon="4.4678">
        <ele>207.7</ele>
        <time>2012-07-27T13:22:54.000Z</time>
      </trkpt>
      <trkpt lat="50.44441" lon="4.46787">
        <ele>207.9</ele>
        <time>2012-07-27T13:22:55.000Z</time>
      </trkpt>
      <trkpt lat="50.44441" lon="4.46794">
        <ele>207.7</ele>
        <time>2012-07-27T13:22:56.000Z</time>
      </trkpt>
      <trkpt lat="50.44441" lon="4.46802">
        <ele>207.4</ele>
        <time>2012-07-27T13:22:57.000Z</time>
      </trkpt>
      <trkpt lat="50.4444" lon="4.46816">
        <ele>207.4</ele>
        <time>2012-07-27T13:22:59.000Z</time>
      </trkpt>
      <trkpt lat="50.44439" lon="4.46825">
        <ele>207.2</ele>
        <time>2012-07-27T13:23:00.000Z</time>
      </trkpt>
      <trkpt lat="50.44439" lon="4.46832">
        <ele>206.4</ele>
        <time>2012-07-27T13:23:01.000Z</time>
      </trkpt>
      <trkpt lat="50.44438" lon="4.4684">
        <ele>205.9</ele>
        <time>2012-07-27T13:23:02.000Z</time>
      </trkpt>
      <trkpt lat="50.44437" lon="4.46846">
        <ele>205.6</ele>
        <time>2012-07-27T13:23:03.000Z</time>
      </trkpt>
      <trkpt lat="50.44436" lon="4.4686">
        <ele>206.2</ele>
        <time>2012-07-27T13:23:05.000Z</time>
      </trkpt>
      <trkpt lat="50.44435" lon="4.46868">
        <ele>206.7</ele>
        <time>2012-07-27T13:23:06.000Z</time>
      </trkpt>
      <trkpt lat="50.44435" lon="4.46877">
        <ele>208.4</ele>
        <time>2012-07-27T13:23:07.000Z</time>
      </trkpt>
      <trkpt lat="50.44435" lon="4.46885">
        <ele>208.7</ele>
        <time>2012-07-27T13:23:08.000Z</time>
      </trkpt>
      <trkpt lat="50.44435" lon="4.46892">
        <ele>209.2</ele>
        <time>2012-07-27T13:23:09.000Z</time>
      </trkpt>
      <trkpt lat="50.44431" lon="4.469">
        <ele>206.7</ele>
        <time>2012-07-27T13:23:10.000Z</time>
      </trkpt>
      <trkpt lat="50.44429" lon="4.46913">
        <ele>204.8</ele>
        <time>2012-07-27T13:23:12.000Z</time>
      </trkpt>
      <trkpt lat="50.44432" lon="4.46926">
        <ele>205.1</ele>
        <time>2012-07-27T13:23:14.000Z</time>
      </trkpt>
      <trkpt lat="50.44426" lon="4.46941">
        <ele>206.1</ele>
        <time>2012-07-27T13:23:16.000Z</time>
      </trkpt>
      <trkpt lat="50.44425" lon="4.46949">
        <ele>207.5</ele>
        <time>2012-07-27T13:23:17.000Z</time>
      </trkpt>
      <trkpt lat="50.44423" lon="4.46958">
        <ele>208.8</ele>
        <time>2012-07-27T13:23:18.000Z</time>
      </trkpt>
      <trkpt lat="50.44422" lon="4.46966">
        <ele>208.9</ele>
        <time>2012-07-27T13:23:19.000Z</time>
      </trkpt>
      <trkpt lat="50.44421" lon="4.46976">
        <ele>208.5</ele>
        <time>2012-07-27T13:23:20.000Z</time>
      </trkpt>
      <trkpt lat="50.44419" lon="4.46983">
        <ele>209.1</ele>
        <time>2012-07-27T13:23:21.000Z</time>
      </trkpt>
      <trkpt lat="50.44418" lon="4.46995">
        <ele>209.7</ele>
        <time>2012-07-27T13:23:22.000Z</time>
      </trkpt>
      <trkpt lat="50.44418" lon="4.4701">
        <ele>212.8</ele>
        <time>2012-07-27T13:23:24.000Z</time>
      </trkpt>
      <trkpt lat="50.44417" lon="4.47019">
        <ele>214.9</ele>
        <time>2012-07-27T13:23:25.000Z</time>
      </trkpt>
      <trkpt lat="50.44416" lon="4.47028">
        <ele>215.7</ele>
        <time>2012-07-27T13:23:26.000Z</time>
      </trkpt>
      <trkpt lat="50.44415" lon="4.47035">
        <ele>215.9</ele>
        <time>2012-07-27T13:23:27.000Z</time>
      </trkpt>
      <trkpt lat="50.44412" lon="4.47041">
        <ele>216.4</ele>
        <time>2012-07-27T13:23:28.000Z</time>
      </trkpt>
      <trkpt lat="50.44411" lon="4.47051">
        <ele>218.4</ele>
        <time>2012-07-27T13:23:29.000Z</time>
      </trkpt>
      <trkpt lat="50.44413" lon="4.4706">
        <ele>221.1</ele>
        <time>2012-07-27T13:23:30.000Z</time>
      </trkpt>
      <trkpt lat="50.44415" lon="4.47075">
        <ele>222.1</ele>
        <time>2012-07-27T13:23:32.000Z</time>
      </trkpt>
      <trkpt lat="50.44415" lon="4.47084">
        <ele>221.5</ele>
        <time>2012-07-27T13:23:33.000Z</time>
      </trkpt>
      <trkpt lat="50.44414" lon="4.47092">
        <ele>221.3</ele>
        <time>2012-07-27T13:23:34.000Z</time>
      </trkpt>
      <trkpt lat="50.44413" lon="4.47101">
        <ele>221.2</ele>
        <time>2012-07-27T13:23:35.000Z</time>
      </trkpt>
      <trkpt lat="50.44414" lon="4.47109">
        <ele>220.2</ele>
        <time>2012-07-27T13:23:36.000Z</time>
      </trkpt>
      <trkpt lat="50.44413" lon="4.47121">
        <ele>219.5</ele>
        <time>2012-07-27T13:23:37.000Z</time>
      </trkpt>
      <trkpt lat="50.44411" lon="4.47128">
        <ele>221.4</ele>
        <time>2012-07-27T13:23:38.000Z</time>
      </trkpt>
      <trkpt lat="50.44411" lon="4.47138">
        <ele>222.2</ele>
        <time>2012-07-27T13:23:39.000Z</time>
      </trkpt>
      <trkpt lat="50.44409" lon="4.47147">
        <ele>222</ele>
        <time>2012-07-27T13:23:40.000Z</time>
      </trkpt>
      <trkpt lat="50.44407" lon="4.4716">
        <ele>222.4</ele>
        <time>2012-07-27T13:23:42.000Z</time>
      </trkpt>
      <trkpt lat="50.44407" lon="4.47171">
        <ele>222.6</ele>
        <time>2012-07-27T13:23:43.000Z</time>
      </trkpt>
      <trkpt lat="50.44405" lon="4.47178">
        <ele>221.8</ele>
        <time>2012-07-27T13:23:44.000Z</time>
      </trkpt>
      <trkpt lat="50.44402" lon="4.47187">
        <ele>221.4</ele>
        <time>2012-07-27T13:23:45.000Z</time>
      </trkpt>
      <trkpt lat="50.44399" lon="4.472">
        <ele>220.1</ele>
        <time>2012-07-27T13:23:47.000Z</time>
      </trkpt>
      <trkpt lat="50.44394" lon="4.47207">
        <ele>218.6</ele>
        <time>2012-07-27T13:23:48.000Z</time>
      </trkpt>
      <trkpt lat="50.44391" lon="4.47215">
        <ele>218.2</ele>
        <time>2012-07-27T13:23:49.000Z</time>
      </trkpt>
      <trkpt lat="50.44387" lon="4.47222">
        <ele>218.9</ele>
        <time>2012-07-27T13:23:50.000Z</time>
      </trkpt>
      <trkpt lat="50.44384" lon="4.4723">
        <ele>218.8</ele>
        <time>2012-07-27T13:23:50.999Z</time>
      </trkpt>
      <trkpt lat="50.44383" lon="4.47241">
        <ele>218.5</ele>
        <time>2012-07-27T13:23:52.000Z</time>
      </trkpt>
      <trkpt lat="50.44381" lon="4.47254">
        <ele>217.7</ele>
        <time>2012-07-27T13:23:53.000Z</time>
      </trkpt>
      <trkpt lat="50.44386" lon="4.47263">
        <ele>217.4</ele>
        <time>2012-07-27T13:23:54.000Z</time>
      </trkpt>
      <trkpt lat="50.44385" lon="4.47272">
        <ele>215.4</ele>
        <time>2012-07-27T13:23:55.000Z</time>
      </trkpt>
      <trkpt lat="50.44386" lon="4.47281">
        <ele>215.1</ele>
        <time>2012-07-27T13:23:56.000Z</time>
      </trkpt>
      <trkpt lat="50.44385" lon="4.47289">
        <ele>213.5</ele>
        <time>2012-07-27T13:23:57.000Z</time>
      </trkpt>
      <trkpt lat="50.44384" lon="4.47298">
        <ele>211.8</ele>
        <time>2012-07-27T13:23:58.000Z</time>
      </trkpt>
      <trkpt lat="50.44384" lon="4.47307">
        <ele>212.3</ele>
        <time>2012-07-27T13:23:59.000Z</time>
      </trkpt>
      <trkpt lat="50.44383" lon="4.47317">
        <ele>212.9</ele>
        <time>2012-07-27T13:24:00.000Z</time>
      </trkpt>
      <trkpt lat="50.44381" lon="4.47326">
        <ele>211.2</ele>
        <time>2012-07-27T13:24:01.000Z</time>
      </trkpt>
      <trkpt lat="50.44379" lon="4.47335">
        <ele>209.9</ele>
        <time>2012-07-27T13:24:02.000Z</time>
      </trkpt>
      <trkpt lat="50.44377" lon="4.47344">
        <ele>209.1</ele>
        <time>2012-07-27T13:24:03.000Z</time>
      </trkpt>
      <trkpt lat="50.44376" lon="4.47353">
        <ele>209.8</ele>
        <time>2012-07-27T13:24:04.000Z</time>
      </trkpt>
      <trkpt lat="50.44375" lon="4.47361">
        <ele>209.1</ele>
        <time>2012-07-27T13:24:05.000Z</time>
      </trkpt>
      <trkpt lat="50.44372" lon="4.47371">
        <ele>208.8</ele>
        <time>2012-07-27T13:24:06.000Z</time>
      </trkpt>
      <trkpt lat="50.4437" lon="4.47381">
        <ele>209</ele>
        <time>2012-07-27T13:24:07.000Z</time>
      </trkpt>
      <trkpt lat="50.44368" lon="4.4739">
        <ele>208.9</ele>
        <time>2012-07-27T13:24:08.000Z</time>
      </trkpt>
      <trkpt lat="50.44367" lon="4.474">
        <ele>207.9</ele>
        <time>2012-07-27T13:24:09.000Z</time>
      </trkpt>
      <trkpt lat="50.44366" lon="4.47409">
        <ele>207.6</ele>
        <time>2012-07-27T13:24:10.000Z</time>
      </trkpt>
      <trkpt lat="50.44364" lon="4.47419">
        <ele>207.4</ele>
        <time>2012-07-27T13:24:11.000Z</time>
      </trkpt>
      <trkpt lat="50.44361" lon="4.47428">
        <ele>207.6</ele>
        <time>2012-07-27T13:24:12.000Z</time>
      </trkpt>
      <trkpt lat="50.44358" lon="4.47436">
        <ele>207.2</ele>
        <time>2012-07-27T13:24:13.000Z</time>
      </trkpt>
      <trkpt lat="50.44355" lon="4.47442">
        <ele>205.5</ele>
        <time>2012-07-27T13:24:14.000Z</time>
      </trkpt>
      <trkpt lat="50.44352" lon="4.4745">
        <ele>205.2</ele>
        <time>2012-07-27T13:24:15.000Z</time>
      </trkpt>
      <trkpt lat="50.44348" lon="4.47458">
        <ele>204.7</ele>
        <time>2012-07-27T13:24:16.000Z</time>
      </trkpt>
      <trkpt lat="50.44344" lon="4.47466">
        <ele>204.7</ele>
        <time>2012-07-27T13:24:17.000Z</time>
      </trkpt>
      <trkpt lat="50.44341" lon="4.47475">
        <ele>204.6</ele>
        <time>2012-07-27T13:24:18.000Z</time>
      </trkpt>
      <trkpt lat="50.4434" lon="4.47484">
        <ele>204.4</ele>
        <time>2012-07-27T13:24:19.000Z</time>
      </trkpt>
      <trkpt lat="50.44339" lon="4.47495">
        <ele>205.6</ele>
        <time>2012-07-27T13:24:20.000Z</time>
      </trkpt>
      <trkpt lat="50.44338" lon="4.47506">
        <ele>206.2</ele>
        <time>2012-07-27T13:24:21.000Z</time>
      </trkpt>
      <trkpt lat="50.44336" lon="4.47516">
        <ele>206.9</ele>
        <time>2012-07-27T13:24:22.000Z</time>
      </trkpt>
      <trkpt lat="50.44333" lon="4.47524">
        <ele>208.8</ele>
        <time>2012-07-27T13:24:23.000Z</time>
      </trkpt>
      <trkpt lat="50.4433" lon="4.47533">
        <ele>210.4</ele>
        <time>2012-07-27T13:24:24.000Z</time>
      </trkpt>
      <trkpt lat="50.44328" lon="4.47543">
        <ele>210.4</ele>
        <time>2012-07-27T13:24:25.000Z</time>
      </trkpt>
      <trkpt lat="50.44326" lon="4.47553">
        <ele>208.3</ele>
        <time>2012-07-27T13:24:26.000Z</time>
      </trkpt>
      <trkpt lat="50.44323" lon="4.47562">
        <ele>206.4</ele>
        <time>2012-07-27T13:24:27.000Z</time>
      </trkpt>
      <trkpt lat="50.44319" lon="4.47572">
        <ele>206.6</ele>
        <time>2012-07-27T13:24:28.000Z</time>
      </trkpt>
      <trkpt lat="50.44318" lon="4.47582">
        <ele>207.4</ele>
        <time>2012-07-27T13:24:29.000Z</time>
      </trkpt>
      <trkpt lat="50.44315" lon="4.47594">
        <ele>206.6</ele>
        <time>2012-07-27T13:24:30.000Z</time>
      </trkpt>
      <trkpt lat="50.44314" lon="4.47603">
        <ele>205.9</ele>
        <time>2012-07-27T13:24:31.000Z</time>
      </trkpt>
      <trkpt lat="50.44312" lon="4.47612">
        <ele>206.6</ele>
        <time>2012-07-27T13:24:32.000Z</time>
      </trkpt>
      <trkpt lat="50.44311" lon="4.47624">
        <ele>207.7</ele>
        <time>2012-07-27T13:24:33.000Z</time>
      </trkpt>
      <trkpt lat="50.4431" lon="4.47634">
        <ele>210.6</ele>
        <time>2012-07-27T13:24:34.000Z</time>
      </trkpt>
      <trkpt lat="50.4431" lon="4.47645">
        <ele>212.6</ele>
        <time>2012-07-27T13:24:35.000Z</time>
      </trkpt>
      <trkpt lat="50.44309" lon="4.47657">
        <ele>214</ele>
        <time>2012-07-27T13:24:36.000Z</time>
      </trkpt>
      <trkpt lat="50.44308" lon="4.47667">
        <ele>214.2</ele>
        <time>2012-07-27T13:24:37.000Z</time>
      </trkpt>
      <trkpt lat="50.44308" lon="4.47676">
        <ele>214</ele>
        <time>2012-07-27T13:24:38.000Z</time>
      </trkpt>
      <trkpt lat="50.44306" lon="4.47687">
        <ele>214.2</ele>
        <time>2012-07-27T13:24:39.000Z</time>
      </trkpt>
      <trkpt lat="50.44305" lon="4.47696">
        <ele>213.7</ele>
        <time>2012-07-27T13:24:40.000Z</time>
      </trkpt>
      <trkpt lat="50.44304" lon="4.47707">
        <ele>213</ele>
        <time>2012-07-27T13:24:41.000Z</time>
      </trkpt>
      <trkpt lat="50.44302" lon="4.47716">
        <ele>213.7</ele>
        <time>2012-07-27T13:24:42.000Z</time>
      </trkpt>
      <trkpt lat="50.44301" lon="4.47722">
        <ele>214</ele>
        <time>2012-07-27T13:24:43.000Z</time>
      </trkpt>
      <trkpt lat="50.44296" lon="4.47733">
        <ele>213.9</ele>
        <time>2012-07-27T13:24:44.000Z</time>
      </trkpt>
      <trkpt lat="50.44293" lon="4.47741">
        <ele>213.5</ele>
        <time>2012-07-27T13:24:45.000Z</time>
      </trkpt>
      <trkpt lat="50.4429" lon="4.4775">
        <ele>213.5</ele>
        <time>2012-07-27T13:24:46.000Z</time>
      </trkpt>
      <trkpt lat="50.44287" lon="4.4776">
        <ele>212.2</ele>
        <time>2012-07-27T13:24:47.000Z</time>
      </trkpt>
      <trkpt lat="50.44286" lon="4.4777">
        <ele>210.9</ele>
        <time>2012-07-27T13:24:48.000Z</time>
      </trkpt>
      <trkpt lat="50.44289" lon="4.47778">
        <ele>212.1</ele>
        <time>2012-07-27T13:24:49.000Z</time>
      </trkpt>
      <trkpt lat="50.44292" lon="4.47784">
        <ele>213</ele>
        <time>2012-07-27T13:24:50.000Z</time>
      </trkpt>
      <trkpt lat="50.44297" lon="4.47792">
        <ele>214.1</ele>
        <time>2012-07-27T13:24:52.000Z</time>
      </trkpt>
      <trkpt lat="50.443" lon="4.47804">
        <ele>214.4</ele>
        <time>2012-07-27T13:24:54.000Z</time>
      </trkpt>
      <trkpt lat="50.44295" lon="4.47816">
        <ele>214.3</ele>
        <time>2012-07-27T13:24:56.000Z</time>
      </trkpt>
      <trkpt lat="50.44292" lon="4.47828">
        <ele>212.8</ele>
        <time>2012-07-27T13:24:58.000Z</time>
      </trkpt>
      <trkpt lat="50.4429" lon="4.47836">
        <ele>212.6</ele>
        <time>2012-07-27T13:24:59.000Z</time>
      </trkpt>
      <trkpt lat="50.44288" lon="4.47844">
        <ele>212.7</ele>
        <time>2012-07-27T13:25:00.000Z</time>
      </trkpt>
      <trkpt lat="50.44286" lon="4.47851">
        <ele>211.7</ele>
        <time>2012-07-27T13:25:01.000Z</time>
      </trkpt>
      <trkpt lat="50.44285" lon="4.4786">
        <ele>211.2</ele>
        <time>2012-07-27T13:25:02.000Z</time>
      </trkpt>
      <trkpt lat="50.44285" lon="4.47867">
        <ele>211.6</ele>
        <time>2012-07-27T13:25:03.000Z</time>
      </trkpt>
      <trkpt lat="50.44283" lon="4.47875">
        <ele>211.4</ele>
        <time>2012-07-27T13:25:04.000Z</time>
      </trkpt>
      <trkpt lat="50.44281" lon="4.47883">
        <ele>210.9</ele>
        <time>2012-07-27T13:25:05.000Z</time>
      </trkpt>
      <trkpt lat="50.44279" lon="4.47892">
        <ele>208.8</ele>
        <time>2012-07-27T13:25:06.000Z</time>
      </trkpt>
      <trkpt lat="50.44277" lon="4.47901">
        <ele>207.6</ele>
        <time>2012-07-27T13:25:07.000Z</time>
      </trkpt>
      <trkpt lat="50.44275" lon="4.4791">
        <ele>206.4</ele>
        <time>2012-07-27T13:25:08.000Z</time>
      </trkpt>
      <trkpt lat="50.44273" lon="4.4792">
        <ele>206.1</ele>
        <time>2012-07-27T13:25:09.000Z</time>
      </trkpt>
      <trkpt lat="50.4427" lon="4.47927">
        <ele>206</ele>
        <time>2012-07-27T13:25:10.000Z</time>
      </trkpt>
      <trkpt lat="50.44269" lon="4.47938">
        <ele>206.6</ele>
        <time>2012-07-27T13:25:11.000Z</time>
      </trkpt>
      <trkpt lat="50.44268" lon="4.47946">
        <ele>205.8</ele>
        <time>2012-07-27T13:25:12.000Z</time>
      </trkpt>
      <trkpt lat="50.44266" lon="4.47957">
        <ele>206.2</ele>
        <time>2012-07-27T13:25:13.000Z</time>
      </trkpt>
      <trkpt lat="50.44265" lon="4.47968">
        <ele>205.7</ele>
        <time>2012-07-27T13:25:14.000Z</time>
      </trkpt>
      <trkpt lat="50.44264" lon="4.47978">
        <ele>205.6</ele>
        <time>2012-07-27T13:25:15.000Z</time>
      </trkpt>
      <trkpt lat="50.44262" lon="4.47989">
        <ele>204.8</ele>
        <time>2012-07-27T13:25:16.000Z</time>
      </trkpt>
      <trkpt lat="50.44259" lon="4.47999">
        <ele>203.8</ele>
        <time>2012-07-27T13:25:17.000Z</time>
      </trkpt>
      <trkpt lat="50.44257" lon="4.4801">
        <ele>203.6</ele>
        <time>2012-07-27T13:25:18.000Z</time>
      </trkpt>
      <trkpt lat="50.44255" lon="4.48019">
        <ele>202.5</ele>
        <time>2012-07-27T13:25:19.000Z</time>
      </trkpt>
      <trkpt lat="50.44251" lon="4.48029">
        <ele>202.6</ele>
        <time>2012-07-27T13:25:20.000Z</time>
      </trkpt>
      <trkpt lat="50.44249" lon="4.48038">
        <ele>202.1</ele>
        <time>2012-07-27T13:25:21.000Z</time>
      </trkpt>
      <trkpt lat="50.44248" lon="4.48048">
        <ele>203</ele>
        <time>2012-07-27T13:25:22.000Z</time>
      </trkpt>
      <trkpt lat="50.44247" lon="4.48055">
        <ele>203.2</ele>
        <time>2012-07-27T13:25:23.000Z</time>
      </trkpt>
      <trkpt lat="50.44248" lon="4.48069">
        <ele>203.8</ele>
        <time>2012-07-27T13:25:25.000Z</time>
      </trkpt>
      <trkpt lat="50.4425" lon="4.48076">
        <ele>204.1</ele>
        <time>2012-07-27T13:25:26.000Z</time>
      </trkpt>
      <trkpt lat="50.44256" lon="4.48086">
        <ele>204.7</ele>
        <time>2012-07-27T13:25:28.000Z</time>
      </trkpt>
      <trkpt lat="50.44259" lon="4.4809">
        <ele>204.4</ele>
        <time>2012-07-27T13:25:29.000Z</time>
      </trkpt>
      <trkpt lat="50.44267" lon="4.48099">
        <ele>203.5</ele>
        <time>2012-07-27T13:25:31.000Z</time>
      </trkpt>
      <trkpt lat="50.44272" lon="4.48104">
        <ele>203.5</ele>
        <time>2012-07-27T13:25:32.000Z</time>
      </trkpt>
      <trkpt lat="50.44276" lon="4.48108">
        <ele>203</ele>
        <time>2012-07-27T13:25:33.000Z</time>
      </trkpt>
      <trkpt lat="50.44281" lon="4.48114">
        <ele>203.4</ele>
        <time>2012-07-27T13:25:34.000Z</time>
      </trkpt>
      <trkpt lat="50.44286" lon="4.48119">
        <ele>202.6</ele>
        <time>2012-07-27T13:25:35.000Z</time>
      </trkpt>
      <trkpt lat="50.4429" lon="4.48124">
        <ele>203.2</ele>
        <time>2012-07-27T13:25:36.000Z</time>
      </trkpt>
      <trkpt lat="50.44295" lon="4.4813">
        <ele>203.1</ele>
        <time>2012-07-27T13:25:37.000Z</time>
      </trkpt>
      <trkpt lat="50.443" lon="4.48135">
        <ele>202.4</ele>
        <time>2012-07-27T13:25:38.000Z</time>
      </trkpt>
      <trkpt lat="50.44305" lon="4.48142">
        <ele>202.7</ele>
        <time>2012-07-27T13:25:39.000Z</time>
      </trkpt>
      <trkpt lat="50.4431" lon="4.48146">
        <ele>202.3</ele>
        <time>2012-07-27T13:25:40.000Z</time>
      </trkpt>
      <trkpt lat="50.44316" lon="4.48151">
        <ele>202.3</ele>
        <time>2012-07-27T13:25:41.000Z</time>
      </trkpt>
      <trkpt lat="50.44321" lon="4.48157">
        <ele>202</ele>
        <time>2012-07-27T13:25:42.000Z</time>
      </trkpt>
      <trkpt lat="50.44326" lon="4.48162">
        <ele>201.9</ele>
        <time>2012-07-27T13:25:43.000Z</time>
      </trkpt>
      <trkpt lat="50.4433" lon="4.48168">
        <ele>201.9</ele>
        <time>2012-07-27T13:25:44.000Z</time>
      </trkpt>
      <trkpt lat="50.44335" lon="4.48173">
        <ele>201.6</ele>
        <time>2012-07-27T13:25:45.000Z</time>
      </trkpt>
      <trkpt lat="50.4434" lon="4.48181">
        <ele>200</ele>
        <time>2012-07-27T13:25:47.000Z</time>
      </trkpt>
      <trkpt lat="50.44339" lon="4.4819">
        <ele>199.9</ele>
        <time>2012-07-27T13:25:49.000Z</time>
      </trkpt>
      <trkpt lat="50.44338" lon="4.482">
        <ele>200.5</ele>
        <time>2012-07-27T13:25:52.000Z</time>
      </trkpt>
      <trkpt lat="50.44333" lon="4.48203">
        <ele>200.9</ele>
        <time>2012-07-27T13:25:57.000Z</time>
      </trkpt>
      <trkpt lat="50.44328" lon="4.48199">
        <ele>200.5</ele>
        <time>2012-07-27T13:26:01.000Z</time>
      </trkpt>
      <trkpt lat="50.44332" lon="4.48204">
        <ele>202.5</ele>
        <time>2012-07-27T13:26:14.000Z</time>
      </trkpt>
      <trkpt lat="50.44336" lon="4.48209">
        <ele>202.4</ele>
        <time>2012-07-27T13:26:18.000Z</time>
      </trkpt>
      <trkpt lat="50.4433" lon="4.48203">
        <ele>203.8</ele>
        <time>2012-07-27T13:26:27.000Z</time>
      </trkpt>
      <trkpt lat="50.44322" lon="4.48197">
        <ele>202.7</ele>
        <time>2012-07-27T13:26:29.000Z</time>
      </trkpt>
      <trkpt lat="50.44318" lon="4.48193">
        <ele>203.4</ele>
        <time>2012-07-27T13:26:30.000Z</time>
      </trkpt>
      <trkpt lat="50.44313" lon="4.48189">
        <ele>203.5</ele>
        <time>2012-07-27T13:26:31.000Z</time>
      </trkpt>
      <trkpt lat="50.44308" lon="4.48185">
        <ele>203.4</ele>
        <time>2012-07-27T13:26:32.000Z</time>
      </trkpt>
      <trkpt lat="50.44304" lon="4.4818">
        <ele>203.8</ele>
        <time>2012-07-27T13:26:33.000Z</time>
      </trkpt>
      <trkpt lat="50.443" lon="4.48177">
        <ele>203.7</ele>
        <time>2012-07-27T13:26:34.000Z</time>
      </trkpt>
      <trkpt lat="50.44295" lon="4.48173">
        <ele>204.1</ele>
        <time>2012-07-27T13:26:35.000Z</time>
      </trkpt>
      <trkpt lat="50.44291" lon="4.48169">
        <ele>203.5</ele>
        <time>2012-07-27T13:26:36.000Z</time>
      </trkpt>
      <trkpt lat="50.44287" lon="4.48164">
        <ele>203.8</ele>
        <time>2012-07-27T13:26:37.000Z</time>
      </trkpt>
      <trkpt lat="50.44282" lon="4.4816">
        <ele>203.8</ele>
        <time>2012-07-27T13:26:38.000Z</time>
      </trkpt>
      <trkpt lat="50.44277" lon="4.48156">
        <ele>203.6</ele>
        <time>2012-07-27T13:26:39.000Z</time>
      </trkpt>
      <trkpt lat="50.44273" lon="4.48152">
        <ele>203.8</ele>
        <time>2012-07-27T13:26:40.000Z</time>
      </trkpt>
      <trkpt lat="50.44268" lon="4.48146">
        <ele>203.8</ele>
        <time>2012-07-27T13:26:41.000Z</time>
      </trkpt>
      <trkpt lat="50.44264" lon="4.48142">
        <ele>203.5</ele>
        <time>2012-07-27T13:26:42.000Z</time>
      </trkpt>
      <trkpt lat="50.44259" lon="4.48137">
        <ele>202.9</ele>
        <time>2012-07-27T13:26:43.000Z</time>
      </trkpt>
      <trkpt lat="50.44254" lon="4.48132">
        <ele>202.4</ele>
        <time>2012-07-27T13:26:44.000Z</time>
      </trkpt>
      <trkpt lat="50.4425" lon="4.48127">
        <ele>202.3</ele>
        <time>2012-07-27T13:26:45.000Z</time>
      </trkpt>
      <trkpt lat="50.44246" lon="4.48121">
        <ele>202.8</ele>
        <time>2012-07-27T13:26:46.000Z</time>
      </trkpt>
      <trkpt lat="50.44241" lon="4.48114">
        <ele>203.5</ele>
        <time>2012-07-27T13:26:47.000Z</time>
      </trkpt>
      <trkpt lat="50.44233" lon="4.48118">
        <ele>204</ele>
        <time>2012-07-27T13:26:49.000Z</time>
      </trkpt>
      <trkpt lat="50.44225" lon="4.48126">
        <ele>203.6</ele>
        <time>2012-07-27T13:26:51.000Z</time>
      </trkpt>
      <trkpt lat="50.44221" lon="4.48135">
        <ele>206.1</ele>
        <time>2012-07-27T13:26:53.000Z</time>
      </trkpt>
      <trkpt lat="50.44218" lon="4.48147">
        <ele>207.5</ele>
        <time>2012-07-27T13:26:55.000Z</time>
      </trkpt>
      <trkpt lat="50.44212" lon="4.48157">
        <ele>208.4</ele>
        <time>2012-07-27T13:26:57.000Z</time>
      </trkpt>
      <trkpt lat="50.44206" lon="4.48166">
        <ele>206.6</ele>
        <time>2012-07-27T13:26:59.000Z</time>
      </trkpt>
      <trkpt lat="50.44201" lon="4.48178">
        <ele>207.1</ele>
        <time>2012-07-27T13:27:01.000Z</time>
      </trkpt>
      <trkpt lat="50.44198" lon="4.48184">
        <ele>207.3</ele>
        <time>2012-07-27T13:27:02.000Z</time>
      </trkpt>
      <trkpt lat="50.44193" lon="4.48195">
        <ele>207.3</ele>
        <time>2012-07-27T13:27:04.000Z</time>
      </trkpt>
      <trkpt lat="50.44191" lon="4.48201">
        <ele>207.2</ele>
        <time>2012-07-27T13:27:05.000Z</time>
      </trkpt>
      <trkpt lat="50.44187" lon="4.48211">
        <ele>206.4</ele>
        <time>2012-07-27T13:27:07.000Z</time>
      </trkpt>
      <trkpt lat="50.44183" lon="4.48222">
        <ele>209.3</ele>
        <time>2012-07-27T13:27:09.000Z</time>
      </trkpt>
      <trkpt lat="50.44179" lon="4.48234">
        <ele>209.9</ele>
        <time>2012-07-27T13:27:11.000Z</time>
      </trkpt>
      <trkpt lat="50.44176" lon="4.48246">
        <ele>209.8</ele>
        <time>2012-07-27T13:27:13.000Z</time>
      </trkpt>
      <trkpt lat="50.44174" lon="4.48256">
        <ele>208.2</ele>
        <time>2012-07-27T13:27:15.000Z</time>
      </trkpt>
      <trkpt lat="50.44172" lon="4.48263">
        <ele>208.3</ele>
        <time>2012-07-27T13:27:16.000Z</time>
      </trkpt>
      <trkpt lat="50.44171" lon="4.4827">
        <ele>208.2</ele>
        <time>2012-07-27T13:27:17.000Z</time>
      </trkpt>
      <trkpt lat="50.4417" lon="4.48278">
        <ele>208.1</ele>
        <time>2012-07-27T13:27:18.000Z</time>
      </trkpt>
      <trkpt lat="50.44168" lon="4.48286">
        <ele>208.3</ele>
        <time>2012-07-27T13:27:19.000Z</time>
      </trkpt>
      <trkpt lat="50.44166" lon="4.48293">
        <ele>208.3</ele>
        <time>2012-07-27T13:27:20.000Z</time>
      </trkpt>
      <trkpt lat="50.44163" lon="4.48306">
        <ele>207.7</ele>
        <time>2012-07-27T13:27:22.000Z</time>
      </trkpt>
      <trkpt lat="50.44159" lon="4.4832">
        <ele>206</ele>
        <time>2012-07-27T13:27:24.000Z</time>
      </trkpt>
      <trkpt lat="50.44157" lon="4.48327">
        <ele>206</ele>
        <time>2012-07-27T13:27:25.000Z</time>
      </trkpt>
      <trkpt lat="50.44156" lon="4.48335">
        <ele>206</ele>
        <time>2012-07-27T13:27:26.000Z</time>
      </trkpt>
      <trkpt lat="50.44154" lon="4.48344">
        <ele>205.9</ele>
        <time>2012-07-27T13:27:27.000Z</time>
      </trkpt>
      <trkpt lat="50.44152" lon="4.48351">
        <ele>204.5</ele>
        <time>2012-07-27T13:27:28.000Z</time>
      </trkpt>
      <trkpt lat="50.44149" lon="4.48365">
        <ele>203.5</ele>
        <time>2012-07-27T13:27:30.000Z</time>
      </trkpt>
      <trkpt lat="50.44148" lon="4.48373">
        <ele>202.4</ele>
        <time>2012-07-27T13:27:31.000Z</time>
      </trkpt>
      <trkpt lat="50.44145" lon="4.48388">
        <ele>201.8</ele>
        <time>2012-07-27T13:27:33.000Z</time>
      </trkpt>
      <trkpt lat="50.44144" lon="4.48398">
        <ele>201.8</ele>
        <time>2012-07-27T13:27:34.000Z</time>
      </trkpt>
      <trkpt lat="50.44141" lon="4.48406">
        <ele>201.2</ele>
        <time>2012-07-27T13:27:35.000Z</time>
      </trkpt>
      <trkpt lat="50.44139" lon="4.48414">
        <ele>200.3</ele>
        <time>2012-07-27T13:27:36.000Z</time>
      </trkpt>
      <trkpt lat="50.44137" lon="4.48424">
        <ele>200.5</ele>
        <time>2012-07-27T13:27:37.000Z</time>
      </trkpt>
      <trkpt lat="50.44134" lon="4.48433">
        <ele>199.6</ele>
        <time>2012-07-27T13:27:38.000Z</time>
      </trkpt>
      <trkpt lat="50.44132" lon="4.48442">
        <ele>199.7</ele>
        <time>2012-07-27T13:27:39.000Z</time>
      </trkpt>
      <trkpt lat="50.4413" lon="4.4845">
        <ele>199.4</ele>
        <time>2012-07-27T13:27:40.000Z</time>
      </trkpt>
      <trkpt lat="50.44128" lon="4.48459">
        <ele>199.9</ele>
        <time>2012-07-27T13:27:41.000Z</time>
      </trkpt>
      <trkpt lat="50.44124" lon="4.48467">
        <ele>200.5</ele>
        <time>2012-07-27T13:27:42.000Z</time>
      </trkpt>
      <trkpt lat="50.44122" lon="4.48477">
        <ele>201.1</ele>
        <time>2012-07-27T13:27:43.000Z</time>
      </trkpt>
      <trkpt lat="50.44121" lon="4.48486">
        <ele>201.8</ele>
        <time>2012-07-27T13:27:44.000Z</time>
      </trkpt>
      <trkpt lat="50.44118" lon="4.48496">
        <ele>201.2</ele>
        <time>2012-07-27T13:27:45.000Z</time>
      </trkpt>
      <trkpt lat="50.44116" lon="4.48504">
        <ele>201.9</ele>
        <time>2012-07-27T13:27:46.000Z</time>
      </trkpt>
      <trkpt lat="50.44114" lon="4.48514">
        <ele>202.5</ele>
        <time>2012-07-27T13:27:47.000Z</time>
      </trkpt>
      <trkpt lat="50.44114" lon="4.48524">
        <ele>203.3</ele>
        <time>2012-07-27T13:27:48.000Z</time>
      </trkpt>
      <trkpt lat="50.44112" lon="4.48533">
        <ele>202.9</ele>
        <time>2012-07-27T13:27:49.000Z</time>
      </trkpt>
      <trkpt lat="50.44109" lon="4.48543">
        <ele>202.9</ele>
        <time>2012-07-27T13:27:50.000Z</time>
      </trkpt>
      <trkpt lat="50.44108" lon="4.48551">
        <ele>202.7</ele>
        <time>2012-07-27T13:27:51.000Z</time>
      </trkpt>
      <trkpt lat="50.44106" lon="4.48559">
        <ele>202.2</ele>
        <time>2012-07-27T13:27:52.000Z</time>
      </trkpt>
      <trkpt lat="50.44105" lon="4.4857">
        <ele>202.1</ele>
        <time>2012-07-27T13:27:54.000Z</time>
      </trkpt>
      <trkpt lat="50.44105" lon="4.4858">
        <ele>202.1</ele>
        <time>2012-07-27T13:27:56.000Z</time>
      </trkpt>
      <trkpt lat="50.441" lon="4.48586">
        <ele>202.6</ele>
        <time>2012-07-27T13:27:58.000Z</time>
      </trkpt>
      <trkpt lat="50.44099" lon="4.48594">
        <ele>203.6</ele>
        <time>2012-07-27T13:28:01.000Z</time>
      </trkpt>
      <trkpt lat="50.44096" lon="4.48602">
        <ele>203.5</ele>
        <time>2012-07-27T13:28:03.000Z</time>
      </trkpt>
      <trkpt lat="50.44094" lon="4.48609">
        <ele>203.8</ele>
        <time>2012-07-27T13:28:05.000Z</time>
      </trkpt>
      <trkpt lat="50.44091" lon="4.48617">
        <ele>203.7</ele>
        <time>2012-07-27T13:28:07.000Z</time>
      </trkpt>
      <trkpt lat="50.44088" lon="4.48623">
        <ele>204.1</ele>
        <time>2012-07-27T13:28:09.000Z</time>
      </trkpt>
      <trkpt lat="50.44085" lon="4.48629">
        <ele>205.5</ele>
        <time>2012-07-27T13:28:11.000Z</time>
      </trkpt>
      <trkpt lat="50.44084" lon="4.48638">
        <ele>205.6</ele>
        <time>2012-07-27T13:28:13.000Z</time>
      </trkpt>
      <trkpt lat="50.44082" lon="4.48647">
        <ele>205.2</ele>
        <time>2012-07-27T13:28:15.000Z</time>
      </trkpt>
      <trkpt lat="50.4408" lon="4.48659">
        <ele>205</ele>
        <time>2012-07-27T13:28:17.000Z</time>
      </trkpt>
      <trkpt lat="50.44078" lon="4.48667">
        <ele>203.9</ele>
        <time>2012-07-27T13:28:18.000Z</time>
      </trkpt>
      <trkpt lat="50.44077" lon="4.48674">
        <ele>203.5</ele>
        <time>2012-07-27T13:28:19.000Z</time>
      </trkpt>
      <trkpt lat="50.44076" lon="4.48682">
        <ele>203.2</ele>
        <time>2012-07-27T13:28:20.000Z</time>
      </trkpt>
      <trkpt lat="50.44074" lon="4.4869">
        <ele>203.1</ele>
        <time>2012-07-27T13:28:21.000Z</time>
      </trkpt>
      <trkpt lat="50.44072" lon="4.48698">
        <ele>202.8</ele>
        <time>2012-07-27T13:28:22.000Z</time>
      </trkpt>
      <trkpt lat="50.4407" lon="4.48706">
        <ele>203.1</ele>
        <time>2012-07-27T13:28:23.000Z</time>
      </trkpt>
      <trkpt lat="50.44069" lon="4.48713">
        <ele>202.6</ele>
        <time>2012-07-27T13:28:24.000Z</time>
      </trkpt>
      <trkpt lat="50.44067" lon="4.48722">
        <ele>202.2</ele>
        <time>2012-07-27T13:28:25.000Z</time>
      </trkpt>
      <trkpt lat="50.44065" lon="4.4873">
        <ele>202</ele>
        <time>2012-07-27T13:28:26.000Z</time>
      </trkpt>
      <trkpt lat="50.44063" lon="4.48739">
        <ele>202.1</ele>
        <time>2012-07-27T13:28:27.000Z</time>
      </trkpt>
      <trkpt lat="50.44061" lon="4.48747">
        <ele>202.2</ele>
        <time>2012-07-27T13:28:28.000Z</time>
      </trkpt>
      <trkpt lat="50.44059" lon="4.48753">
        <ele>202.5</ele>
        <time>2012-07-27T13:28:29.000Z</time>
      </trkpt>
      <trkpt lat="50.44056" lon="4.4876">
        <ele>202.9</ele>
        <time>2012-07-27T13:28:30.002Z</time>
      </trkpt>
      <trkpt lat="50.44053" lon="4.48769">
        <ele>203.2</ele>
        <time>2012-07-27T13:28:30.999Z</time>
      </trkpt>
      <trkpt lat="50.44051" lon="4.48777">
        <ele>202.4</ele>
        <time>2012-07-27T13:28:32.000Z</time>
      </trkpt>
      <trkpt lat="50.44049" lon="4.48786">
        <ele>202.6</ele>
        <time>2012-07-27T13:28:33.000Z</time>
      </trkpt>
      <trkpt lat="50.44047" lon="4.48794">
        <ele>202.8</ele>
        <time>2012-07-27T13:28:34.000Z</time>
      </trkpt>
      <trkpt lat="50.44045" lon="4.48801">
        <ele>202.6</ele>
        <time>2012-07-27T13:28:35.000Z</time>
      </trkpt>
      <trkpt lat="50.44043" lon="4.4881">
        <ele>202.5</ele>
        <time>2012-07-27T13:28:36.000Z</time>
      </trkpt>
      <trkpt lat="50.4404" lon="4.48818">
        <ele>202.4</ele>
        <time>2012-07-27T13:28:37.000Z</time>
      </trkpt>
      <trkpt lat="50.44036" lon="4.48826">
        <ele>202.4</ele>
        <time>2012-07-27T13:28:38.000Z</time>
      </trkpt>
      <trkpt lat="50.44034" lon="4.48833">
        <ele>201.3</ele>
        <time>2012-07-27T13:28:39.000Z</time>
      </trkpt>
      <trkpt lat="50.4403" lon="4.48847">
        <ele>198</ele>
        <time>2012-07-27T13:28:42.000Z</time>
      </trkpt>
      <trkpt lat="50.44027" lon="4.48854">
        <ele>197.5</ele>
        <time>2012-07-27T13:28:42.999Z</time>
      </trkpt>
      <trkpt lat="50.44023" lon="4.48861">
        <ele>197.1</ele>
        <time>2012-07-27T13:28:44.000Z</time>
      </trkpt>
      <trkpt lat="50.44019" lon="4.48867">
        <ele>195.8</ele>
        <time>2012-07-27T13:28:45.000Z</time>
      </trkpt>
      <trkpt lat="50.44015" lon="4.48873">
        <ele>194.8</ele>
        <time>2012-07-27T13:28:46.000Z</time>
      </trkpt>
      <trkpt lat="50.4401" lon="4.48881">
        <ele>194.6</ele>
        <time>2012-07-27T13:28:47.000Z</time>
      </trkpt>
      <trkpt lat="50.44006" lon="4.48888">
        <ele>195</ele>
        <time>2012-07-27T13:28:48.000Z</time>
      </trkpt>
      <trkpt lat="50.44002" lon="4.48894">
        <ele>194.9</ele>
        <time>2012-07-27T13:28:49.000Z</time>
      </trkpt>
      <trkpt lat="50.43998" lon="4.48902">
        <ele>194.9</ele>
        <time>2012-07-27T13:28:50.000Z</time>
      </trkpt>
      <trkpt lat="50.43994" lon="4.48908">
        <ele>195.1</ele>
        <time>2012-07-27T13:28:51.000Z</time>
      </trkpt>
      <trkpt lat="50.4399" lon="4.48916">
        <ele>195.2</ele>
        <time>2012-07-27T13:28:52.000Z</time>
      </trkpt>
      <trkpt lat="50.43986" lon="4.48923">
        <ele>196.6</ele>
        <time>2012-07-27T13:28:53.000Z</time>
      </trkpt>
      <trkpt lat="50.43982" lon="4.4893">
        <ele>197.6</ele>
        <time>2012-07-27T13:28:54.000Z</time>
      </trkpt>
      <trkpt lat="50.43977" lon="4.48934">
        <ele>196.2</ele>
        <time>2012-07-27T13:28:55.000Z</time>
      </trkpt>
      <trkpt lat="50.43969" lon="4.48943">
        <ele>197.5</ele>
        <time>2012-07-27T13:28:57.000Z</time>
      </trkpt>
      <trkpt lat="50.43963" lon="4.48952">
        <ele>197.9</ele>
        <time>2012-07-27T13:28:59.000Z</time>
      </trkpt>
      <trkpt lat="50.43959" lon="4.48955">
        <ele>197.2</ele>
        <time>2012-07-27T13:29:00.000Z</time>
      </trkpt>
      <trkpt lat="50.43951" lon="4.48964">
        <ele>197.3</ele>
        <time>2012-07-27T13:29:02.000Z</time>
      </trkpt>
      <trkpt lat="50.43944" lon="4.48972">
        <ele>196.7</ele>
        <time>2012-07-27T13:29:04.000Z</time>
      </trkpt>
      <trkpt lat="50.43939" lon="4.48976">
        <ele>196.4</ele>
        <time>2012-07-27T13:29:05.000Z</time>
      </trkpt>
      <trkpt lat="50.43935" lon="4.48979">
        <ele>194.6</ele>
        <time>2012-07-27T13:29:06.000Z</time>
      </trkpt>
      <trkpt lat="50.4393" lon="4.48982">
        <ele>194.8</ele>
        <time>2012-07-27T13:29:07.000Z</time>
      </trkpt>
      <trkpt lat="50.43926" lon="4.48986">
        <ele>195.3</ele>
        <time>2012-07-27T13:29:08.000Z</time>
      </trkpt>
      <trkpt lat="50.43922" lon="4.48989">
        <ele>194.6</ele>
        <time>2012-07-27T13:29:09.000Z</time>
      </trkpt>
      <trkpt lat="50.43918" lon="4.48992">
        <ele>194.1</ele>
        <time>2012-07-27T13:29:10.000Z</time>
      </trkpt>
      <trkpt lat="50.43912" lon="4.48996">
        <ele>193.5</ele>
        <time>2012-07-27T13:29:11.000Z</time>
      </trkpt>
      <trkpt lat="50.43904" lon="4.48999">
        <ele>191.8</ele>
        <time>2012-07-27T13:29:13.000Z</time>
      </trkpt>
      <trkpt lat="50.439" lon="4.49003">
        <ele>192</ele>
        <time>2012-07-27T13:29:14.000Z</time>
      </trkpt>
      <trkpt lat="50.43896" lon="4.49006">
        <ele>191.5</ele>
        <time>2012-07-27T13:29:15.000Z</time>
      </trkpt>
      <trkpt lat="50.43891" lon="4.4901">
        <ele>191.3</ele>
        <time>2012-07-27T13:29:16.000Z</time>
      </trkpt>
      <trkpt lat="50.43886" lon="4.49013">
        <ele>190.7</ele>
        <time>2012-07-27T13:29:17.000Z</time>
      </trkpt>
      <trkpt lat="50.43881" lon="4.49014">
        <ele>189.6</ele>
        <time>2012-07-27T13:29:18.000Z</time>
      </trkpt>
      <trkpt lat="50.43875" lon="4.49016">
        <ele>189.3</ele>
        <time>2012-07-27T13:29:19.000Z</time>
      </trkpt>
      <trkpt lat="50.4387" lon="4.49019">
        <ele>189.4</ele>
        <time>2012-07-27T13:29:20.000Z</time>
      </trkpt>
      <trkpt lat="50.43864" lon="4.49021">
        <ele>188.9</ele>
        <time>2012-07-27T13:29:21.000Z</time>
      </trkpt>
      <trkpt lat="50.43858" lon="4.49022">
        <ele>187.6</ele>
        <time>2012-07-27T13:29:22.000Z</time>
      </trkpt>
      <trkpt lat="50.43852" lon="4.49023">
        <ele>187.3</ele>
        <time>2012-07-27T13:29:23.000Z</time>
      </trkpt>
      <trkpt lat="50.43847" lon="4.49024">
        <ele>186.2</ele>
        <time>2012-07-27T13:29:24.000Z</time>
      </trkpt>
      <trkpt lat="50.43841" lon="4.49025">
        <ele>186.3</ele>
        <time>2012-07-27T13:29:25.000Z</time>
      </trkpt>
      <trkpt lat="50.43837" lon="4.49027">
        <ele>186.4</ele>
        <time>2012-07-27T13:29:26.000Z</time>
      </trkpt>
      <trkpt lat="50.4383" lon="4.49028">
        <ele>186.8</ele>
        <time>2012-07-27T13:29:27.000Z</time>
      </trkpt>
      <trkpt lat="50.43825" lon="4.49028">
        <ele>185.9</ele>
        <time>2012-07-27T13:29:28.000Z</time>
      </trkpt>
      <trkpt lat="50.4382" lon="4.4903">
        <ele>186.2</ele>
        <time>2012-07-27T13:29:29.000Z</time>
      </trkpt>
      <trkpt lat="50.43815" lon="4.49029">
        <ele>185.4</ele>
        <time>2012-07-27T13:29:30.000Z</time>
      </trkpt>
      <trkpt lat="50.43809" lon="4.49029">
        <ele>185.1</ele>
        <time>2012-07-27T13:29:31.000Z</time>
      </trkpt>
      <trkpt lat="50.43804" lon="4.49029">
        <ele>185.9</ele>
        <time>2012-07-27T13:29:32.000Z</time>
      </trkpt>
      <trkpt lat="50.43798" lon="4.49028">
        <ele>185.4</ele>
        <time>2012-07-27T13:29:33.000Z</time>
      </trkpt>
      <trkpt lat="50.43792" lon="4.49026">
        <ele>184.8</ele>
        <time>2012-07-27T13:29:34.000Z</time>
      </trkpt>
      <trkpt lat="50.43787" lon="4.49024">
        <ele>184.8</ele>
        <time>2012-07-27T13:29:35.000Z</time>
      </trkpt>
      <trkpt lat="50.43782" lon="4.49024">
        <ele>184.6</ele>
        <time>2012-07-27T13:29:36.000Z</time>
      </trkpt>
      <trkpt lat="50.43777" lon="4.49025">
        <ele>184.5</ele>
        <time>2012-07-27T13:29:37.000Z</time>
      </trkpt>
      <trkpt lat="50.43771" lon="4.49023">
        <ele>185</ele>
        <time>2012-07-27T13:29:38.000Z</time>
      </trkpt>
      <trkpt lat="50.43766" lon="4.49022">
        <ele>185.8</ele>
        <time>2012-07-27T13:29:39.000Z</time>
      </trkpt>
      <trkpt lat="50.4376" lon="4.49022">
        <ele>186.4</ele>
        <time>2012-07-27T13:29:40.000Z</time>
      </trkpt>
      <trkpt lat="50.43756" lon="4.49022">
        <ele>187.4</ele>
        <time>2012-07-27T13:29:41.000Z</time>
      </trkpt>
      <trkpt lat="50.43749" lon="4.4902">
        <ele>187.4</ele>
        <time>2012-07-27T13:29:42.000Z</time>
      </trkpt>
      <trkpt lat="50.43744" lon="4.49018">
        <ele>186.6</ele>
        <time>2012-07-27T13:29:43.000Z</time>
      </trkpt>
      <trkpt lat="50.43739" lon="4.49015">
        <ele>188.1</ele>
        <time>2012-07-27T13:29:44.000Z</time>
      </trkpt>
      <trkpt lat="50.43734" lon="4.49013">
        <ele>187.5</ele>
        <time>2012-07-27T13:29:45.000Z</time>
      </trkpt>
      <trkpt lat="50.4373" lon="4.49011">
        <ele>187.2</ele>
        <time>2012-07-27T13:29:46.000Z</time>
      </trkpt>
      <trkpt lat="50.43725" lon="4.49009">
        <ele>186.8</ele>
        <time>2012-07-27T13:29:47.000Z</time>
      </trkpt>
      <trkpt lat="50.4372" lon="4.49005">
        <ele>186.5</ele>
        <time>2012-07-27T13:29:48.000Z</time>
      </trkpt>
      <trkpt lat="50.43715" lon="4.49002">
        <ele>186.5</ele>
        <time>2012-07-27T13:29:49.000Z</time>
      </trkpt>
      <trkpt lat="50.43709" lon="4.49">
        <ele>186.9</ele>
        <time>2012-07-27T13:29:50.000Z</time>
      </trkpt>
      <trkpt lat="50.43704" lon="4.48997">
        <ele>185.6</ele>
        <time>2012-07-27T13:29:51.000Z</time>
      </trkpt>
      <trkpt lat="50.43699" lon="4.48994">
        <ele>185</ele>
        <time>2012-07-27T13:29:52.000Z</time>
      </trkpt>
      <trkpt lat="50.43694" lon="4.48991">
        <ele>184.9</ele>
        <time>2012-07-27T13:29:53.000Z</time>
      </trkpt>
      <trkpt lat="50.43685" lon="4.48985">
        <ele>185.1</ele>
        <time>2012-07-27T13:29:55.000Z</time>
      </trkpt>
      <trkpt lat="50.4368" lon="4.48982">
        <ele>184.1</ele>
        <time>2012-07-27T13:29:56.000Z</time>
      </trkpt>
      <trkpt lat="50.43675" lon="4.48979">
        <ele>183.4</ele>
        <time>2012-07-27T13:29:57.000Z</time>
      </trkpt>
      <trkpt lat="50.43666" lon="4.48972">
        <ele>180.4</ele>
        <time>2012-07-27T13:29:59.000Z</time>
      </trkpt>
      <trkpt lat="50.43661" lon="4.48968">
        <ele>179.3</ele>
        <time>2012-07-27T13:30:00.000Z</time>
      </trkpt>
      <trkpt lat="50.43656" lon="4.48963">
        <ele>178.6</ele>
        <time>2012-07-27T13:30:01.000Z</time>
      </trkpt>
      <trkpt lat="50.43652" lon="4.48955">
        <ele>178.7</ele>
        <time>2012-07-27T13:30:03.000Z</time>
      </trkpt>
      <trkpt lat="50.43645" lon="4.48949">
        <ele>178.9</ele>
        <time>2012-07-27T13:30:04.000Z</time>
      </trkpt>
      <trkpt lat="50.43639" lon="4.48944">
        <ele>179.5</ele>
        <time>2012-07-27T13:30:05.000Z</time>
      </trkpt>
      <trkpt lat="50.43634" lon="4.48938">
        <ele>180.6</ele>
        <time>2012-07-27T13:30:06.000Z</time>
      </trkpt>
      <trkpt lat="50.4363" lon="4.48931">
        <ele>181.1</ele>
        <time>2012-07-27T13:30:07.000Z</time>
      </trkpt>
      <trkpt lat="50.43624" lon="4.48926">
        <ele>180.7</ele>
        <time>2012-07-27T13:30:08.000Z</time>
      </trkpt>
      <trkpt lat="50.43619" lon="4.48923">
        <ele>181</ele>
        <time>2012-07-27T13:30:09.000Z</time>
      </trkpt>
      <trkpt lat="50.43614" lon="4.48918">
        <ele>180.9</ele>
        <time>2012-07-27T13:30:10.000Z</time>
      </trkpt>
      <trkpt lat="50.43609" lon="4.48914">
        <ele>181.5</ele>
        <time>2012-07-27T13:30:11.000Z</time>
      </trkpt>
      <trkpt lat="50.43606" lon="4.48907">
        <ele>182.1</ele>
        <time>2012-07-27T13:30:12.000Z</time>
      </trkpt>
      <trkpt lat="50.43603" lon="4.48901">
        <ele>182.3</ele>
        <time>2012-07-27T13:30:13.000Z</time>
      </trkpt>
      <trkpt lat="50.43599" lon="4.48896">
        <ele>182.5</ele>
        <time>2012-07-27T13:30:14.000Z</time>
      </trkpt>
      <trkpt lat="50.43598" lon="4.48889">
        <ele>182.6</ele>
        <time>2012-07-27T13:30:15.000Z</time>
      </trkpt>
      <trkpt lat="50.4359" lon="4.48881">
        <ele>182.4</ele>
        <time>2012-07-27T13:30:17.000Z</time>
      </trkpt>
      <trkpt lat="50.43586" lon="4.48875">
        <ele>182.1</ele>
        <time>2012-07-27T13:30:18.000Z</time>
      </trkpt>
      <trkpt lat="50.43582" lon="4.48867">
        <ele>182.2</ele>
        <time>2012-07-27T13:30:19.000Z</time>
      </trkpt>
      <trkpt lat="50.43574" lon="4.4886">
        <ele>179.3</ele>
        <time>2012-07-27T13:30:21.000Z</time>
      </trkpt>
      <trkpt lat="50.43567" lon="4.48847">
        <ele>177.9</ele>
        <time>2012-07-27T13:30:23.000Z</time>
      </trkpt>
      <trkpt lat="50.43562" lon="4.48842">
        <ele>178.1</ele>
        <time>2012-07-27T13:30:24.000Z</time>
      </trkpt>
      <trkpt lat="50.43558" lon="4.48836">
        <ele>178.3</ele>
        <time>2012-07-27T13:30:25.000Z</time>
      </trkpt>
      <trkpt lat="50.43553" lon="4.4883">
        <ele>178.7</ele>
        <time>2012-07-27T13:30:26.000Z</time>
      </trkpt>
      <trkpt lat="50.43548" lon="4.48826">
        <ele>180</ele>
        <time>2012-07-27T13:30:27.000Z</time>
      </trkpt>
      <trkpt lat="50.43544" lon="4.48821">
        <ele>180.5</ele>
        <time>2012-07-27T13:30:28.000Z</time>
      </trkpt>
      <trkpt lat="50.4354" lon="4.48816">
        <ele>180.1</ele>
        <time>2012-07-27T13:30:29.000Z</time>
      </trkpt>
      <trkpt lat="50.43535" lon="4.48813">
        <ele>179.8</ele>
        <time>2012-07-27T13:30:30.000Z</time>
      </trkpt>
      <trkpt lat="50.4353" lon="4.4881">
        <ele>180</ele>
        <time>2012-07-27T13:30:31.000Z</time>
      </trkpt>
      <trkpt lat="50.43525" lon="4.48805">
        <ele>179.7</ele>
        <time>2012-07-27T13:30:32.000Z</time>
      </trkpt>
      <trkpt lat="50.4352" lon="4.48801">
        <ele>180.5</ele>
        <time>2012-07-27T13:30:33.000Z</time>
      </trkpt>
      <trkpt lat="50.43515" lon="4.48796">
        <ele>181</ele>
        <time>2012-07-27T13:30:34.000Z</time>
      </trkpt>
      <trkpt lat="50.4351" lon="4.48792">
        <ele>182</ele>
        <time>2012-07-27T13:30:35.000Z</time>
      </trkpt>
      <trkpt lat="50.43506" lon="4.48788">
        <ele>182.5</ele>
        <time>2012-07-27T13:30:36.000Z</time>
      </trkpt>
      <trkpt lat="50.43502" lon="4.48786">
        <ele>182.7</ele>
        <time>2012-07-27T13:30:37.000Z</time>
      </trkpt>
      <trkpt lat="50.43498" lon="4.48782">
        <ele>182.5</ele>
        <time>2012-07-27T13:30:38.000Z</time>
      </trkpt>
      <trkpt lat="50.43493" lon="4.48778">
        <ele>182.6</ele>
        <time>2012-07-27T13:30:39.000Z</time>
      </trkpt>
      <trkpt lat="50.43487" lon="4.48776">
        <ele>182.1</ele>
        <time>2012-07-27T13:30:40.000Z</time>
      </trkpt>
      <trkpt lat="50.43482" lon="4.48772">
        <ele>182.1</ele>
        <time>2012-07-27T13:30:41.000Z</time>
      </trkpt>
      <trkpt lat="50.43478" lon="4.4877">
        <ele>181.9</ele>
        <time>2012-07-27T13:30:42.000Z</time>
      </trkpt>
      <trkpt lat="50.43473" lon="4.48767">
        <ele>181.8</ele>
        <time>2012-07-27T13:30:43.000Z</time>
      </trkpt>
      <trkpt lat="50.43468" lon="4.48765">
        <ele>182.4</ele>
        <time>2012-07-27T13:30:44.000Z</time>
      </trkpt>
      <trkpt lat="50.43463" lon="4.48763">
        <ele>183.2</ele>
        <time>2012-07-27T13:30:45.000Z</time>
      </trkpt>
      <trkpt lat="50.43457" lon="4.4876">
        <ele>183</ele>
        <time>2012-07-27T13:30:46.000Z</time>
      </trkpt>
      <trkpt lat="50.43452" lon="4.48758">
        <ele>183.2</ele>
        <time>2012-07-27T13:30:47.000Z</time>
      </trkpt>
      <trkpt lat="50.43446" lon="4.48754">
        <ele>182.4</ele>
        <time>2012-07-27T13:30:48.000Z</time>
      </trkpt>
      <trkpt lat="50.43441" lon="4.48751">
        <ele>182.7</ele>
        <time>2012-07-27T13:30:49.000Z</time>
      </trkpt>
      <trkpt lat="50.43435" lon="4.48749">
        <ele>183</ele>
        <time>2012-07-27T13:30:50.000Z</time>
      </trkpt>
      <trkpt lat="50.43429" lon="4.48746">
        <ele>182.8</ele>
        <time>2012-07-27T13:30:51.000Z</time>
      </trkpt>
      <trkpt lat="50.43424" lon="4.48743">
        <ele>183.3</ele>
        <time>2012-07-27T13:30:52.000Z</time>
      </trkpt>
      <trkpt lat="50.43418" lon="4.4874">
        <ele>184.5</ele>
        <time>2012-07-27T13:30:53.000Z</time>
      </trkpt>
      <trkpt lat="50.43413" lon="4.48739">
        <ele>183.6</ele>
        <time>2012-07-27T13:30:54.000Z</time>
      </trkpt>
      <trkpt lat="50.43408" lon="4.48736">
        <ele>183.4</ele>
        <time>2012-07-27T13:30:55.000Z</time>
      </trkpt>
      <trkpt lat="50.43403" lon="4.48733">
        <ele>183</ele>
        <time>2012-07-27T13:30:56.000Z</time>
      </trkpt>
      <trkpt lat="50.43397" lon="4.4873">
        <ele>183.1</ele>
        <time>2012-07-27T13:30:57.000Z</time>
      </trkpt>
      <trkpt lat="50.43391" lon="4.48728">
        <ele>183.1</ele>
        <time>2012-07-27T13:30:58.000Z</time>
      </trkpt>
      <trkpt lat="50.43386" lon="4.48725">
        <ele>183.1</ele>
        <time>2012-07-27T13:30:59.000Z</time>
      </trkpt>
      <trkpt lat="50.4338" lon="4.48722">
        <ele>182.9</ele>
        <time>2012-07-27T13:31:00.000Z</time>
      </trkpt>
      <trkpt lat="50.43375" lon="4.48719">
        <ele>183.2</ele>
        <time>2012-07-27T13:31:01.000Z</time>
      </trkpt>
      <trkpt lat="50.43369" lon="4.48716">
        <ele>183.1</ele>
        <time>2012-07-27T13:31:02.000Z</time>
      </trkpt>
      <trkpt lat="50.43363" lon="4.48713">
        <ele>182.9</ele>
        <time>2012-07-27T13:31:03.000Z</time>
      </trkpt>
      <trkpt lat="50.43358" lon="4.4871">
        <ele>183.1</ele>
        <time>2012-07-27T13:31:04.000Z</time>
      </trkpt>
      <trkpt lat="50.43352" lon="4.48706">
        <ele>182</ele>
        <time>2012-07-27T13:31:05.000Z</time>
      </trkpt>
      <trkpt lat="50.43346" lon="4.48704">
        <ele>181.7</ele>
        <time>2012-07-27T13:31:06.000Z</time>
      </trkpt>
      <trkpt lat="50.4334" lon="4.48702">
        <ele>181.8</ele>
        <time>2012-07-27T13:31:07.000Z</time>
      </trkpt>
      <trkpt lat="50.43334" lon="4.48699">
        <ele>180.8</ele>
        <time>2012-07-27T13:31:08.000Z</time>
      </trkpt>
      <trkpt lat="50.43328" lon="4.48696">
        <ele>180.6</ele>
        <time>2012-07-27T13:31:09.000Z</time>
      </trkpt>
      <trkpt lat="50.43321" lon="4.48694">
        <ele>179.7</ele>
        <time>2012-07-27T13:31:10.000Z</time>
      </trkpt>
      <trkpt lat="50.43316" lon="4.48691">
        <ele>179.2</ele>
        <time>2012-07-27T13:31:11.000Z</time>
      </trkpt>
      <trkpt lat="50.43311" lon="4.48688">
        <ele>179.1</ele>
        <time>2012-07-27T13:31:12.000Z</time>
      </trkpt>
      <trkpt lat="50.43305" lon="4.48686">
        <ele>179.5</ele>
        <time>2012-07-27T13:31:13.000Z</time>
      </trkpt>
      <trkpt lat="50.43299" lon="4.48685">
        <ele>179.6</ele>
        <time>2012-07-27T13:31:14.000Z</time>
      </trkpt>
      <trkpt lat="50.43294" lon="4.48682">
        <ele>179.9</ele>
        <time>2012-07-27T13:31:15.000Z</time>
      </trkpt>
      <trkpt lat="50.43288" lon="4.4868">
        <ele>180</ele>
        <time>2012-07-27T13:31:16.000Z</time>
      </trkpt>
      <trkpt lat="50.43282" lon="4.48678">
        <ele>180.1</ele>
        <time>2012-07-27T13:31:17.000Z</time>
      </trkpt>
      <trkpt lat="50.43276" lon="4.48674">
        <ele>180.1</ele>
        <time>2012-07-27T13:31:18.000Z</time>
      </trkpt>
      <trkpt lat="50.4327" lon="4.48673">
        <ele>180.2</ele>
        <time>2012-07-27T13:31:19.000Z</time>
      </trkpt>
      <trkpt lat="50.43265" lon="4.48671">
        <ele>180.8</ele>
        <time>2012-07-27T13:31:20.000Z</time>
      </trkpt>
      <trkpt lat="50.43259" lon="4.48669">
        <ele>180.3</ele>
        <time>2012-07-27T13:31:21.000Z</time>
      </trkpt>
      <trkpt lat="50.43252" lon="4.48666">
        <ele>179.6</ele>
        <time>2012-07-27T13:31:22.000Z</time>
      </trkpt>
      <trkpt lat="50.43246" lon="4.48664">
        <ele>178.9</ele>
        <time>2012-07-27T13:31:23.000Z</time>
      </trkpt>
      <trkpt lat="50.43241" lon="4.48663">
        <ele>179.6</ele>
        <time>2012-07-27T13:31:24.000Z</time>
      </trkpt>
      <trkpt lat="50.43235" lon="4.4866">
        <ele>180.2</ele>
        <time>2012-07-27T13:31:25.000Z</time>
      </trkpt>
      <trkpt lat="50.43229" lon="4.48657">
        <ele>179.5</ele>
        <time>2012-07-27T13:31:26.000Z</time>
      </trkpt>
      <trkpt lat="50.43222" lon="4.48656">
        <ele>179.9</ele>
        <time>2012-07-27T13:31:27.000Z</time>
      </trkpt>
      <trkpt lat="50.43217" lon="4.48652">
        <ele>179.4</ele>
        <time>2012-07-27T13:31:28.000Z</time>
      </trkpt>
      <trkpt lat="50.43213" lon="4.48649">
        <ele>178.6</ele>
        <time>2012-07-27T13:31:28.999Z</time>
      </trkpt>
      <trkpt lat="50.43206" lon="4.48647">
        <ele>178.8</ele>
        <time>2012-07-27T13:31:30.000Z</time>
      </trkpt>
      <trkpt lat="50.43202" lon="4.48646">
        <ele>179.3</ele>
        <time>2012-07-27T13:31:31.000Z</time>
      </trkpt>
      <trkpt lat="50.43196" lon="4.48645">
        <ele>179.3</ele>
        <time>2012-07-27T13:31:32.000Z</time>
      </trkpt>
      <trkpt lat="50.43192" lon="4.48644">
        <ele>180</ele>
        <time>2012-07-27T13:31:33.000Z</time>
      </trkpt>
      <trkpt lat="50.43185" lon="4.48642">
        <ele>180.9</ele>
        <time>2012-07-27T13:31:35.000Z</time>
      </trkpt>
      <trkpt lat="50.43179" lon="4.4864">
        <ele>181.3</ele>
        <time>2012-07-27T13:31:37.000Z</time>
      </trkpt>
      <trkpt lat="50.43174" lon="4.48636">
        <ele>180.6</ele>
        <time>2012-07-27T13:31:39.000Z</time>
      </trkpt>
      <trkpt lat="50.43166" lon="4.48634">
        <ele>179.9</ele>
        <time>2012-07-27T13:31:41.999Z</time>
      </trkpt>
      <trkpt lat="50.43159" lon="4.48635">
        <ele>180.3</ele>
        <time>2012-07-27T13:31:44.000Z</time>
      </trkpt>
      <trkpt lat="50.43154" lon="4.48634">
        <ele>180.7</ele>
        <time>2012-07-27T13:31:45.000Z</time>
      </trkpt>
      <trkpt lat="50.43146" lon="4.48628">
        <ele>180.2</ele>
        <time>2012-07-27T13:31:47.000Z</time>
      </trkpt>
      <trkpt lat="50.4314" lon="4.48626">
        <ele>179.9</ele>
        <time>2012-07-27T13:31:48.000Z</time>
      </trkpt>
      <trkpt lat="50.43134" lon="4.48626">
        <ele>179.6</ele>
        <time>2012-07-27T13:31:49.000Z</time>
      </trkpt>
      <trkpt lat="50.43128" lon="4.48625">
        <ele>180.2</ele>
        <time>2012-07-27T13:31:50.000Z</time>
      </trkpt>
      <trkpt lat="50.43123" lon="4.48624">
        <ele>179.9</ele>
        <time>2012-07-27T13:31:51.000Z</time>
      </trkpt>
      <trkpt lat="50.43118" lon="4.48622">
        <ele>179.9</ele>
        <time>2012-07-27T13:31:52.000Z</time>
      </trkpt>
      <trkpt lat="50.43112" lon="4.48622">
        <ele>179.8</ele>
        <time>2012-07-27T13:31:53.000Z</time>
      </trkpt>
      <trkpt lat="50.43106" lon="4.48621">
        <ele>180.1</ele>
        <time>2012-07-27T13:31:54.000Z</time>
      </trkpt>
      <trkpt lat="50.431" lon="4.4862">
        <ele>179.8</ele>
        <time>2012-07-27T13:31:55.000Z</time>
      </trkpt>
      <trkpt lat="50.43094" lon="4.48619">
        <ele>179.5</ele>
        <time>2012-07-27T13:31:56.000Z</time>
      </trkpt>
      <trkpt lat="50.43088" lon="4.48619">
        <ele>179.7</ele>
        <time>2012-07-27T13:31:57.000Z</time>
      </trkpt>
      <trkpt lat="50.43083" lon="4.4862">
        <ele>179.9</ele>
        <time>2012-07-27T13:31:58.000Z</time>
      </trkpt>
      <trkpt lat="50.43077" lon="4.48621">
        <ele>179.2</ele>
        <time>2012-07-27T13:31:59.000Z</time>
      </trkpt>
      <trkpt lat="50.43071" lon="4.4862">
        <ele>178.7</ele>
        <time>2012-07-27T13:32:00.000Z</time>
      </trkpt>
      <trkpt lat="50.43065" lon="4.48621">
        <ele>178.8</ele>
        <time>2012-07-27T13:32:01.000Z</time>
      </trkpt>
      <trkpt lat="50.4306" lon="4.4862">
        <ele>178.3</ele>
        <time>2012-07-27T13:32:02.000Z</time>
      </trkpt>
      <trkpt lat="50.43054" lon="4.48622">
        <ele>179</ele>
        <time>2012-07-27T13:32:03.000Z</time>
      </trkpt>
      <trkpt lat="50.43049" lon="4.48623">
        <ele>178.7</ele>
        <time>2012-07-27T13:32:04.000Z</time>
      </trkpt>
      <trkpt lat="50.43041" lon="4.48624">
        <ele>179</ele>
        <time>2012-07-27T13:32:06.000Z</time>
      </trkpt>
      <trkpt lat="50.43036" lon="4.48623">
        <ele>177.8</ele>
        <time>2012-07-27T13:32:07.000Z</time>
      </trkpt>
      <trkpt lat="50.4303" lon="4.48623">
        <ele>177.6</ele>
        <time>2012-07-27T13:32:08.000Z</time>
      </trkpt>
      <trkpt lat="50.43025" lon="4.48624">
        <ele>177.4</ele>
        <time>2012-07-27T13:32:09.000Z</time>
      </trkpt>
      <trkpt lat="50.4302" lon="4.48627">
        <ele>176.5</ele>
        <time>2012-07-27T13:32:10.000Z</time>
      </trkpt>
      <trkpt lat="50.43015" lon="4.48629">
        <ele>177</ele>
        <time>2012-07-27T13:32:11.000Z</time>
      </trkpt>
      <trkpt lat="50.43008" lon="4.48632">
        <ele>175.9</ele>
        <time>2012-07-27T13:32:12.000Z</time>
      </trkpt>
      <trkpt lat="50.43003" lon="4.48634">
        <ele>175.9</ele>
        <time>2012-07-27T13:32:13.000Z</time>
      </trkpt>
      <trkpt lat="50.42997" lon="4.48635">
        <ele>176.3</ele>
        <time>2012-07-27T13:32:14.000Z</time>
      </trkpt>
      <trkpt lat="50.42991" lon="4.48638">
        <ele>176</ele>
        <time>2012-07-27T13:32:15.000Z</time>
      </trkpt>
      <trkpt lat="50.42986" lon="4.48639">
        <ele>176.4</ele>
        <time>2012-07-27T13:32:16.000Z</time>
      </trkpt>
      <trkpt lat="50.4298" lon="4.4864">
        <ele>174.8</ele>
        <time>2012-07-27T13:32:17.000Z</time>
      </trkpt>
      <trkpt lat="50.42974" lon="4.48643">
        <ele>174</ele>
        <time>2012-07-27T13:32:18.000Z</time>
      </trkpt>
      <trkpt lat="50.42968" lon="4.48647">
        <ele>174.2</ele>
        <time>2012-07-27T13:32:19.000Z</time>
      </trkpt>
      <trkpt lat="50.42962" lon="4.48651">
        <ele>174.2</ele>
        <time>2012-07-27T13:32:20.000Z</time>
      </trkpt>
      <trkpt lat="50.42956" lon="4.48654">
        <ele>175</ele>
        <time>2012-07-27T13:32:21.000Z</time>
      </trkpt>
      <trkpt lat="50.4295" lon="4.48658">
        <ele>175.5</ele>
        <time>2012-07-27T13:32:22.000Z</time>
      </trkpt>
      <trkpt lat="50.42944" lon="4.48663">
        <ele>175.3</ele>
        <time>2012-07-27T13:32:23.000Z</time>
      </trkpt>
      <trkpt lat="50.42938" lon="4.48667">
        <ele>174.7</ele>
        <time>2012-07-27T13:32:24.000Z</time>
      </trkpt>
      <trkpt lat="50.42932" lon="4.48671">
        <ele>173.7</ele>
        <time>2012-07-27T13:32:25.000Z</time>
      </trkpt>
      <trkpt lat="50.42926" lon="4.48675">
        <ele>173.6</ele>
        <time>2012-07-27T13:32:26.000Z</time>
      </trkpt>
      <trkpt lat="50.4292" lon="4.48678">
        <ele>173.3</ele>
        <time>2012-07-27T13:32:27.000Z</time>
      </trkpt>
      <trkpt lat="50.42915" lon="4.48683">
        <ele>172.7</ele>
        <time>2012-07-27T13:32:28.000Z</time>
      </trkpt>
      <trkpt lat="50.42909" lon="4.48687">
        <ele>172.9</ele>
        <time>2012-07-27T13:32:29.000Z</time>
      </trkpt>
      <trkpt lat="50.42903" lon="4.48692">
        <ele>172.8</ele>
        <time>2012-07-27T13:32:30.000Z</time>
      </trkpt>
      <trkpt lat="50.429" lon="4.48696">
        <ele>172.3</ele>
        <time>2012-07-27T13:32:31.000Z</time>
      </trkpt>
      <trkpt lat="50.42895" lon="4.487">
        <ele>171.6</ele>
        <time>2012-07-27T13:32:32.000Z</time>
      </trkpt>
      <trkpt lat="50.42891" lon="4.48704">
        <ele>171.1</ele>
        <time>2012-07-27T13:32:33.000Z</time>
      </trkpt>
      <trkpt lat="50.42887" lon="4.48708">
        <ele>170.7</ele>
        <time>2012-07-27T13:32:34.000Z</time>
      </trkpt>
      <trkpt lat="50.42883" lon="4.48712">
        <ele>170.1</ele>
        <time>2012-07-27T13:32:35.000Z</time>
      </trkpt>
      <trkpt lat="50.42878" lon="4.48717">
        <ele>168.8</ele>
        <time>2012-07-27T13:32:36.000Z</time>
      </trkpt>
      <trkpt lat="50.42873" lon="4.48724">
        <ele>167.9</ele>
        <time>2012-07-27T13:32:37.000Z</time>
      </trkpt>
      <trkpt lat="50.42867" lon="4.48733">
        <ele>167.7</ele>
        <time>2012-07-27T13:32:38.000Z</time>
      </trkpt>
      <trkpt lat="50.42861" lon="4.48741">
        <ele>168.2</ele>
        <time>2012-07-27T13:32:39.000Z</time>
      </trkpt>
      <trkpt lat="50.42856" lon="4.48748">
        <ele>168.5</ele>
        <time>2012-07-27T13:32:40.000Z</time>
      </trkpt>
      <trkpt lat="50.42851" lon="4.48755">
        <ele>167.3</ele>
        <time>2012-07-27T13:32:41.000Z</time>
      </trkpt>
      <trkpt lat="50.42847" lon="4.4876">
        <ele>165.7</ele>
        <time>2012-07-27T13:32:42.000Z</time>
      </trkpt>
      <trkpt lat="50.42844" lon="4.48767">
        <ele>164.5</ele>
        <time>2012-07-27T13:32:43.000Z</time>
      </trkpt>
      <trkpt lat="50.4284" lon="4.48773">
        <ele>163.5</ele>
        <time>2012-07-27T13:32:44.000Z</time>
      </trkpt>
      <trkpt lat="50.42836" lon="4.48778">
        <ele>162.6</ele>
        <time>2012-07-27T13:32:45.000Z</time>
      </trkpt>
      <trkpt lat="50.42833" lon="4.48784">
        <ele>161.5</ele>
        <time>2012-07-27T13:32:46.000Z</time>
      </trkpt>
      <trkpt lat="50.4283" lon="4.4879">
        <ele>161.3</ele>
        <time>2012-07-27T13:32:47.000Z</time>
      </trkpt>
      <trkpt lat="50.42828" lon="4.48799">
        <ele>162.8</ele>
        <time>2012-07-27T13:32:49.000Z</time>
      </trkpt>
      <trkpt lat="50.42825" lon="4.48805">
        <ele>162.6</ele>
        <time>2012-07-27T13:32:51.000Z</time>
      </trkpt>
      <trkpt lat="50.4282" lon="4.48815">
        <ele>162.5</ele>
        <time>2012-07-27T13:32:53.000Z</time>
      </trkpt>
      <trkpt lat="50.42815" lon="4.48825">
        <ele>161.6</ele>
        <time>2012-07-27T13:32:55.000Z</time>
      </trkpt>
      <trkpt lat="50.42813" lon="4.48833">
        <ele>161.8</ele>
        <time>2012-07-27T13:32:57.000Z</time>
      </trkpt>
      <trkpt lat="50.42814" lon="4.48841">
        <ele>162.2</ele>
        <time>2012-07-27T13:32:59.000Z</time>
      </trkpt>
      <trkpt lat="50.42812" lon="4.4885">
        <ele>162.9</ele>
        <time>2012-07-27T13:33:01.000Z</time>
      </trkpt>
      <trkpt lat="50.42807" lon="4.48858">
        <ele>165.4</ele>
        <time>2012-07-27T13:33:03.000Z</time>
      </trkpt>
      <trkpt lat="50.42801" lon="4.48865">
        <ele>167.3</ele>
        <time>2012-07-27T13:33:05.000Z</time>
      </trkpt>
      <trkpt lat="50.42795" lon="4.48874">
        <ele>168.3</ele>
        <time>2012-07-27T13:33:07.000Z</time>
      </trkpt>
      <trkpt lat="50.4279" lon="4.48879">
        <ele>168.7</ele>
        <time>2012-07-27T13:33:09.000Z</time>
      </trkpt>
      <trkpt lat="50.42785" lon="4.48884">
        <ele>168.5</ele>
        <time>2012-07-27T13:33:11.000Z</time>
      </trkpt>
      <trkpt lat="50.4278" lon="4.48884">
        <ele>169</ele>
        <time>2012-07-27T13:33:14.000Z</time>
      </trkpt>
      <trkpt lat="50.42775" lon="4.48888">
        <ele>169.6</ele>
        <time>2012-07-27T13:33:21.000Z</time>
      </trkpt>
      <trkpt lat="50.42771" lon="4.48894">
        <ele>170.5</ele>
        <time>2012-07-27T13:33:24.000Z</time>
      </trkpt>
      <trkpt lat="50.42772" lon="4.48901">
        <ele>168.8</ele>
        <time>2012-07-27T13:33:29.000Z</time>
      </trkpt>
      <trkpt lat="50.42772" lon="4.48911">
        <ele>168.4</ele>
        <time>2012-07-27T13:33:33.000Z</time>
      </trkpt>
      <trkpt lat="50.42772" lon="4.48919">
        <ele>167.6</ele>
        <time>2012-07-27T13:33:35.000Z</time>
      </trkpt>
      <trkpt lat="50.42772" lon="4.4893">
        <ele>167.6</ele>
        <time>2012-07-27T13:33:37.000Z</time>
      </trkpt>
      <trkpt lat="50.42773" lon="4.4894">
        <ele>167.2</ele>
        <time>2012-07-27T13:33:39.000Z</time>
      </trkpt>
      <trkpt lat="50.42775" lon="4.4895">
        <ele>168.1</ele>
        <time>2012-07-27T13:33:41.000Z</time>
      </trkpt>
      <trkpt lat="50.42777" lon="4.48961">
        <ele>169.3</ele>
        <time>2012-07-27T13:33:43.000Z</time>
      </trkpt>
      <trkpt lat="50.42777" lon="4.48974">
        <ele>169.9</ele>
        <time>2012-07-27T13:33:45.000Z</time>
      </trkpt>
      <trkpt lat="50.42778" lon="4.48988">
        <ele>170</ele>
        <time>2012-07-27T13:33:47.000Z</time>
      </trkpt>
      <trkpt lat="50.42779" lon="4.48995">
        <ele>170.5</ele>
        <time>2012-07-27T13:33:48.000Z</time>
      </trkpt>
      <trkpt lat="50.4278" lon="4.49003">
        <ele>170.3</ele>
        <time>2012-07-27T13:33:49.000Z</time>
      </trkpt>
      <trkpt lat="50.4278" lon="4.49017">
        <ele>169.6</ele>
        <time>2012-07-27T13:33:51.000Z</time>
      </trkpt>
      <trkpt lat="50.4278" lon="4.49024">
        <ele>169.7</ele>
        <time>2012-07-27T13:33:52.000Z</time>
      </trkpt>
      <trkpt lat="50.4278" lon="4.49031">
        <ele>169.6</ele>
        <time>2012-07-27T13:33:53.000Z</time>
      </trkpt>
      <trkpt lat="50.42781" lon="4.49038">
        <ele>169.5</ele>
        <time>2012-07-27T13:33:54.000Z</time>
      </trkpt>
      <trkpt lat="50.42782" lon="4.49046">
        <ele>169.6</ele>
        <time>2012-07-27T13:33:55.000Z</time>
      </trkpt>
      <trkpt lat="50.42782" lon="4.49054">
        <ele>169</ele>
        <time>2012-07-27T13:33:56.000Z</time>
      </trkpt>
      <trkpt lat="50.42782" lon="4.49062">
        <ele>169</ele>
        <time>2012-07-27T13:33:57.000Z</time>
      </trkpt>
      <trkpt lat="50.42783" lon="4.49069">
        <ele>168.8</ele>
        <time>2012-07-27T13:33:58.000Z</time>
      </trkpt>
      <trkpt lat="50.42783" lon="4.49077">
        <ele>169.1</ele>
        <time>2012-07-27T13:33:59.000Z</time>
      </trkpt>
      <trkpt lat="50.42783" lon="4.49084">
        <ele>168.8</ele>
        <time>2012-07-27T13:34:00.000Z</time>
      </trkpt>
      <trkpt lat="50.42784" lon="4.49092">
        <ele>168.5</ele>
        <time>2012-07-27T13:34:01.000Z</time>
      </trkpt>
      <trkpt lat="50.42784" lon="4.49099">
        <ele>168.3</ele>
        <time>2012-07-27T13:34:02.000Z</time>
      </trkpt>
      <trkpt lat="50.42785" lon="4.49108">
        <ele>168.4</ele>
        <time>2012-07-27T13:34:03.000Z</time>
      </trkpt>
      <trkpt lat="50.42785" lon="4.49116">
        <ele>168.4</ele>
        <time>2012-07-27T13:34:04.000Z</time>
      </trkpt>
      <trkpt lat="50.42786" lon="4.49124">
        <ele>168.1</ele>
        <time>2012-07-27T13:34:05.000Z</time>
      </trkpt>
      <trkpt lat="50.42787" lon="4.49137">
        <ele>167.2</ele>
        <time>2012-07-27T13:34:07.000Z</time>
      </trkpt>
      <trkpt lat="50.42789" lon="4.4915">
        <ele>167.6</ele>
        <time>2012-07-27T13:34:09.000Z</time>
      </trkpt>
      <trkpt lat="50.42787" lon="4.4916">
        <ele>167.8</ele>
        <time>2012-07-27T13:34:11.000Z</time>
      </trkpt>
      <trkpt lat="50.42781" lon="4.49164">
        <ele>167.9</ele>
        <time>2012-07-27T13:34:14.000Z</time>
      </trkpt>
      <trkpt lat="50.42775" lon="4.49165">
        <ele>169.5</ele>
        <time>2012-07-27T13:34:17.000Z</time>
      </trkpt>
      <trkpt lat="50.42773" lon="4.49157">
        <ele>169.6</ele>
        <time>2012-07-27T13:34:20.000Z</time>
      </trkpt>
      <trkpt lat="50.42772" lon="4.49148">
        <ele>168.8</ele>
        <time>2012-07-27T13:34:22.000Z</time>
      </trkpt>
      <trkpt lat="50.42771" lon="4.49135">
        <ele>169.2</ele>
        <time>2012-07-27T13:34:24.000Z</time>
      </trkpt>
      <trkpt lat="50.4277" lon="4.49121">
        <ele>169</ele>
        <time>2012-07-27T13:34:26.000Z</time>
      </trkpt>
      <trkpt lat="50.42769" lon="4.49107">
        <ele>168.6</ele>
        <time>2012-07-27T13:34:28.000Z</time>
      </trkpt>
      <trkpt lat="50.42769" lon="4.49093">
        <ele>169.8</ele>
        <time>2012-07-27T13:34:30.000Z</time>
      </trkpt>
      <trkpt lat="50.42769" lon="4.49086">
        <ele>170</ele>
        <time>2012-07-27T13:34:31.000Z</time>
      </trkpt>
      <trkpt lat="50.42768" lon="4.49072">
        <ele>170.1</ele>
        <time>2012-07-27T13:34:33.000Z</time>
      </trkpt>
      <trkpt lat="50.42767" lon="4.49058">
        <ele>169.9</ele>
        <time>2012-07-27T13:34:35.000Z</time>
      </trkpt>
      <trkpt lat="50.42766" lon="4.49046">
        <ele>170</ele>
        <time>2012-07-27T13:34:37.000Z</time>
      </trkpt>
      <trkpt lat="50.42765" lon="4.49033">
        <ele>171</ele>
        <time>2012-07-27T13:34:39.000Z</time>
      </trkpt>
      <trkpt lat="50.42764" lon="4.4902">
        <ele>172</ele>
        <time>2012-07-27T13:34:41.000Z</time>
      </trkpt>
      <trkpt lat="50.42763" lon="4.49009">
        <ele>172</ele>
        <time>2012-07-27T13:34:43.000Z</time>
      </trkpt>
      <trkpt lat="50.42761" lon="4.48999">
        <ele>171.9</ele>
        <time>2012-07-27T13:34:45.000Z</time>
      </trkpt>
      <trkpt lat="50.42758" lon="4.48994">
        <ele>171.6</ele>
        <time>2012-07-27T13:34:47.000Z</time>
      </trkpt>
      <trkpt lat="50.42752" lon="4.48994">
        <ele>171.8</ele>
        <time>2012-07-27T13:34:49.000Z</time>
      </trkpt>
      <trkpt lat="50.42747" lon="4.48998">
        <ele>171.6</ele>
        <time>2012-07-27T13:34:51.000Z</time>
      </trkpt>
      <trkpt lat="50.42742" lon="4.49007">
        <ele>172.4</ele>
        <time>2012-07-27T13:34:53.000Z</time>
      </trkpt>
      <trkpt lat="50.42736" lon="4.49015">
        <ele>172.6</ele>
        <time>2012-07-27T13:34:55.000Z</time>
      </trkpt>
      <trkpt lat="50.42731" lon="4.4902">
        <ele>172.7</ele>
        <time>2012-07-27T13:34:57.000Z</time>
      </trkpt>
      <trkpt lat="50.42726" lon="4.49027">
        <ele>173.3</ele>
        <time>2012-07-27T13:34:59.000Z</time>
      </trkpt>
      <trkpt lat="50.42721" lon="4.49034">
        <ele>173.8</ele>
        <time>2012-07-27T13:35:01.000Z</time>
      </trkpt>
      <trkpt lat="50.42715" lon="4.49039">
        <ele>174.1</ele>
        <time>2012-07-27T13:35:03.000Z</time>
      </trkpt>
      <trkpt lat="50.42708" lon="4.49045">
        <ele>175</ele>
        <time>2012-07-27T13:35:05.000Z</time>
      </trkpt>
      <trkpt lat="50.42702" lon="4.49052">
        <ele>175.3</ele>
        <time>2012-07-27T13:35:07.000Z</time>
      </trkpt>
      <trkpt lat="50.42695" lon="4.49059">
        <ele>174.7</ele>
        <time>2012-07-27T13:35:09.000Z</time>
      </trkpt>
      <trkpt lat="50.42688" lon="4.49066">
        <ele>174.6</ele>
        <time>2012-07-27T13:35:11.000Z</time>
      </trkpt>
      <trkpt lat="50.42681" lon="4.49073">
        <ele>174.6</ele>
        <time>2012-07-27T13:35:13.000Z</time>
      </trkpt>
      <trkpt lat="50.42675" lon="4.49079">
        <ele>175.3</ele>
        <time>2012-07-27T13:35:15.000Z</time>
      </trkpt>
      <trkpt lat="50.42668" lon="4.49084">
        <ele>176.7</ele>
        <time>2012-07-27T13:35:17.000Z</time>
      </trkpt>
      <trkpt lat="50.4266" lon="4.49089">
        <ele>177.1</ele>
        <time>2012-07-27T13:35:19.000Z</time>
      </trkpt>
      <trkpt lat="50.42654" lon="4.49092">
        <ele>177.5</ele>
        <time>2012-07-27T13:35:21.000Z</time>
      </trkpt>
      <trkpt lat="50.42649" lon="4.49094">
        <ele>179.2</ele>
        <time>2012-07-27T13:35:25.000Z</time>
      </trkpt>
      <trkpt lat="50.42647" lon="4.49085">
        <ele>179</ele>
        <time>2012-07-27T13:35:30.000Z</time>
      </trkpt>
      <trkpt lat="50.42644" lon="4.49078">
        <ele>179.6</ele>
        <time>2012-07-27T13:35:32.000Z</time>
      </trkpt>
      <trkpt lat="50.42643" lon="4.4907">
        <ele>180.4</ele>
        <time>2012-07-27T13:35:34.000Z</time>
      </trkpt>
      <trkpt lat="50.4264" lon="4.49062">
        <ele>180.3</ele>
        <time>2012-07-27T13:35:36.000Z</time>
      </trkpt>
      <trkpt lat="50.42634" lon="4.49063">
        <ele>181.9</ele>
        <time>2012-07-27T13:35:39.000Z</time>
      </trkpt>
      <trkpt lat="50.4263" lon="4.49067">
        <ele>182.3</ele>
        <time>2012-07-27T13:35:41.000Z</time>
      </trkpt>
      <trkpt lat="50.42624" lon="4.49063">
        <ele>182.8</ele>
        <time>2012-07-27T13:35:44.000Z</time>
      </trkpt>
      <trkpt lat="50.42621" lon="4.49054">
        <ele>182.8</ele>
        <time>2012-07-27T13:35:46.000Z</time>
      </trkpt>
      <trkpt lat="50.42618" lon="4.49046">
        <ele>183</ele>
        <time>2012-07-27T13:35:48.000Z</time>
      </trkpt>
      <trkpt lat="50.42612" lon="4.49044">
        <ele>183.6</ele>
        <time>2012-07-27T13:35:52.000Z</time>
      </trkpt>
      <trkpt lat="50.42606" lon="4.49048">
        <ele>183.1</ele>
        <time>2012-07-27T13:35:54.000Z</time>
      </trkpt>
      <trkpt lat="50.426" lon="4.49054">
        <ele>182.9</ele>
        <time>2012-07-27T13:35:56.000Z</time>
      </trkpt>
      <trkpt lat="50.42596" lon="4.49055">
        <ele>182.8</ele>
        <time>2012-07-27T13:35:57.000Z</time>
      </trkpt>
      <trkpt lat="50.42591" lon="4.49058">
        <ele>183.2</ele>
        <time>2012-07-27T13:35:58.000Z</time>
      </trkpt>
      <trkpt lat="50.42583" lon="4.49063">
        <ele>183.6</ele>
        <time>2012-07-27T13:36:00.000Z</time>
      </trkpt>
      <trkpt lat="50.42579" lon="4.49066">
        <ele>183.2</ele>
        <time>2012-07-27T13:36:01.000Z</time>
      </trkpt>
      <trkpt lat="50.42571" lon="4.49072">
        <ele>184</ele>
        <time>2012-07-27T13:36:03.000Z</time>
      </trkpt>
      <trkpt lat="50.42563" lon="4.49077">
        <ele>183.7</ele>
        <time>2012-07-27T13:36:05.000Z</time>
      </trkpt>
      <trkpt lat="50.42552" lon="4.49082">
        <ele>184.1</ele>
        <time>2012-07-27T13:36:07.000Z</time>
      </trkpt>
      <trkpt lat="50.42547" lon="4.49085">
        <ele>183</ele>
        <time>2012-07-27T13:36:08.000Z</time>
      </trkpt>
      <trkpt lat="50.42542" lon="4.49088">
        <ele>182.5</ele>
        <time>2012-07-27T13:36:09.000Z</time>
      </trkpt>
      <trkpt lat="50.42538" lon="4.49092">
        <ele>182.7</ele>
        <time>2012-07-27T13:36:10.000Z</time>
      </trkpt>
      <trkpt lat="50.4253" lon="4.49098">
        <ele>181.8</ele>
        <time>2012-07-27T13:36:12.000Z</time>
      </trkpt>
      <trkpt lat="50.42525" lon="4.491">
        <ele>181.8</ele>
        <time>2012-07-27T13:36:13.000Z</time>
      </trkpt>
      <trkpt lat="50.42521" lon="4.49104">
        <ele>181.4</ele>
        <time>2012-07-27T13:36:14.000Z</time>
      </trkpt>
      <trkpt lat="50.42516" lon="4.49108">
        <ele>181.4</ele>
        <time>2012-07-27T13:36:15.000Z</time>
      </trkpt>
      <trkpt lat="50.42512" lon="4.49111">
        <ele>181.2</ele>
        <time>2012-07-27T13:36:16.000Z</time>
      </trkpt>
      <trkpt lat="50.42508" lon="4.49115">
        <ele>181</ele>
        <time>2012-07-27T13:36:17.000Z</time>
      </trkpt>
      <trkpt lat="50.42499" lon="4.49122">
        <ele>181.8</ele>
        <time>2012-07-27T13:36:19.000Z</time>
      </trkpt>
      <trkpt lat="50.42494" lon="4.49125">
        <ele>182</ele>
        <time>2012-07-27T13:36:20.000Z</time>
      </trkpt>
      <trkpt lat="50.42489" lon="4.49128">
        <ele>182</ele>
        <time>2012-07-27T13:36:21.000Z</time>
      </trkpt>
      <trkpt lat="50.42484" lon="4.49132">
        <ele>182.3</ele>
        <time>2012-07-27T13:36:22.000Z</time>
      </trkpt>
      <trkpt lat="50.4248" lon="4.49135">
        <ele>182.3</ele>
        <time>2012-07-27T13:36:23.000Z</time>
      </trkpt>
      <trkpt lat="50.42475" lon="4.4914">
        <ele>181.9</ele>
        <time>2012-07-27T13:36:24.000Z</time>
      </trkpt>
      <trkpt lat="50.4247" lon="4.49143">
        <ele>180.9</ele>
        <time>2012-07-27T13:36:25.000Z</time>
      </trkpt>
      <trkpt lat="50.42465" lon="4.49146">
        <ele>180.6</ele>
        <time>2012-07-27T13:36:26.000Z</time>
      </trkpt>
      <trkpt lat="50.42459" lon="4.4915">
        <ele>180.3</ele>
        <time>2012-07-27T13:36:27.000Z</time>
      </trkpt>
      <trkpt lat="50.42454" lon="4.49153">
        <ele>180.5</ele>
        <time>2012-07-27T13:36:28.000Z</time>
      </trkpt>
      <trkpt lat="50.42449" lon="4.49157">
        <ele>180.5</ele>
        <time>2012-07-27T13:36:29.000Z</time>
      </trkpt>
      <trkpt lat="50.42444" lon="4.49161">
        <ele>181.3</ele>
        <time>2012-07-27T13:36:30.000Z</time>
      </trkpt>
      <trkpt lat="50.42438" lon="4.49163">
        <ele>181.2</ele>
        <time>2012-07-27T13:36:31.000Z</time>
      </trkpt>
      <trkpt lat="50.42432" lon="4.49167">
        <ele>180.3</ele>
        <time>2012-07-27T13:36:32.000Z</time>
      </trkpt>
      <trkpt lat="50.42427" lon="4.4917">
        <ele>180.1</ele>
        <time>2012-07-27T13:36:33.000Z</time>
      </trkpt>
      <trkpt lat="50.42422" lon="4.49174">
        <ele>179.6</ele>
        <time>2012-07-27T13:36:34.000Z</time>
      </trkpt>
      <trkpt lat="50.42417" lon="4.49177">
        <ele>179.7</ele>
        <time>2012-07-27T13:36:35.000Z</time>
      </trkpt>
      <trkpt lat="50.42411" lon="4.4918">
        <ele>178.3</ele>
        <time>2012-07-27T13:36:36.000Z</time>
      </trkpt>
      <trkpt lat="50.42406" lon="4.49182">
        <ele>178.4</ele>
        <time>2012-07-27T13:36:37.000Z</time>
      </trkpt>
      <trkpt lat="50.42399" lon="4.49187">
        <ele>178.2</ele>
        <time>2012-07-27T13:36:38.000Z</time>
      </trkpt>
      <trkpt lat="50.42394" lon="4.49191">
        <ele>177.3</ele>
        <time>2012-07-27T13:36:39.000Z</time>
      </trkpt>
      <trkpt lat="50.42389" lon="4.49195">
        <ele>177.3</ele>
        <time>2012-07-27T13:36:40.000Z</time>
      </trkpt>
      <trkpt lat="50.42385" lon="4.49198">
        <ele>177.3</ele>
        <time>2012-07-27T13:36:41.000Z</time>
      </trkpt>
      <trkpt lat="50.42378" lon="4.49202">
        <ele>177.6</ele>
        <time>2012-07-27T13:36:42.000Z</time>
      </trkpt>
      <trkpt lat="50.42374" lon="4.49205">
        <ele>177.9</ele>
        <time>2012-07-27T13:36:43.000Z</time>
      </trkpt>
      <trkpt lat="50.42368" lon="4.49209">
        <ele>177.4</ele>
        <time>2012-07-27T13:36:44.000Z</time>
      </trkpt>
      <trkpt lat="50.42364" lon="4.49214">
        <ele>177.4</ele>
        <time>2012-07-27T13:36:45.000Z</time>
      </trkpt>
      <trkpt lat="50.42359" lon="4.49219">
        <ele>177</ele>
        <time>2012-07-27T13:36:46.000Z</time>
      </trkpt>
      <trkpt lat="50.42354" lon="4.49222">
        <ele>177.4</ele>
        <time>2012-07-27T13:36:47.000Z</time>
      </trkpt>
      <trkpt lat="50.42349" lon="4.49224">
        <ele>178.2</ele>
        <time>2012-07-27T13:36:48.000Z</time>
      </trkpt>
      <trkpt lat="50.42343" lon="4.49228">
        <ele>178.7</ele>
        <time>2012-07-27T13:36:49.000Z</time>
      </trkpt>
      <trkpt lat="50.42338" lon="4.49232">
        <ele>179.3</ele>
        <time>2012-07-27T13:36:50.000Z</time>
      </trkpt>
      <trkpt lat="50.42333" lon="4.49235">
        <ele>179.6</ele>
        <time>2012-07-27T13:36:51.000Z</time>
      </trkpt>
      <trkpt lat="50.42328" lon="4.49239">
        <ele>179.8</ele>
        <time>2012-07-27T13:36:52.000Z</time>
      </trkpt>
      <trkpt lat="50.42322" lon="4.49243">
        <ele>179.9</ele>
        <time>2012-07-27T13:36:53.000Z</time>
      </trkpt>
      <trkpt lat="50.42317" lon="4.49248">
        <ele>179.3</ele>
        <time>2012-07-27T13:36:54.000Z</time>
      </trkpt>
      <trkpt lat="50.42312" lon="4.4925">
        <ele>178.6</ele>
        <time>2012-07-27T13:36:55.000Z</time>
      </trkpt>
      <trkpt lat="50.42306" lon="4.49254">
        <ele>178.6</ele>
        <time>2012-07-27T13:36:56.000Z</time>
      </trkpt>
      <trkpt lat="50.42301" lon="4.49257">
        <ele>179.2</ele>
        <time>2012-07-27T13:36:57.000Z</time>
      </trkpt>
      <trkpt lat="50.42296" lon="4.4926">
        <ele>179.4</ele>
        <time>2012-07-27T13:36:58.000Z</time>
      </trkpt>
      <trkpt lat="50.4229" lon="4.49264">
        <ele>179.1</ele>
        <time>2012-07-27T13:36:59.000Z</time>
      </trkpt>
      <trkpt lat="50.42285" lon="4.49268">
        <ele>180.1</ele>
        <time>2012-07-27T13:37:00.000Z</time>
      </trkpt>
      <trkpt lat="50.42281" lon="4.49271">
        <ele>179.9</ele>
        <time>2012-07-27T13:37:01.000Z</time>
      </trkpt>
      <trkpt lat="50.42275" lon="4.49274">
        <ele>180.2</ele>
        <time>2012-07-27T13:37:02.000Z</time>
      </trkpt>
      <trkpt lat="50.4227" lon="4.49278">
        <ele>180.7</ele>
        <time>2012-07-27T13:37:03.000Z</time>
      </trkpt>
      <trkpt lat="50.42265" lon="4.49283">
        <ele>180</ele>
        <time>2012-07-27T13:37:04.000Z</time>
      </trkpt>
      <trkpt lat="50.4226" lon="4.49286">
        <ele>180</ele>
        <time>2012-07-27T13:37:05.000Z</time>
      </trkpt>
      <trkpt lat="50.42256" lon="4.4929">
        <ele>179.5</ele>
        <time>2012-07-27T13:37:06.000Z</time>
      </trkpt>
      <trkpt lat="50.4225" lon="4.49294">
        <ele>179</ele>
        <time>2012-07-27T13:37:07.000Z</time>
      </trkpt>
      <trkpt lat="50.42242" lon="4.493">
        <ele>178.6</ele>
        <time>2012-07-27T13:37:08.000Z</time>
      </trkpt>
      <trkpt lat="50.42233" lon="4.49304">
        <ele>178.6</ele>
        <time>2012-07-27T13:37:10.000Z</time>
      </trkpt>
      <trkpt lat="50.42227" lon="4.49308">
        <ele>178.4</ele>
        <time>2012-07-27T13:37:11.000Z</time>
      </trkpt>
      <trkpt lat="50.42221" lon="4.49312">
        <ele>177.4</ele>
        <time>2012-07-27T13:37:12.000Z</time>
      </trkpt>
      <trkpt lat="50.42217" lon="4.49315">
        <ele>177.1</ele>
        <time>2012-07-27T13:37:13.000Z</time>
      </trkpt>
      <trkpt lat="50.4221" lon="4.49318">
        <ele>176.2</ele>
        <time>2012-07-27T13:37:15.000Z</time>
      </trkpt>
      <trkpt lat="50.42205" lon="4.49323">
        <ele>174.9</ele>
        <time>2012-07-27T13:37:17.000Z</time>
      </trkpt>
      <trkpt lat="50.42197" lon="4.49326">
        <ele>174</ele>
        <time>2012-07-27T13:37:20.000Z</time>
      </trkpt>
      <trkpt lat="50.42193" lon="4.49329">
        <ele>176.2</ele>
        <time>2012-07-27T13:37:22.000Z</time>
      </trkpt>
      <trkpt lat="50.42187" lon="4.49334">
        <ele>176.4</ele>
        <time>2012-07-27T13:37:24.000Z</time>
      </trkpt>
      <trkpt lat="50.42182" lon="4.49338">
        <ele>176.1</ele>
        <time>2012-07-27T13:37:26.000Z</time>
      </trkpt>
      <trkpt lat="50.42177" lon="4.49342">
        <ele>177</ele>
        <time>2012-07-27T13:37:28.000Z</time>
      </trkpt>
      <trkpt lat="50.42172" lon="4.49345">
        <ele>177.2</ele>
        <time>2012-07-27T13:37:30.000Z</time>
      </trkpt>
      <trkpt lat="50.42166" lon="4.49349">
        <ele>178.3</ele>
        <time>2012-07-27T13:37:32.000Z</time>
      </trkpt>
      <trkpt lat="50.4216" lon="4.49355">
        <ele>179.5</ele>
        <time>2012-07-27T13:37:34.000Z</time>
      </trkpt>
      <trkpt lat="50.42152" lon="4.49361">
        <ele>179.7</ele>
        <time>2012-07-27T13:37:36.000Z</time>
      </trkpt>
      <trkpt lat="50.42145" lon="4.49367">
        <ele>179.6</ele>
        <time>2012-07-27T13:37:38.000Z</time>
      </trkpt>
      <trkpt lat="50.42138" lon="4.49372">
        <ele>179.9</ele>
        <time>2012-07-27T13:37:40.000Z</time>
      </trkpt>
      <trkpt lat="50.42133" lon="4.49375">
        <ele>179.8</ele>
        <time>2012-07-27T13:37:41.000Z</time>
      </trkpt>
      <trkpt lat="50.42125" lon="4.49381">
        <ele>179.8</ele>
        <time>2012-07-27T13:37:43.000Z</time>
      </trkpt>
      <trkpt lat="50.42117" lon="4.49385">
        <ele>179.8</ele>
        <time>2012-07-27T13:37:45.000Z</time>
      </trkpt>
      <trkpt lat="50.4211" lon="4.4939">
        <ele>180.7</ele>
        <time>2012-07-27T13:37:47.000Z</time>
      </trkpt>
      <trkpt lat="50.42106" lon="4.49393">
        <ele>180.4</ele>
        <time>2012-07-27T13:37:48.000Z</time>
      </trkpt>
      <trkpt lat="50.42101" lon="4.49395">
        <ele>180.4</ele>
        <time>2012-07-27T13:37:49.000Z</time>
      </trkpt>
      <trkpt lat="50.42097" lon="4.49396">
        <ele>180.1</ele>
        <time>2012-07-27T13:37:50.000Z</time>
      </trkpt>
      <trkpt lat="50.42089" lon="4.494">
        <ele>179.8</ele>
        <time>2012-07-27T13:37:52.000Z</time>
      </trkpt>
      <trkpt lat="50.42081" lon="4.49403">
        <ele>179.7</ele>
        <time>2012-07-27T13:37:54.000Z</time>
      </trkpt>
      <trkpt lat="50.42074" lon="4.49408">
        <ele>179.3</ele>
        <time>2012-07-27T13:37:56.000Z</time>
      </trkpt>
      <trkpt lat="50.42067" lon="4.49412">
        <ele>178.7</ele>
        <time>2012-07-27T13:37:58.000Z</time>
      </trkpt>
      <trkpt lat="50.4206" lon="4.49416">
        <ele>178.3</ele>
        <time>2012-07-27T13:38:00.000Z</time>
      </trkpt>
      <trkpt lat="50.42054" lon="4.49421">
        <ele>177.6</ele>
        <time>2012-07-27T13:38:02.000Z</time>
      </trkpt>
      <trkpt lat="50.42047" lon="4.49424">
        <ele>178.1</ele>
        <time>2012-07-27T13:38:04.000Z</time>
      </trkpt>
      <trkpt lat="50.42042" lon="4.49428">
        <ele>178.2</ele>
        <time>2012-07-27T13:38:06.000Z</time>
      </trkpt>
      <trkpt lat="50.42036" lon="4.49432">
        <ele>178.3</ele>
        <time>2012-07-27T13:38:08.000Z</time>
      </trkpt>
      <trkpt lat="50.4203" lon="4.49436">
        <ele>177.7</ele>
        <time>2012-07-27T13:38:10.000Z</time>
      </trkpt>
      <trkpt lat="50.42025" lon="4.49441">
        <ele>177.5</ele>
        <time>2012-07-27T13:38:12.000Z</time>
      </trkpt>
      <trkpt lat="50.42018" lon="4.49446">
        <ele>176.7</ele>
        <time>2012-07-27T13:38:14.000Z</time>
      </trkpt>
      <trkpt lat="50.42012" lon="4.49451">
        <ele>177.3</ele>
        <time>2012-07-27T13:38:16.000Z</time>
      </trkpt>
      <trkpt lat="50.42005" lon="4.49455">
        <ele>178.5</ele>
        <time>2012-07-27T13:38:18.000Z</time>
      </trkpt>
      <trkpt lat="50.41998" lon="4.49456">
        <ele>177.2</ele>
        <time>2012-07-27T13:38:20.000Z</time>
      </trkpt>
      <trkpt lat="50.41992" lon="4.49459">
        <ele>176.5</ele>
        <time>2012-07-27T13:39:49.000Z</time>
      </trkpt>
      <trkpt lat="50.41987" lon="4.49462">
        <ele>177.1</ele>
        <time>2012-07-27T13:39:51.000Z</time>
      </trkpt>
      <trkpt lat="50.41983" lon="4.49466">
        <ele>176.5</ele>
        <time>2012-07-27T13:39:53.000Z</time>
      </trkpt>
      <trkpt lat="50.41979" lon="4.4947">
        <ele>177.1</ele>
        <time>2012-07-27T13:39:55.000Z</time>
      </trkpt>
      <trkpt lat="50.41973" lon="4.49474">
        <ele>177</ele>
        <time>2012-07-27T13:39:57.000Z</time>
      </trkpt>
      <trkpt lat="50.4197" lon="4.49478">
        <ele>179.9</ele>
        <time>2012-07-27T13:40:00.000Z</time>
      </trkpt>
      <trkpt lat="50.41965" lon="4.49485">
        <ele>182.7</ele>
        <time>2012-07-27T13:40:03.000Z</time>
      </trkpt>
      <trkpt lat="50.41959" lon="4.49488">
        <ele>182.3</ele>
        <time>2012-07-27T13:40:05.000Z</time>
      </trkpt>
      <trkpt lat="50.41954" lon="4.49492">
        <ele>182.9</ele>
        <time>2012-07-27T13:40:07.000Z</time>
      </trkpt>
      <trkpt lat="50.41947" lon="4.49495">
        <ele>182.6</ele>
        <time>2012-07-27T13:40:09.000Z</time>
      </trkpt>
      <trkpt lat="50.41938" lon="4.49497">
        <ele>179.8</ele>
        <time>2012-07-27T13:40:11.000Z</time>
      </trkpt>
      <trkpt lat="50.41932" lon="4.49501">
        <ele>180.6</ele>
        <time>2012-07-27T13:40:13.000Z</time>
      </trkpt>
      <trkpt lat="50.41924" lon="4.49503">
        <ele>178.6</ele>
        <time>2012-07-27T13:40:15.000Z</time>
      </trkpt>
      <trkpt lat="50.41918" lon="4.49505">
        <ele>175.9</ele>
        <time>2012-07-27T13:40:16.000Z</time>
      </trkpt>
      <trkpt lat="50.41912" lon="4.49511">
        <ele>175.8</ele>
        <time>2012-07-27T13:40:18.000Z</time>
      </trkpt>
      <trkpt lat="50.41905" lon="4.49516">
        <ele>176.1</ele>
        <time>2012-07-27T13:40:20.000Z</time>
      </trkpt>
      <trkpt lat="50.41898" lon="4.49517">
        <ele>175.5</ele>
        <time>2012-07-27T13:40:22.000Z</time>
      </trkpt>
      <trkpt lat="50.41892" lon="4.49522">
        <ele>174.5</ele>
        <time>2012-07-27T13:40:24.000Z</time>
      </trkpt>
      <trkpt lat="50.41884" lon="4.49526">
        <ele>174.7</ele>
        <time>2012-07-27T13:40:26.000Z</time>
      </trkpt>
      <trkpt lat="50.41878" lon="4.49531">
        <ele>175.3</ele>
        <time>2012-07-27T13:40:28.000Z</time>
      </trkpt>
      <trkpt lat="50.41871" lon="4.49535">
        <ele>176.2</ele>
        <time>2012-07-27T13:40:30.000Z</time>
      </trkpt>
      <trkpt lat="50.41864" lon="4.49539">
        <ele>176.7</ele>
        <time>2012-07-27T13:40:32.000Z</time>
      </trkpt>
      <trkpt lat="50.41856" lon="4.49544">
        <ele>179.1</ele>
        <time>2012-07-27T13:40:34.000Z</time>
      </trkpt>
      <trkpt lat="50.4185" lon="4.4955">
        <ele>181.2</ele>
        <time>2012-07-27T13:40:36.000Z</time>
      </trkpt>
      <trkpt lat="50.41844" lon="4.49556">
        <ele>183</ele>
        <time>2012-07-27T13:40:38.000Z</time>
      </trkpt>
      <trkpt lat="50.41836" lon="4.49562">
        <ele>184.2</ele>
        <time>2012-07-27T13:40:40.000Z</time>
      </trkpt>
      <trkpt lat="50.41832" lon="4.49565">
        <ele>184.5</ele>
        <time>2012-07-27T13:40:41.000Z</time>
      </trkpt>
      <trkpt lat="50.41827" lon="4.49571">
        <ele>184.4</ele>
        <time>2012-07-27T13:40:43.000Z</time>
      </trkpt>
      <trkpt lat="50.41822" lon="4.49576">
        <ele>184.4</ele>
        <time>2012-07-27T13:40:44.000Z</time>
      </trkpt>
      <trkpt lat="50.41815" lon="4.49579">
        <ele>184.3</ele>
        <time>2012-07-27T13:40:45.000Z</time>
      </trkpt>
      <trkpt lat="50.41808" lon="4.49582">
        <ele>182.4</ele>
        <time>2012-07-27T13:40:47.000Z</time>
      </trkpt>
      <trkpt lat="50.41803" lon="4.49585">
        <ele>180.1</ele>
        <time>2012-07-27T13:40:49.000Z</time>
      </trkpt>
      <trkpt lat="50.41796" lon="4.49592">
        <ele>179.2</ele>
        <time>2012-07-27T13:40:51.000Z</time>
      </trkpt>
      <trkpt lat="50.4179" lon="4.49595">
        <ele>179.5</ele>
        <time>2012-07-27T13:40:52.000Z</time>
      </trkpt>
      <trkpt lat="50.41783" lon="4.49598">
        <ele>179.9</ele>
        <time>2012-07-27T13:40:53.000Z</time>
      </trkpt>
      <trkpt lat="50.41776" lon="4.496">
        <ele>179.1</ele>
        <time>2012-07-27T13:40:54.000Z</time>
      </trkpt>
      <trkpt lat="50.41772" lon="4.49603">
        <ele>179.1</ele>
        <time>2012-07-27T13:40:54.999Z</time>
      </trkpt>
      <trkpt lat="50.41766" lon="4.49607">
        <ele>179.5</ele>
        <time>2012-07-27T13:40:56.000Z</time>
      </trkpt>
      <trkpt lat="50.41762" lon="4.49611">
        <ele>179.4</ele>
        <time>2012-07-27T13:40:57.000Z</time>
      </trkpt>
      <trkpt lat="50.41757" lon="4.49616">
        <ele>178.9</ele>
        <time>2012-07-27T13:40:58.000Z</time>
      </trkpt>
      <trkpt lat="50.41752" lon="4.4962">
        <ele>180.6</ele>
        <time>2012-07-27T13:41:00.000Z</time>
      </trkpt>
      <trkpt lat="50.41747" lon="4.49623">
        <ele>180.8</ele>
        <time>2012-07-27T13:41:01.000Z</time>
      </trkpt>
      <trkpt lat="50.41742" lon="4.49626">
        <ele>180.9</ele>
        <time>2012-07-27T13:41:02.000Z</time>
      </trkpt>
      <trkpt lat="50.41734" lon="4.49632">
        <ele>181.7</ele>
        <time>2012-07-27T13:41:04.000Z</time>
      </trkpt>
      <trkpt lat="50.41728" lon="4.49636">
        <ele>181.8</ele>
        <time>2012-07-27T13:41:05.000Z</time>
      </trkpt>
      <trkpt lat="50.41723" lon="4.4964">
        <ele>182.1</ele>
        <time>2012-07-27T13:41:06.000Z</time>
      </trkpt>
      <trkpt lat="50.41718" lon="4.49642">
        <ele>182.4</ele>
        <time>2012-07-27T13:41:07.000Z</time>
      </trkpt>
      <trkpt lat="50.41713" lon="4.49644">
        <ele>181.2</ele>
        <time>2012-07-27T13:41:08.000Z</time>
      </trkpt>
      <trkpt lat="50.41708" lon="4.49646">
        <ele>180.6</ele>
        <time>2012-07-27T13:41:09.000Z</time>
      </trkpt>
      <trkpt lat="50.41703" lon="4.4965">
        <ele>180.8</ele>
        <time>2012-07-27T13:41:10.000Z</time>
      </trkpt>
      <trkpt lat="50.41697" lon="4.49653">
        <ele>180.7</ele>
        <time>2012-07-27T13:41:11.000Z</time>
      </trkpt>
      <trkpt lat="50.4169" lon="4.49661">
        <ele>180.3</ele>
        <time>2012-07-27T13:41:13.000Z</time>
      </trkpt>
      <trkpt lat="50.41682" lon="4.49663">
        <ele>178.1</ele>
        <time>2012-07-27T13:41:14.000Z</time>
      </trkpt>
      <trkpt lat="50.41678" lon="4.49665">
        <ele>178.5</ele>
        <time>2012-07-27T13:41:15.000Z</time>
      </trkpt>
      <trkpt lat="50.41673" lon="4.49668">
        <ele>178.4</ele>
        <time>2012-07-27T13:41:15.999Z</time>
      </trkpt>
      <trkpt lat="50.41666" lon="4.49674">
        <ele>177.4</ele>
        <time>2012-07-27T13:41:17.000Z</time>
      </trkpt>
      <trkpt lat="50.4166" lon="4.49676">
        <ele>176.3</ele>
        <time>2012-07-27T13:41:17.999Z</time>
      </trkpt>
      <trkpt lat="50.41654" lon="4.4968">
        <ele>176.5</ele>
        <time>2012-07-27T13:41:19.000Z</time>
      </trkpt>
      <trkpt lat="50.4165" lon="4.49684">
        <ele>176.8</ele>
        <time>2012-07-27T13:41:20.000Z</time>
      </trkpt>
      <trkpt lat="50.41647" lon="4.4969">
        <ele>175.6</ele>
        <time>2012-07-27T13:41:21.000Z</time>
      </trkpt>
      <trkpt lat="50.41642" lon="4.49694">
        <ele>175.4</ele>
        <time>2012-07-27T13:41:22.000Z</time>
      </trkpt>
      <trkpt lat="50.41633" lon="4.49697">
        <ele>177</ele>
        <time>2012-07-27T13:41:24.000Z</time>
      </trkpt>
      <trkpt lat="50.41624" lon="4.49704">
        <ele>176.8</ele>
        <time>2012-07-27T13:41:26.000Z</time>
      </trkpt>
      <trkpt lat="50.41619" lon="4.49708">
        <ele>176.1</ele>
        <time>2012-07-27T13:41:27.000Z</time>
      </trkpt>
      <trkpt lat="50.41614" lon="4.49711">
        <ele>177.5</ele>
        <time>2012-07-27T13:41:28.000Z</time>
      </trkpt>
      <trkpt lat="50.41608" lon="4.49716">
        <ele>179.2</ele>
        <time>2012-07-27T13:41:30.000Z</time>
      </trkpt>
      <trkpt lat="50.41604" lon="4.49721">
        <ele>178.1</ele>
        <time>2012-07-27T13:41:31.000Z</time>
      </trkpt>
      <trkpt lat="50.416" lon="4.49725">
        <ele>177.4</ele>
        <time>2012-07-27T13:41:32.000Z</time>
      </trkpt>
      <trkpt lat="50.41597" lon="4.4973">
        <ele>177.4</ele>
        <time>2012-07-27T13:41:33.000Z</time>
      </trkpt>
      <trkpt lat="50.41587" lon="4.49737">
        <ele>172.9</ele>
        <time>2012-07-27T13:41:35.000Z</time>
      </trkpt>
      <trkpt lat="50.41582" lon="4.49742">
        <ele>170.9</ele>
        <time>2012-07-27T13:41:36.000Z</time>
      </trkpt>
      <trkpt lat="50.41576" lon="4.4975">
        <ele>174.1</ele>
        <time>2012-07-27T13:41:38.000Z</time>
      </trkpt>
      <trkpt lat="50.41572" lon="4.49755">
        <ele>173.1</ele>
        <time>2012-07-27T13:41:39.000Z</time>
      </trkpt>
      <trkpt lat="50.41568" lon="4.4976">
        <ele>173.2</ele>
        <time>2012-07-27T13:41:40.000Z</time>
      </trkpt>
      <trkpt lat="50.41562" lon="4.49764">
        <ele>172.4</ele>
        <time>2012-07-27T13:41:41.000Z</time>
      </trkpt>
      <trkpt lat="50.41556" lon="4.49775">
        <ele>171.4</ele>
        <time>2012-07-27T13:41:43.000Z</time>
      </trkpt>
      <trkpt lat="50.4155" lon="4.49786">
        <ele>170.4</ele>
        <time>2012-07-27T13:41:45.000Z</time>
      </trkpt>
      <trkpt lat="50.41546" lon="4.4979">
        <ele>171.4</ele>
        <time>2012-07-27T13:41:46.000Z</time>
      </trkpt>
      <trkpt lat="50.41542" lon="4.49795">
        <ele>171</ele>
        <time>2012-07-27T13:41:47.000Z</time>
      </trkpt>
      <trkpt lat="50.41539" lon="4.498">
        <ele>171</ele>
        <time>2012-07-27T13:41:48.000Z</time>
      </trkpt>
      <trkpt lat="50.41535" lon="4.49805">
        <ele>171</ele>
        <time>2012-07-27T13:41:49.000Z</time>
      </trkpt>
      <trkpt lat="50.41532" lon="4.49812">
        <ele>171.1</ele>
        <time>2012-07-27T13:41:50.000Z</time>
      </trkpt>
      <trkpt lat="50.41528" lon="4.49818">
        <ele>173.1</ele>
        <time>2012-07-27T13:41:51.000Z</time>
      </trkpt>
      <trkpt lat="50.41524" lon="4.49824">
        <ele>174.6</ele>
        <time>2012-07-27T13:41:51.999Z</time>
      </trkpt>
      <trkpt lat="50.41521" lon="4.4983">
        <ele>174.6</ele>
        <time>2012-07-27T13:41:53.000Z</time>
      </trkpt>
      <trkpt lat="50.41518" lon="4.49837">
        <ele>175.4</ele>
        <time>2012-07-27T13:41:54.000Z</time>
      </trkpt>
      <trkpt lat="50.41515" lon="4.49844">
        <ele>175.6</ele>
        <time>2012-07-27T13:41:55.000Z</time>
      </trkpt>
      <trkpt lat="50.4151" lon="4.49848">
        <ele>175.1</ele>
        <time>2012-07-27T13:41:57.000Z</time>
      </trkpt>
      <trkpt lat="50.41504" lon="4.49858">
        <ele>175.3</ele>
        <time>2012-07-27T13:41:59.000Z</time>
      </trkpt>
      <trkpt lat="50.41504" lon="4.49868">
        <ele>175.2</ele>
        <time>2012-07-27T13:42:00.000Z</time>
      </trkpt>
      <trkpt lat="50.41503" lon="4.49876">
        <ele>175.4</ele>
        <time>2012-07-27T13:42:01.000Z</time>
      </trkpt>
      <trkpt lat="50.41502" lon="4.49887">
        <ele>175.6</ele>
        <time>2012-07-27T13:42:03.000Z</time>
      </trkpt>
      <trkpt lat="50.41499" lon="4.499">
        <ele>175.7</ele>
        <time>2012-07-27T13:42:05.000Z</time>
      </trkpt>
      <trkpt lat="50.41496" lon="4.49913">
        <ele>175.8</ele>
        <time>2012-07-27T13:42:07.000Z</time>
      </trkpt>
      <trkpt lat="50.41495" lon="4.49925">
        <ele>175.8</ele>
        <time>2012-07-27T13:42:09.000Z</time>
      </trkpt>
      <trkpt lat="50.41492" lon="4.49933">
        <ele>175.8</ele>
        <time>2012-07-27T13:42:10.000Z</time>
      </trkpt>
      <trkpt lat="50.41488" lon="4.49947">
        <ele>174.7</ele>
        <time>2012-07-27T13:42:11.000Z</time>
      </trkpt>
      <trkpt lat="50.41478" lon="4.49964">
        <ele>172.5</ele>
        <time>2012-07-27T13:42:12.000Z</time>
      </trkpt>
      <trkpt lat="50.41466" lon="4.49973">
        <ele>171.1</ele>
        <time>2012-07-27T13:42:13.000Z</time>
      </trkpt>
      <trkpt lat="50.41459" lon="4.4998">
        <ele>170.4</ele>
        <time>2012-07-27T13:42:14.000Z</time>
      </trkpt>
      <trkpt lat="50.41456" lon="4.49992">
        <ele>171.1</ele>
        <time>2012-07-27T13:42:15.000Z</time>
      </trkpt>
      <trkpt lat="50.41455" lon="4.50002">
        <ele>174.3</ele>
        <time>2012-07-27T13:42:16.000Z</time>
      </trkpt>
      <trkpt lat="50.41455" lon="4.50016">
        <ele>173</ele>
        <time>2012-07-27T13:42:18.000Z</time>
      </trkpt>
      <trkpt lat="50.4145" lon="4.50023">
        <ele>172.2</ele>
        <time>2012-07-27T13:42:19.000Z</time>
      </trkpt>
      <trkpt lat="50.41448" lon="4.50035">
        <ele>169.2</ele>
        <time>2012-07-27T13:42:21.000Z</time>
      </trkpt>
      <trkpt lat="50.41447" lon="4.50042">
        <ele>167.8</ele>
        <time>2012-07-27T13:42:22.000Z</time>
      </trkpt>
      <trkpt lat="50.41445" lon="4.50051">
        <ele>167.3</ele>
        <time>2012-07-27T13:42:23.000Z</time>
      </trkpt>
      <trkpt lat="50.41443" lon="4.50058">
        <ele>167.8</ele>
        <time>2012-07-27T13:42:24.000Z</time>
      </trkpt>
      <trkpt lat="50.41441" lon="4.50071">
        <ele>166.4</ele>
        <time>2012-07-27T13:42:26.000Z</time>
      </trkpt>
      <trkpt lat="50.41439" lon="4.50078">
        <ele>166.7</ele>
        <time>2012-07-27T13:42:27.000Z</time>
      </trkpt>
      <trkpt lat="50.41438" lon="4.50086">
        <ele>166.7</ele>
        <time>2012-07-27T13:42:28.001Z</time>
      </trkpt>
      <trkpt lat="50.41432" lon="4.50098">
        <ele>165.9</ele>
        <time>2012-07-27T13:42:30.000Z</time>
      </trkpt>
      <trkpt lat="50.41435" lon="4.50105">
        <ele>165.2</ele>
        <time>2012-07-27T13:42:31.000Z</time>
      </trkpt>
      <trkpt lat="50.41437" lon="4.50113">
        <ele>165.6</ele>
        <time>2012-07-27T13:42:32.000Z</time>
      </trkpt>
      <trkpt lat="50.41435" lon="4.50121">
        <ele>165.2</ele>
        <time>2012-07-27T13:42:33.000Z</time>
      </trkpt>
      <trkpt lat="50.41436" lon="4.50129">
        <ele>167.1</ele>
        <time>2012-07-27T13:42:34.000Z</time>
      </trkpt>
      <trkpt lat="50.41435" lon="4.50138">
        <ele>167.3</ele>
        <time>2012-07-27T13:42:35.000Z</time>
      </trkpt>
      <trkpt lat="50.41435" lon="4.50152">
        <ele>166.2</ele>
        <time>2012-07-27T13:42:37.000Z</time>
      </trkpt>
      <trkpt lat="50.41436" lon="4.50159">
        <ele>165.4</ele>
        <time>2012-07-27T13:42:38.000Z</time>
      </trkpt>
      <trkpt lat="50.41435" lon="4.50171">
        <ele>164</ele>
        <time>2012-07-27T13:42:40.000Z</time>
      </trkpt>
      <trkpt lat="50.41434" lon="4.50183">
        <ele>162.4</ele>
        <time>2012-07-27T13:42:42.000Z</time>
      </trkpt>
      <trkpt lat="50.41433" lon="4.5019">
        <ele>162.2</ele>
        <time>2012-07-27T13:42:43.000Z</time>
      </trkpt>
      <trkpt lat="50.41432" lon="4.50197">
        <ele>161.3</ele>
        <time>2012-07-27T13:42:44.000Z</time>
      </trkpt>
      <trkpt lat="50.41433" lon="4.50205">
        <ele>161.8</ele>
        <time>2012-07-27T13:42:45.000Z</time>
      </trkpt>
      <trkpt lat="50.41433" lon="4.50214">
        <ele>161.9</ele>
        <time>2012-07-27T13:42:46.000Z</time>
      </trkpt>
      <trkpt lat="50.41437" lon="4.50228">
        <ele>165.3</ele>
        <time>2012-07-27T13:42:48.000Z</time>
      </trkpt>
      <trkpt lat="50.41437" lon="4.50236">
        <ele>165.9</ele>
        <time>2012-07-27T13:42:49.000Z</time>
      </trkpt>
      <trkpt lat="50.41437" lon="4.50245">
        <ele>166.9</ele>
        <time>2012-07-27T13:42:50.000Z</time>
      </trkpt>
      <trkpt lat="50.41433" lon="4.50258">
        <ele>166.4</ele>
        <time>2012-07-27T13:42:52.000Z</time>
      </trkpt>
      <trkpt lat="50.4143" lon="4.50271">
        <ele>166.6</ele>
        <time>2012-07-27T13:42:54.000Z</time>
      </trkpt>
      <trkpt lat="50.41428" lon="4.50279">
        <ele>165.3</ele>
        <time>2012-07-27T13:42:55.000Z</time>
      </trkpt>
      <trkpt lat="50.41432" lon="4.50286">
        <ele>166.8</ele>
        <time>2012-07-27T13:42:56.000Z</time>
      </trkpt>
      <trkpt lat="50.41432" lon="4.50299">
        <ele>167.8</ele>
        <time>2012-07-27T13:42:58.000Z</time>
      </trkpt>
      <trkpt lat="50.41432" lon="4.50306">
        <ele>168.2</ele>
        <time>2012-07-27T13:42:59.000Z</time>
      </trkpt>
      <trkpt lat="50.41432" lon="4.50314">
        <ele>166.1</ele>
        <time>2012-07-27T13:43:00.000Z</time>
      </trkpt>
      <trkpt lat="50.41432" lon="4.50322">
        <ele>165.4</ele>
        <time>2012-07-27T13:43:01.000Z</time>
      </trkpt>
      <trkpt lat="50.41434" lon="4.5033">
        <ele>165.6</ele>
        <time>2012-07-27T13:43:02.000Z</time>
      </trkpt>
      <trkpt lat="50.41435" lon="4.50338">
        <ele>165.4</ele>
        <time>2012-07-27T13:43:03.000Z</time>
      </trkpt>
      <trkpt lat="50.41435" lon="4.50345">
        <ele>165.7</ele>
        <time>2012-07-27T13:43:04.000Z</time>
      </trkpt>
      <trkpt lat="50.41435" lon="4.50359">
        <ele>165.2</ele>
        <time>2012-07-27T13:43:06.000Z</time>
      </trkpt>
      <trkpt lat="50.41436" lon="4.50368">
        <ele>167.1</ele>
        <time>2012-07-27T13:43:07.000Z</time>
      </trkpt>
      <trkpt lat="50.41436" lon="4.50376">
        <ele>167.4</ele>
        <time>2012-07-27T13:43:08.000Z</time>
      </trkpt>
      <trkpt lat="50.41437" lon="4.50388">
        <ele>166</ele>
        <time>2012-07-27T13:43:10.000Z</time>
      </trkpt>
      <trkpt lat="50.41437" lon="4.50402">
        <ele>165.7</ele>
        <time>2012-07-27T13:43:12.000Z</time>
      </trkpt>
      <trkpt lat="50.41436" lon="4.50409">
        <ele>165.4</ele>
        <time>2012-07-27T13:43:13.000Z</time>
      </trkpt>
      <trkpt lat="50.41436" lon="4.50423">
        <ele>164.4</ele>
        <time>2012-07-27T13:43:15.000Z</time>
      </trkpt>
      <trkpt lat="50.41436" lon="4.50436">
        <ele>163.8</ele>
        <time>2012-07-27T13:43:17.000Z</time>
      </trkpt>
      <trkpt lat="50.41435" lon="4.50449">
        <ele>164.2</ele>
        <time>2012-07-27T13:43:19.000Z</time>
      </trkpt>
      <trkpt lat="50.41433" lon="4.50456">
        <ele>162.7</ele>
        <time>2012-07-27T13:43:20.000Z</time>
      </trkpt>
      <trkpt lat="50.41431" lon="4.50468">
        <ele>160.6</ele>
        <time>2012-07-27T13:43:22.000Z</time>
      </trkpt>
      <trkpt lat="50.41429" lon="4.5048">
        <ele>160.1</ele>
        <time>2012-07-27T13:43:24.000Z</time>
      </trkpt>
      <trkpt lat="50.41428" lon="4.50492">
        <ele>159.4</ele>
        <time>2012-07-27T13:43:26.000Z</time>
      </trkpt>
      <trkpt lat="50.41426" lon="4.50504">
        <ele>159.1</ele>
        <time>2012-07-27T13:43:28.000Z</time>
      </trkpt>
      <trkpt lat="50.41423" lon="4.50514">
        <ele>159.2</ele>
        <time>2012-07-27T13:43:30.000Z</time>
      </trkpt>
      <trkpt lat="50.41421" lon="4.50526">
        <ele>158.4</ele>
        <time>2012-07-27T13:43:32.000Z</time>
      </trkpt>
      <trkpt lat="50.4142" lon="4.50539">
        <ele>157.8</ele>
        <time>2012-07-27T13:43:34.000Z</time>
      </trkpt>
      <trkpt lat="50.41419" lon="4.5055">
        <ele>156.8</ele>
        <time>2012-07-27T13:43:36.000Z</time>
      </trkpt>
      <trkpt lat="50.41416" lon="4.50561">
        <ele>156.7</ele>
        <time>2012-07-27T13:43:38.000Z</time>
      </trkpt>
      <trkpt lat="50.41414" lon="4.50571">
        <ele>156.5</ele>
        <time>2012-07-27T13:43:40.000Z</time>
      </trkpt>
      <trkpt lat="50.41412" lon="4.50583">
        <ele>156.2</ele>
        <time>2012-07-27T13:43:42.000Z</time>
      </trkpt>
      <trkpt lat="50.4141" lon="4.50589">
        <ele>156</ele>
        <time>2012-07-27T13:43:43.000Z</time>
      </trkpt>
      <trkpt lat="50.41409" lon="4.50596">
        <ele>156.2</ele>
        <time>2012-07-27T13:43:44.000Z</time>
      </trkpt>
      <trkpt lat="50.41407" lon="4.50603">
        <ele>157</ele>
        <time>2012-07-27T13:43:45.000Z</time>
      </trkpt>
      <trkpt lat="50.41406" lon="4.5061">
        <ele>157.2</ele>
        <time>2012-07-27T13:43:46.000Z</time>
      </trkpt>
      <trkpt lat="50.41404" lon="4.50618">
        <ele>157.8</ele>
        <time>2012-07-27T13:43:47.000Z</time>
      </trkpt>
      <trkpt lat="50.41402" lon="4.50625">
        <ele>157.8</ele>
        <time>2012-07-27T13:43:48.000Z</time>
      </trkpt>
      <trkpt lat="50.414" lon="4.50632">
        <ele>158</ele>
        <time>2012-07-27T13:43:49.000Z</time>
      </trkpt>
      <trkpt lat="50.41398" lon="4.50639">
        <ele>158.1</ele>
        <time>2012-07-27T13:43:50.000Z</time>
      </trkpt>
      <trkpt lat="50.41396" lon="4.50646">
        <ele>158</ele>
        <time>2012-07-27T13:43:51.000Z</time>
      </trkpt>
      <trkpt lat="50.41391" lon="4.50659">
        <ele>157.7</ele>
        <time>2012-07-27T13:43:53.000Z</time>
      </trkpt>
      <trkpt lat="50.41388" lon="4.50666">
        <ele>158</ele>
        <time>2012-07-27T13:43:54.000Z</time>
      </trkpt>
      <trkpt lat="50.41383" lon="4.50678">
        <ele>158.5</ele>
        <time>2012-07-27T13:43:56.000Z</time>
      </trkpt>
      <trkpt lat="50.41381" lon="4.50685">
        <ele>159.2</ele>
        <time>2012-07-27T13:43:57.000Z</time>
      </trkpt>
      <trkpt lat="50.41377" lon="4.50698">
        <ele>159.4</ele>
        <time>2012-07-27T13:43:59.000Z</time>
      </trkpt>
      <trkpt lat="50.41375" lon="4.50705">
        <ele>159.6</ele>
        <time>2012-07-27T13:44:00.000Z</time>
      </trkpt>
      <trkpt lat="50.41372" lon="4.50712">
        <ele>159.7</ele>
        <time>2012-07-27T13:44:01.000Z</time>
      </trkpt>
      <trkpt lat="50.41369" lon="4.50718">
        <ele>160.2</ele>
        <time>2012-07-27T13:44:02.000Z</time>
      </trkpt>
      <trkpt lat="50.41368" lon="4.50726">
        <ele>160.4</ele>
        <time>2012-07-27T13:44:03.000Z</time>
      </trkpt>
      <trkpt lat="50.41365" lon="4.50739">
        <ele>161.1</ele>
        <time>2012-07-27T13:44:05.000Z</time>
      </trkpt>
      <trkpt lat="50.41361" lon="4.50752">
        <ele>161.9</ele>
        <time>2012-07-27T13:44:07.000Z</time>
      </trkpt>
      <trkpt lat="50.41358" lon="4.50766">
        <ele>161.8</ele>
        <time>2012-07-27T13:44:09.000Z</time>
      </trkpt>
      <trkpt lat="50.41355" lon="4.50773">
        <ele>161.3</ele>
        <time>2012-07-27T13:44:10.000Z</time>
      </trkpt>
      <trkpt lat="50.41353" lon="4.50779">
        <ele>161.3</ele>
        <time>2012-07-27T13:44:11.000Z</time>
      </trkpt>
      <trkpt lat="50.41351" lon="4.50786">
        <ele>162</ele>
        <time>2012-07-27T13:44:12.000Z</time>
      </trkpt>
      <trkpt lat="50.41348" lon="4.50793">
        <ele>161.4</ele>
        <time>2012-07-27T13:44:13.000Z</time>
      </trkpt>
      <trkpt lat="50.41346" lon="4.508">
        <ele>161.1</ele>
        <time>2012-07-27T13:44:13.966Z</time>
      </trkpt>
      <trkpt lat="50.41343" lon="4.50812">
        <ele>161</ele>
        <time>2012-07-27T13:44:15.758Z</time>
      </trkpt>
      <trkpt lat="50.41324" lon="4.50859">
        <ele>160.2</ele>
        <time>2012-07-27T13:44:22.758Z</time>
      </trkpt>
      <trkpt lat="50.41319" lon="4.50865">
        <ele>158.7</ele>
        <time>2012-07-27T13:44:23.999Z</time>
      </trkpt>
      <trkpt lat="50.41318" lon="4.50874">
        <ele>157.9</ele>
        <time>2012-07-27T13:44:25.000Z</time>
      </trkpt>
      <trkpt lat="50.41315" lon="4.50886">
        <ele>158.3</ele>
        <time>2012-07-27T13:44:27.000Z</time>
      </trkpt>
      <trkpt lat="50.41313" lon="4.50898">
        <ele>158.4</ele>
        <time>2012-07-27T13:44:29.000Z</time>
      </trkpt>
      <trkpt lat="50.4131" lon="4.50904">
        <ele>157.2</ele>
        <time>2012-07-27T13:44:30.000Z</time>
      </trkpt>
      <trkpt lat="50.41309" lon="4.50911">
        <ele>156.4</ele>
        <time>2012-07-27T13:44:31.000Z</time>
      </trkpt>
      <trkpt lat="50.41306" lon="4.50922">
        <ele>156.6</ele>
        <time>2012-07-27T13:44:33.000Z</time>
      </trkpt>
      <trkpt lat="50.41303" lon="4.5093">
        <ele>156.3</ele>
        <time>2012-07-27T13:44:34.000Z</time>
      </trkpt>
      <trkpt lat="50.41299" lon="4.50941">
        <ele>155</ele>
        <time>2012-07-27T13:44:36.000Z</time>
      </trkpt>
      <trkpt lat="50.41296" lon="4.50947">
        <ele>155.3</ele>
        <time>2012-07-27T13:44:37.000Z</time>
      </trkpt>
      <trkpt lat="50.41294" lon="4.50953">
        <ele>155.2</ele>
        <time>2012-07-27T13:44:38.000Z</time>
      </trkpt>
      <trkpt lat="50.41292" lon="4.5096">
        <ele>155.1</ele>
        <time>2012-07-27T13:44:39.000Z</time>
      </trkpt>
      <trkpt lat="50.4129" lon="4.50968">
        <ele>154.9</ele>
        <time>2012-07-27T13:44:40.000Z</time>
      </trkpt>
      <trkpt lat="50.41288" lon="4.50974">
        <ele>154.9</ele>
        <time>2012-07-27T13:44:41.000Z</time>
      </trkpt>
      <trkpt lat="50.41286" lon="4.5098">
        <ele>155</ele>
        <time>2012-07-27T13:44:42.000Z</time>
      </trkpt>
      <trkpt lat="50.41283" lon="4.50987">
        <ele>155.1</ele>
        <time>2012-07-27T13:44:43.000Z</time>
      </trkpt>
      <trkpt lat="50.41282" lon="4.50994">
        <ele>154.9</ele>
        <time>2012-07-27T13:44:44.000Z</time>
      </trkpt>
      <trkpt lat="50.4128" lon="4.51001">
        <ele>154.6</ele>
        <time>2012-07-27T13:44:45.000Z</time>
      </trkpt>
      <trkpt lat="50.41273" lon="4.51013">
        <ele>155.1</ele>
        <time>2012-07-27T13:44:47.000Z</time>
      </trkpt>
      <trkpt lat="50.41267" lon="4.51026">
        <ele>155.4</ele>
        <time>2012-07-27T13:44:49.000Z</time>
      </trkpt>
      <trkpt lat="50.41265" lon="4.51033">
        <ele>154.7</ele>
        <time>2012-07-27T13:44:50.000Z</time>
      </trkpt>
      <trkpt lat="50.41263" lon="4.51039">
        <ele>154.4</ele>
        <time>2012-07-27T13:44:51.000Z</time>
      </trkpt>
      <trkpt lat="50.41258" lon="4.5105">
        <ele>154.5</ele>
        <time>2012-07-27T13:44:53.000Z</time>
      </trkpt>
      <trkpt lat="50.41254" lon="4.51062">
        <ele>154.2</ele>
        <time>2012-07-27T13:44:55.000Z</time>
      </trkpt>
      <trkpt lat="50.41251" lon="4.51068">
        <ele>153.9</ele>
        <time>2012-07-27T13:44:55.999Z</time>
      </trkpt>
      <trkpt lat="50.41245" lon="4.51079">
        <ele>154.5</ele>
        <time>2012-07-27T13:44:58.000Z</time>
      </trkpt>
      <trkpt lat="50.41242" lon="4.51085">
        <ele>154.6</ele>
        <time>2012-07-27T13:44:59.000Z</time>
      </trkpt>
      <trkpt lat="50.41239" lon="4.51091">
        <ele>154.1</ele>
        <time>2012-07-27T13:45:00.000Z</time>
      </trkpt>
      <trkpt lat="50.41236" lon="4.51096">
        <ele>153.7</ele>
        <time>2012-07-27T13:45:01.000Z</time>
      </trkpt>
      <trkpt lat="50.41233" lon="4.51102">
        <ele>152.8</ele>
        <time>2012-07-27T13:45:02.000Z</time>
      </trkpt>
      <trkpt lat="50.41228" lon="4.51113">
        <ele>152.9</ele>
        <time>2012-07-27T13:45:04.000Z</time>
      </trkpt>
      <trkpt lat="50.41225" lon="4.51119">
        <ele>152.3</ele>
        <time>2012-07-27T13:45:05.000Z</time>
      </trkpt>
      <trkpt lat="50.41221" lon="4.51124">
        <ele>152.6</ele>
        <time>2012-07-27T13:45:06.000Z</time>
      </trkpt>
      <trkpt lat="50.41215" lon="4.51135">
        <ele>152.3</ele>
        <time>2012-07-27T13:45:08.000Z</time>
      </trkpt>
      <trkpt lat="50.41211" lon="4.51142">
        <ele>151.4</ele>
        <time>2012-07-27T13:45:09.000Z</time>
      </trkpt>
      <trkpt lat="50.41206" lon="4.5115">
        <ele>151.1</ele>
        <time>2012-07-27T13:45:11.000Z</time>
      </trkpt>
      <trkpt lat="50.41201" lon="4.51154">
        <ele>151.2</ele>
        <time>2012-07-27T13:45:13.000Z</time>
      </trkpt>
      <trkpt lat="50.41198" lon="4.51158">
        <ele>151.5</ele>
        <time>2012-07-27T13:45:15.000Z</time>
      </trkpt>
      <trkpt lat="50.41195" lon="4.51168">
        <ele>150.9</ele>
        <time>2012-07-27T13:45:18.000Z</time>
      </trkpt>
      <trkpt lat="50.41191" lon="4.51173">
        <ele>150.5</ele>
        <time>2012-07-27T13:45:20.000Z</time>
      </trkpt>
      <trkpt lat="50.41186" lon="4.51179">
        <ele>150.3</ele>
        <time>2012-07-27T13:45:22.000Z</time>
      </trkpt>
      <trkpt lat="50.41181" lon="4.51185">
        <ele>150.2</ele>
        <time>2012-07-27T13:45:24.000Z</time>
      </trkpt>
      <trkpt lat="50.41175" lon="4.51191">
        <ele>150.1</ele>
        <time>2012-07-27T13:45:26.000Z</time>
      </trkpt>
      <trkpt lat="50.4117" lon="4.51199">
        <ele>150.8</ele>
        <time>2012-07-27T13:45:28.000Z</time>
      </trkpt>
      <trkpt lat="50.41166" lon="4.51203">
        <ele>149.9</ele>
        <time>2012-07-27T13:45:29.000Z</time>
      </trkpt>
      <trkpt lat="50.41162" lon="4.51207">
        <ele>149.9</ele>
        <time>2012-07-27T13:45:30.000Z</time>
      </trkpt>
      <trkpt lat="50.41158" lon="4.51212">
        <ele>150</ele>
        <time>2012-07-27T13:45:31.000Z</time>
      </trkpt>
      <trkpt lat="50.41154" lon="4.51217">
        <ele>150.1</ele>
        <time>2012-07-27T13:45:32.000Z</time>
      </trkpt>
      <trkpt lat="50.4115" lon="4.51221">
        <ele>150</ele>
        <time>2012-07-27T13:45:33.000Z</time>
      </trkpt>
      <trkpt lat="50.41145" lon="4.51224">
        <ele>150.1</ele>
        <time>2012-07-27T13:45:34.000Z</time>
      </trkpt>
      <trkpt lat="50.41141" lon="4.51227">
        <ele>150.1</ele>
        <time>2012-07-27T13:45:34.999Z</time>
      </trkpt>
      <trkpt lat="50.41134" lon="4.51235">
        <ele>151</ele>
        <time>2012-07-27T13:45:37.000Z</time>
      </trkpt>
      <trkpt lat="50.41129" lon="4.51238">
        <ele>151.2</ele>
        <time>2012-07-27T13:45:38.000Z</time>
      </trkpt>
      <trkpt lat="50.41124" lon="4.51241">
        <ele>151.2</ele>
        <time>2012-07-27T13:45:39.000Z</time>
      </trkpt>
      <trkpt lat="50.4112" lon="4.51243">
        <ele>150.4</ele>
        <time>2012-07-27T13:45:40.000Z</time>
      </trkpt>
      <trkpt lat="50.41115" lon="4.51246">
        <ele>150.6</ele>
        <time>2012-07-27T13:45:41.000Z</time>
      </trkpt>
      <trkpt lat="50.41109" lon="4.5125">
        <ele>149.9</ele>
        <time>2012-07-27T13:45:42.000Z</time>
      </trkpt>
      <trkpt lat="50.41104" lon="4.51251">
        <ele>150.3</ele>
        <time>2012-07-27T13:45:43.000Z</time>
      </trkpt>
      <trkpt lat="50.41099" lon="4.51253">
        <ele>150</ele>
        <time>2012-07-27T13:45:44.000Z</time>
      </trkpt>
      <trkpt lat="50.41093" lon="4.51254">
        <ele>150.3</ele>
        <time>2012-07-27T13:45:45.000Z</time>
      </trkpt>
      <trkpt lat="50.41088" lon="4.51257">
        <ele>150.8</ele>
        <time>2012-07-27T13:45:46.000Z</time>
      </trkpt>
      <trkpt lat="50.41083" lon="4.5126">
        <ele>150.9</ele>
        <time>2012-07-27T13:45:47.000Z</time>
      </trkpt>
      <trkpt lat="50.41079" lon="4.51262">
        <ele>151.6</ele>
        <time>2012-07-27T13:45:48.000Z</time>
      </trkpt>
      <trkpt lat="50.41074" lon="4.51265">
        <ele>151.8</ele>
        <time>2012-07-27T13:45:49.000Z</time>
      </trkpt>
      <trkpt lat="50.41068" lon="4.51268">
        <ele>151.5</ele>
        <time>2012-07-27T13:45:50.000Z</time>
      </trkpt>
      <trkpt lat="50.41057" lon="4.51271">
        <ele>150.7</ele>
        <time>2012-07-27T13:45:52.000Z</time>
      </trkpt>
      <trkpt lat="50.41052" lon="4.51275">
        <ele>150.6</ele>
        <time>2012-07-27T13:45:53.000Z</time>
      </trkpt>
      <trkpt lat="50.41047" lon="4.51277">
        <ele>149.6</ele>
        <time>2012-07-27T13:45:54.000Z</time>
      </trkpt>
      <trkpt lat="50.41038" lon="4.5128">
        <ele>149.8</ele>
        <time>2012-07-27T13:45:56.000Z</time>
      </trkpt>
      <trkpt lat="50.41033" lon="4.51281">
        <ele>151</ele>
        <time>2012-07-27T13:45:58.000Z</time>
      </trkpt>
      <trkpt lat="50.4103" lon="4.51287">
        <ele>150.2</ele>
        <time>2012-07-27T13:46:04.000Z</time>
      </trkpt>
      <trkpt lat="50.41024" lon="4.5129">
        <ele>151.1</ele>
        <time>2012-07-27T13:46:14.000Z</time>
      </trkpt>
      <trkpt lat="50.41022" lon="4.51297">
        <ele>150.9</ele>
        <time>2012-07-27T13:46:16.000Z</time>
      </trkpt>
      <trkpt lat="50.41021" lon="4.51306">
        <ele>149.5</ele>
        <time>2012-07-27T13:46:18.000Z</time>
      </trkpt>
      <trkpt lat="50.41018" lon="4.51314">
        <ele>149.9</ele>
        <time>2012-07-27T13:46:20.000Z</time>
      </trkpt>
      <trkpt lat="50.41016" lon="4.51323">
        <ele>148.9</ele>
        <time>2012-07-27T13:46:22.000Z</time>
      </trkpt>
      <trkpt lat="50.41015" lon="4.51335">
        <ele>148</ele>
        <time>2012-07-27T13:46:24.000Z</time>
      </trkpt>
      <trkpt lat="50.41013" lon="4.51348">
        <ele>146.5</ele>
        <time>2012-07-27T13:46:26.000Z</time>
      </trkpt>
      <trkpt lat="50.41012" lon="4.51354">
        <ele>146.7</ele>
        <time>2012-07-27T13:46:27.000Z</time>
      </trkpt>
      <trkpt lat="50.41011" lon="4.51362">
        <ele>146.7</ele>
        <time>2012-07-27T13:46:28.000Z</time>
      </trkpt>
      <trkpt lat="50.41009" lon="4.5137">
        <ele>146.7</ele>
        <time>2012-07-27T13:46:29.000Z</time>
      </trkpt>
      <trkpt lat="50.41007" lon="4.51377">
        <ele>146</ele>
        <time>2012-07-27T13:46:30.000Z</time>
      </trkpt>
      <trkpt lat="50.41005" lon="4.51386">
        <ele>146.2</ele>
        <time>2012-07-27T13:46:31.000Z</time>
      </trkpt>
      <trkpt lat="50.41004" lon="4.51395">
        <ele>146.6</ele>
        <time>2012-07-27T13:46:32.000Z</time>
      </trkpt>
      <trkpt lat="50.41003" lon="4.51405">
        <ele>146.9</ele>
        <time>2012-07-27T13:46:33.000Z</time>
      </trkpt>
      <trkpt lat="50.41002" lon="4.51415">
        <ele>146.5</ele>
        <time>2012-07-27T13:46:34.000Z</time>
      </trkpt>
      <trkpt lat="50.41001" lon="4.51423">
        <ele>146.5</ele>
        <time>2012-07-27T13:46:35.000Z</time>
      </trkpt>
      <trkpt lat="50.40998" lon="4.51432">
        <ele>146.1</ele>
        <time>2012-07-27T13:46:36.000Z</time>
      </trkpt>
      <trkpt lat="50.40997" lon="4.51441">
        <ele>146.2</ele>
        <time>2012-07-27T13:46:37.000Z</time>
      </trkpt>
      <trkpt lat="50.40996" lon="4.51449">
        <ele>146.6</ele>
        <time>2012-07-27T13:46:38.000Z</time>
      </trkpt>
      <trkpt lat="50.40994" lon="4.51459">
        <ele>146.5</ele>
        <time>2012-07-27T13:46:39.000Z</time>
      </trkpt>
      <trkpt lat="50.40992" lon="4.51467">
        <ele>146.6</ele>
        <time>2012-07-27T13:46:40.000Z</time>
      </trkpt>
      <trkpt lat="50.4099" lon="4.51477">
        <ele>146.3</ele>
        <time>2012-07-27T13:46:41.000Z</time>
      </trkpt>
      <trkpt lat="50.40988" lon="4.51486">
        <ele>146.5</ele>
        <time>2012-07-27T13:46:42.000Z</time>
      </trkpt>
      <trkpt lat="50.40986" lon="4.51495">
        <ele>145</ele>
        <time>2012-07-27T13:46:43.000Z</time>
      </trkpt>
      <trkpt lat="50.40984" lon="4.51503">
        <ele>145</ele>
        <time>2012-07-27T13:46:44.000Z</time>
      </trkpt>
      <trkpt lat="50.40983" lon="4.51512">
        <ele>143.9</ele>
        <time>2012-07-27T13:46:45.000Z</time>
      </trkpt>
      <trkpt lat="50.40981" lon="4.51521">
        <ele>143.5</ele>
        <time>2012-07-27T13:46:46.000Z</time>
      </trkpt>
      <trkpt lat="50.40979" lon="4.5153">
        <ele>143.1</ele>
        <time>2012-07-27T13:46:47.000Z</time>
      </trkpt>
      <trkpt lat="50.40978" lon="4.51538">
        <ele>143.5</ele>
        <time>2012-07-27T13:46:48.000Z</time>
      </trkpt>
      <trkpt lat="50.40975" lon="4.51546">
        <ele>144.2</ele>
        <time>2012-07-27T13:46:49.000Z</time>
      </trkpt>
      <trkpt lat="50.40972" lon="4.51552">
        <ele>144.9</ele>
        <time>2012-07-27T13:46:50.000Z</time>
      </trkpt>
      <trkpt lat="50.40966" lon="4.5156">
        <ele>144.1</ele>
        <time>2012-07-27T13:46:51.000Z</time>
      </trkpt>
      <trkpt lat="50.40962" lon="4.51568">
        <ele>144.7</ele>
        <time>2012-07-27T13:46:52.000Z</time>
      </trkpt>
      <trkpt lat="50.40961" lon="4.51578">
        <ele>146.3</ele>
        <time>2012-07-27T13:46:53.000Z</time>
      </trkpt>
      <trkpt lat="50.40959" lon="4.51588">
        <ele>146.7</ele>
        <time>2012-07-27T13:46:54.000Z</time>
      </trkpt>
      <trkpt lat="50.40956" lon="4.51598">
        <ele>146.3</ele>
        <time>2012-07-27T13:46:55.000Z</time>
      </trkpt>
      <trkpt lat="50.40954" lon="4.51607">
        <ele>145.9</ele>
        <time>2012-07-27T13:46:56.000Z</time>
      </trkpt>
      <trkpt lat="50.40951" lon="4.51615">
        <ele>145.7</ele>
        <time>2012-07-27T13:46:57.000Z</time>
      </trkpt>
      <trkpt lat="50.40948" lon="4.51621">
        <ele>145.5</ele>
        <time>2012-07-27T13:46:58.000Z</time>
      </trkpt>
      <trkpt lat="50.40945" lon="4.5163">
        <ele>145.4</ele>
        <time>2012-07-27T13:46:59.000Z</time>
      </trkpt>
      <trkpt lat="50.40942" lon="4.51636">
        <ele>145.8</ele>
        <time>2012-07-27T13:47:00.000Z</time>
      </trkpt>
      <trkpt lat="50.40939" lon="4.51643">
        <ele>147</ele>
        <time>2012-07-27T13:47:01.000Z</time>
      </trkpt>
      <trkpt lat="50.40935" lon="4.51651">
        <ele>146.9</ele>
        <time>2012-07-27T13:47:02.000Z</time>
      </trkpt>
      <trkpt lat="50.40931" lon="4.51658">
        <ele>146.5</ele>
        <time>2012-07-27T13:47:03.000Z</time>
      </trkpt>
      <trkpt lat="50.40927" lon="4.51664">
        <ele>146.5</ele>
        <time>2012-07-27T13:47:04.000Z</time>
      </trkpt>
      <trkpt lat="50.40923" lon="4.5167">
        <ele>146.6</ele>
        <time>2012-07-27T13:47:05.000Z</time>
      </trkpt>
      <trkpt lat="50.4092" lon="4.51677">
        <ele>146.9</ele>
        <time>2012-07-27T13:47:06.000Z</time>
      </trkpt>
      <trkpt lat="50.40917" lon="4.51684">
        <ele>147.4</ele>
        <time>2012-07-27T13:47:07.000Z</time>
      </trkpt>
      <trkpt lat="50.40912" lon="4.5169">
        <ele>148.4</ele>
        <time>2012-07-27T13:47:08.000Z</time>
      </trkpt>
      <trkpt lat="50.40907" lon="4.51695">
        <ele>148.5</ele>
        <time>2012-07-27T13:47:09.000Z</time>
      </trkpt>
      <trkpt lat="50.40903" lon="4.517">
        <ele>148.5</ele>
        <time>2012-07-27T13:47:10.000Z</time>
      </trkpt>
      <trkpt lat="50.40898" lon="4.51705">
        <ele>149.8</ele>
        <time>2012-07-27T13:47:11.000Z</time>
      </trkpt>
      <trkpt lat="50.40893" lon="4.5171">
        <ele>149.5</ele>
        <time>2012-07-27T13:47:12.000Z</time>
      </trkpt>
      <trkpt lat="50.40888" lon="4.51715">
        <ele>149.1</ele>
        <time>2012-07-27T13:47:13.000Z</time>
      </trkpt>
      <trkpt lat="50.40884" lon="4.5172">
        <ele>149.8</ele>
        <time>2012-07-27T13:47:14.000Z</time>
      </trkpt>
      <trkpt lat="50.4088" lon="4.51725">
        <ele>150.2</ele>
        <time>2012-07-27T13:47:15.000Z</time>
      </trkpt>
      <trkpt lat="50.40875" lon="4.5173">
        <ele>150.5</ele>
        <time>2012-07-27T13:47:16.000Z</time>
      </trkpt>
      <trkpt lat="50.4087" lon="4.51734">
        <ele>150.1</ele>
        <time>2012-07-27T13:47:17.000Z</time>
      </trkpt>
      <trkpt lat="50.40862" lon="4.51743">
        <ele>151.3</ele>
        <time>2012-07-27T13:47:19.000Z</time>
      </trkpt>
      <trkpt lat="50.40858" lon="4.51748">
        <ele>152.4</ele>
        <time>2012-07-27T13:47:20.000Z</time>
      </trkpt>
      <trkpt lat="50.40854" lon="4.51753">
        <ele>152.5</ele>
        <time>2012-07-27T13:47:21.000Z</time>
      </trkpt>
      <trkpt lat="50.40851" lon="4.51758">
        <ele>152.2</ele>
        <time>2012-07-27T13:47:22.000Z</time>
      </trkpt>
      <trkpt lat="50.40847" lon="4.51762">
        <ele>152.8</ele>
        <time>2012-07-27T13:47:23.000Z</time>
      </trkpt>
      <trkpt lat="50.40843" lon="4.51767">
        <ele>152.8</ele>
        <time>2012-07-27T13:47:24.000Z</time>
      </trkpt>
      <trkpt lat="50.40839" lon="4.51771">
        <ele>152.3</ele>
        <time>2012-07-27T13:47:25.000Z</time>
      </trkpt>
      <trkpt lat="50.40834" lon="4.51777">
        <ele>152.5</ele>
        <time>2012-07-27T13:47:26.000Z</time>
      </trkpt>
      <trkpt lat="50.40829" lon="4.51782">
        <ele>152.4</ele>
        <time>2012-07-27T13:47:27.000Z</time>
      </trkpt>
      <trkpt lat="50.40824" lon="4.51786">
        <ele>152</ele>
        <time>2012-07-27T13:47:28.000Z</time>
      </trkpt>
      <trkpt lat="50.40818" lon="4.51791">
        <ele>151.4</ele>
        <time>2012-07-27T13:47:29.000Z</time>
      </trkpt>
      <trkpt lat="50.40814" lon="4.51795">
        <ele>151.4</ele>
        <time>2012-07-27T13:47:30.000Z</time>
      </trkpt>
      <trkpt lat="50.4081" lon="4.51799">
        <ele>151.6</ele>
        <time>2012-07-27T13:47:31.000Z</time>
      </trkpt>
      <trkpt lat="50.40806" lon="4.51803">
        <ele>151.9</ele>
        <time>2012-07-27T13:47:32.000Z</time>
      </trkpt>
      <trkpt lat="50.40801" lon="4.51809">
        <ele>152</ele>
        <time>2012-07-27T13:47:33.000Z</time>
      </trkpt>
      <trkpt lat="50.40796" lon="4.51814">
        <ele>151.9</ele>
        <time>2012-07-27T13:47:34.000Z</time>
      </trkpt>
      <trkpt lat="50.40792" lon="4.51819">
        <ele>151.7</ele>
        <time>2012-07-27T13:47:35.000Z</time>
      </trkpt>
      <trkpt lat="50.40787" lon="4.51824">
        <ele>151.5</ele>
        <time>2012-07-27T13:47:36.000Z</time>
      </trkpt>
      <trkpt lat="50.40782" lon="4.51828">
        <ele>151</ele>
        <time>2012-07-27T13:47:37.000Z</time>
      </trkpt>
      <trkpt lat="50.40777" lon="4.51833">
        <ele>151.3</ele>
        <time>2012-07-27T13:47:38.000Z</time>
      </trkpt>
      <trkpt lat="50.40772" lon="4.51838">
        <ele>151.5</ele>
        <time>2012-07-27T13:47:39.000Z</time>
      </trkpt>
      <trkpt lat="50.40767" lon="4.51842">
        <ele>151</ele>
        <time>2012-07-27T13:47:40.000Z</time>
      </trkpt>
      <trkpt lat="50.40762" lon="4.51846">
        <ele>151.1</ele>
        <time>2012-07-27T13:47:41.000Z</time>
      </trkpt>
      <trkpt lat="50.40758" lon="4.5185">
        <ele>151.1</ele>
        <time>2012-07-27T13:47:42.000Z</time>
      </trkpt>
      <trkpt lat="50.40754" lon="4.51855">
        <ele>151.6</ele>
        <time>2012-07-27T13:47:43.000Z</time>
      </trkpt>
      <trkpt lat="50.40746" lon="4.51864">
        <ele>152.5</ele>
        <time>2012-07-27T13:47:45.000Z</time>
      </trkpt>
      <trkpt lat="50.40741" lon="4.51868">
        <ele>151.9</ele>
        <time>2012-07-27T13:47:46.000Z</time>
      </trkpt>
      <trkpt lat="50.40737" lon="4.51873">
        <ele>151.6</ele>
        <time>2012-07-27T13:47:47.000Z</time>
      </trkpt>
      <trkpt lat="50.40732" lon="4.51878">
        <ele>151.3</ele>
        <time>2012-07-27T13:47:48.000Z</time>
      </trkpt>
      <trkpt lat="50.40728" lon="4.51883">
        <ele>151.8</ele>
        <time>2012-07-27T13:47:49.000Z</time>
      </trkpt>
      <trkpt lat="50.40722" lon="4.51888">
        <ele>151.8</ele>
        <time>2012-07-27T13:47:50.000Z</time>
      </trkpt>
      <trkpt lat="50.40718" lon="4.51894">
        <ele>151.4</ele>
        <time>2012-07-27T13:47:51.000Z</time>
      </trkpt>
      <trkpt lat="50.40713" lon="4.51899">
        <ele>151.8</ele>
        <time>2012-07-27T13:47:52.000Z</time>
      </trkpt>
      <trkpt lat="50.40708" lon="4.51905">
        <ele>152.5</ele>
        <time>2012-07-27T13:47:53.000Z</time>
      </trkpt>
      <trkpt lat="50.40703" lon="4.51911">
        <ele>152.5</ele>
        <time>2012-07-27T13:47:54.000Z</time>
      </trkpt>
      <trkpt lat="50.40698" lon="4.51917">
        <ele>152.4</ele>
        <time>2012-07-27T13:47:55.000Z</time>
      </trkpt>
      <trkpt lat="50.40693" lon="4.51923">
        <ele>153.3</ele>
        <time>2012-07-27T13:47:56.000Z</time>
      </trkpt>
      <trkpt lat="50.40688" lon="4.51928">
        <ele>153.3</ele>
        <time>2012-07-27T13:47:57.000Z</time>
      </trkpt>
      <trkpt lat="50.40684" lon="4.51933">
        <ele>153.2</ele>
        <time>2012-07-27T13:47:58.000Z</time>
      </trkpt>
      <trkpt lat="50.4068" lon="4.51938">
        <ele>153.2</ele>
        <time>2012-07-27T13:47:59.000Z</time>
      </trkpt>
      <trkpt lat="50.40675" lon="4.51941">
        <ele>152.7</ele>
        <time>2012-07-27T13:48:00.000Z</time>
      </trkpt>
      <trkpt lat="50.4067" lon="4.51944">
        <ele>152.4</ele>
        <time>2012-07-27T13:48:01.000Z</time>
      </trkpt>
      <trkpt lat="50.40665" lon="4.51942">
        <ele>152.5</ele>
        <time>2012-07-27T13:48:02.000Z</time>
      </trkpt>
      <trkpt lat="50.40661" lon="4.51937">
        <ele>152.5</ele>
        <time>2012-07-27T13:48:03.000Z</time>
      </trkpt>
      <trkpt lat="50.40656" lon="4.51931">
        <ele>153</ele>
        <time>2012-07-27T13:48:04.000Z</time>
      </trkpt>
      <trkpt lat="50.40653" lon="4.51923">
        <ele>152.8</ele>
        <time>2012-07-27T13:48:05.000Z</time>
      </trkpt>
      <trkpt lat="50.4065" lon="4.51914">
        <ele>152.2</ele>
        <time>2012-07-27T13:48:06.000Z</time>
      </trkpt>
      <trkpt lat="50.40648" lon="4.51905">
        <ele>152.8</ele>
        <time>2012-07-27T13:48:07.000Z</time>
      </trkpt>
      <trkpt lat="50.40646" lon="4.51896">
        <ele>153.1</ele>
        <time>2012-07-27T13:48:08.000Z</time>
      </trkpt>
      <trkpt lat="50.40642" lon="4.51886">
        <ele>152.7</ele>
        <time>2012-07-27T13:48:09.000Z</time>
      </trkpt>
      <trkpt lat="50.40638" lon="4.51875">
        <ele>152.7</ele>
        <time>2012-07-27T13:48:10.000Z</time>
      </trkpt>
      <trkpt lat="50.40634" lon="4.51866">
        <ele>152.9</ele>
        <time>2012-07-27T13:48:11.000Z</time>
      </trkpt>
      <trkpt lat="50.40631" lon="4.51854">
        <ele>152.7</ele>
        <time>2012-07-27T13:48:12.000Z</time>
      </trkpt>
      <trkpt lat="50.40629" lon="4.51847">
        <ele>152.6</ele>
        <time>2012-07-27T13:48:13.000Z</time>
      </trkpt>
      <trkpt lat="50.40625" lon="4.51837">
        <ele>152.7</ele>
        <time>2012-07-27T13:48:14.000Z</time>
      </trkpt>
      <trkpt lat="50.40621" lon="4.51829">
        <ele>153.1</ele>
        <time>2012-07-27T13:48:15.000Z</time>
      </trkpt>
      <trkpt lat="50.40616" lon="4.51819">
        <ele>153.3</ele>
        <time>2012-07-27T13:48:16.000Z</time>
      </trkpt>
      <trkpt lat="50.40612" lon="4.5181">
        <ele>153.2</ele>
        <time>2012-07-27T13:48:17.000Z</time>
      </trkpt>
      <trkpt lat="50.40606" lon="4.518">
        <ele>153.6</ele>
        <time>2012-07-27T13:48:18.000Z</time>
      </trkpt>
      <trkpt lat="50.40599" lon="4.51792">
        <ele>153.6</ele>
        <time>2012-07-27T13:48:19.000Z</time>
      </trkpt>
      <trkpt lat="50.40595" lon="4.51785">
        <ele>152.9</ele>
        <time>2012-07-27T13:48:20.000Z</time>
      </trkpt>
      <trkpt lat="50.4059" lon="4.51777">
        <ele>153.3</ele>
        <time>2012-07-27T13:48:21.000Z</time>
      </trkpt>
      <trkpt lat="50.40584" lon="4.51769">
        <ele>152.9</ele>
        <time>2012-07-27T13:48:22.000Z</time>
      </trkpt>
      <trkpt lat="50.40577" lon="4.51763">
        <ele>152.2</ele>
        <time>2012-07-27T13:48:23.000Z</time>
      </trkpt>
      <trkpt lat="50.4057" lon="4.51758">
        <ele>151.3</ele>
        <time>2012-07-27T13:48:24.000Z</time>
      </trkpt>
      <trkpt lat="50.40562" lon="4.51754">
        <ele>151.3</ele>
        <time>2012-07-27T13:48:25.000Z</time>
      </trkpt>
      <trkpt lat="50.40555" lon="4.5175">
        <ele>150.7</ele>
        <time>2012-07-27T13:48:26.000Z</time>
      </trkpt>
      <trkpt lat="50.40548" lon="4.51747">
        <ele>150.3</ele>
        <time>2012-07-27T13:48:27.000Z</time>
      </trkpt>
      <trkpt lat="50.40541" lon="4.51744">
        <ele>150.7</ele>
        <time>2012-07-27T13:48:28.000Z</time>
      </trkpt>
      <trkpt lat="50.40533" lon="4.51742">
        <ele>150.9</ele>
        <time>2012-07-27T13:48:29.000Z</time>
      </trkpt>
      <trkpt lat="50.40526" lon="4.5174">
        <ele>150.8</ele>
        <time>2012-07-27T13:48:30.000Z</time>
      </trkpt>
      <trkpt lat="50.40518" lon="4.5174">
        <ele>150.7</ele>
        <time>2012-07-27T13:48:31.000Z</time>
      </trkpt>
      <trkpt lat="50.40511" lon="4.51739">
        <ele>150.4</ele>
        <time>2012-07-27T13:48:32.000Z</time>
      </trkpt>
      <trkpt lat="50.40504" lon="4.5174">
        <ele>150.6</ele>
        <time>2012-07-27T13:48:33.000Z</time>
      </trkpt>
      <trkpt lat="50.40497" lon="4.51743">
        <ele>151</ele>
        <time>2012-07-27T13:48:34.000Z</time>
      </trkpt>
      <trkpt lat="50.40491" lon="4.51745">
        <ele>150.7</ele>
        <time>2012-07-27T13:48:35.000Z</time>
      </trkpt>
      <trkpt lat="50.40485" lon="4.51748">
        <ele>149.7</ele>
        <time>2012-07-27T13:48:36.000Z</time>
      </trkpt>
      <trkpt lat="50.4048" lon="4.51751">
        <ele>149.9</ele>
        <time>2012-07-27T13:48:37.000Z</time>
      </trkpt>
      <trkpt lat="50.40475" lon="4.51753">
        <ele>149.9</ele>
        <time>2012-07-27T13:48:38.000Z</time>
      </trkpt>
      <trkpt lat="50.4047" lon="4.51754">
        <ele>149.5</ele>
        <time>2012-07-27T13:48:39.000Z</time>
      </trkpt>
      <trkpt lat="50.40466" lon="4.51757">
        <ele>149.5</ele>
        <time>2012-07-27T13:48:39.999Z</time>
      </trkpt>
      <trkpt lat="50.40461" lon="4.51761">
        <ele>150.1</ele>
        <time>2012-07-27T13:48:41.000Z</time>
      </trkpt>
      <trkpt lat="50.40455" lon="4.51762">
        <ele>150.3</ele>
        <time>2012-07-27T13:48:42.000Z</time>
      </trkpt>
      <trkpt lat="50.4045" lon="4.51765">
        <ele>149.5</ele>
        <time>2012-07-27T13:48:43.000Z</time>
      </trkpt>
      <trkpt lat="50.40441" lon="4.51771">
        <ele>148.6</ele>
        <time>2012-07-27T13:48:45.000Z</time>
      </trkpt>
      <trkpt lat="50.40433" lon="4.51775">
        <ele>147.6</ele>
        <time>2012-07-27T13:48:47.000Z</time>
      </trkpt>
      <trkpt lat="50.40433" lon="4.51782">
        <ele>146</ele>
        <time>2012-07-27T13:48:48.000Z</time>
      </trkpt>
      <trkpt lat="50.40428" lon="4.51788">
        <ele>145.3</ele>
        <time>2012-07-27T13:48:51.000Z</time>
      </trkpt>
      <trkpt lat="50.40421" lon="4.51793">
        <ele>145.3</ele>
        <time>2012-07-27T13:48:53.000Z</time>
      </trkpt>
      <trkpt lat="50.40416" lon="4.51795">
        <ele>145.8</ele>
        <time>2012-07-27T13:48:54.000Z</time>
      </trkpt>
      <trkpt lat="50.40408" lon="4.51803">
        <ele>146.1</ele>
        <time>2012-07-27T13:48:56.000Z</time>
      </trkpt>
      <trkpt lat="50.40403" lon="4.51807">
        <ele>145.5</ele>
        <time>2012-07-27T13:48:57.000Z</time>
      </trkpt>
      <trkpt lat="50.40404" lon="4.51814">
        <ele>146</ele>
        <time>2012-07-27T13:48:58.000Z</time>
      </trkpt>
      <trkpt lat="50.40395" lon="4.51822">
        <ele>146.8</ele>
        <time>2012-07-27T13:49:00.000Z</time>
      </trkpt>
      <trkpt lat="50.4039" lon="4.51826">
        <ele>147.5</ele>
        <time>2012-07-27T13:49:01.000Z</time>
      </trkpt>
      <trkpt lat="50.40384" lon="4.5183">
        <ele>147.5</ele>
        <time>2012-07-27T13:49:02.000Z</time>
      </trkpt>
      <trkpt lat="50.40378" lon="4.51835">
        <ele>147.4</ele>
        <time>2012-07-27T13:49:03.000Z</time>
      </trkpt>
      <trkpt lat="50.40372" lon="4.51839">
        <ele>147.9</ele>
        <time>2012-07-27T13:49:04.000Z</time>
      </trkpt>
      <trkpt lat="50.40368" lon="4.51841">
        <ele>146.9</ele>
        <time>2012-07-27T13:49:05.000Z</time>
      </trkpt>
      <trkpt lat="50.40361" lon="4.51842">
        <ele>144</ele>
        <time>2012-07-27T13:49:06.000Z</time>
      </trkpt>
      <trkpt lat="50.40355" lon="4.51847">
        <ele>144.4</ele>
        <time>2012-07-27T13:49:08.000Z</time>
      </trkpt>
      <trkpt lat="50.40351" lon="4.51851">
        <ele>145.9</ele>
        <time>2012-07-27T13:49:10.000Z</time>
      </trkpt>
      <trkpt lat="50.40346" lon="4.51855">
        <ele>145.9</ele>
        <time>2012-07-27T13:49:12.000Z</time>
      </trkpt>
      <trkpt lat="50.40343" lon="4.51862">
        <ele>148.6</ele>
        <time>2012-07-27T13:49:23.000Z</time>
      </trkpt>
      <trkpt lat="50.40338" lon="4.51867">
        <ele>149.5</ele>
        <time>2012-07-27T13:49:26.000Z</time>
      </trkpt>
      <trkpt lat="50.40333" lon="4.51873">
        <ele>150.6</ele>
        <time>2012-07-27T13:49:28.000Z</time>
      </trkpt>
      <trkpt lat="50.40326" lon="4.5188">
        <ele>151.5</ele>
        <time>2012-07-27T13:49:30.000Z</time>
      </trkpt>
      <trkpt lat="50.40319" lon="4.51888">
        <ele>151.1</ele>
        <time>2012-07-27T13:49:32.000Z</time>
      </trkpt>
      <trkpt lat="50.40315" lon="4.51892">
        <ele>150.7</ele>
        <time>2012-07-27T13:49:33.000Z</time>
      </trkpt>
      <trkpt lat="50.4031" lon="4.51896">
        <ele>150.5</ele>
        <time>2012-07-27T13:49:34.000Z</time>
      </trkpt>
      <trkpt lat="50.40306" lon="4.519">
        <ele>150.8</ele>
        <time>2012-07-27T13:49:35.000Z</time>
      </trkpt>
      <trkpt lat="50.40301" lon="4.51904">
        <ele>150.6</ele>
        <time>2012-07-27T13:49:36.000Z</time>
      </trkpt>
      <trkpt lat="50.40297" lon="4.51908">
        <ele>151.5</ele>
        <time>2012-07-27T13:49:37.000Z</time>
      </trkpt>
      <trkpt lat="50.40292" lon="4.51913">
        <ele>151.8</ele>
        <time>2012-07-27T13:49:38.000Z</time>
      </trkpt>
      <trkpt lat="50.40287" lon="4.51917">
        <ele>151.7</ele>
        <time>2012-07-27T13:49:39.000Z</time>
      </trkpt>
      <trkpt lat="50.40282" lon="4.51921">
        <ele>151.7</ele>
        <time>2012-07-27T13:49:40.000Z</time>
      </trkpt>
      <trkpt lat="50.40277" lon="4.51925">
        <ele>152.2</ele>
        <time>2012-07-27T13:49:41.000Z</time>
      </trkpt>
      <trkpt lat="50.40272" lon="4.5193">
        <ele>151.9</ele>
        <time>2012-07-27T13:49:42.000Z</time>
      </trkpt>
      <trkpt lat="50.40267" lon="4.51934">
        <ele>151.8</ele>
        <time>2012-07-27T13:49:43.000Z</time>
      </trkpt>
      <trkpt lat="50.40262" lon="4.51938">
        <ele>151.8</ele>
        <time>2012-07-27T13:49:44.000Z</time>
      </trkpt>
      <trkpt lat="50.4026" lon="4.51944">
        <ele>152.4</ele>
        <time>2012-07-27T13:49:46.000Z</time>
      </trkpt>
      <trkpt lat="50.40251" lon="4.51948">
        <ele>152.3</ele>
        <time>2012-07-27T13:49:47.000Z</time>
      </trkpt>
      <trkpt lat="50.40246" lon="4.51952">
        <ele>152.4</ele>
        <time>2012-07-27T13:49:47.999Z</time>
      </trkpt>
      <trkpt lat="50.40241" lon="4.51958">
        <ele>152.8</ele>
        <time>2012-07-27T13:49:49.000Z</time>
      </trkpt>
      <trkpt lat="50.40237" lon="4.51963">
        <ele>153.5</ele>
        <time>2012-07-27T13:49:50.000Z</time>
      </trkpt>
      <trkpt lat="50.4023" lon="4.5197">
        <ele>157.4</ele>
        <time>2012-07-27T13:49:52.000Z</time>
      </trkpt>
      <trkpt lat="50.40226" lon="4.51976">
        <ele>156.4</ele>
        <time>2012-07-27T13:49:53.000Z</time>
      </trkpt>
      <trkpt lat="50.4022" lon="4.51981">
        <ele>156.9</ele>
        <time>2012-07-27T13:49:54.000Z</time>
      </trkpt>
      <trkpt lat="50.40216" lon="4.51987">
        <ele>156.8</ele>
        <time>2012-07-27T13:49:55.000Z</time>
      </trkpt>
      <trkpt lat="50.40211" lon="4.51991">
        <ele>157.1</ele>
        <time>2012-07-27T13:49:56.000Z</time>
      </trkpt>
      <trkpt lat="50.40205" lon="4.51994">
        <ele>157.4</ele>
        <time>2012-07-27T13:49:57.000Z</time>
      </trkpt>
      <trkpt lat="50.402" lon="4.51998">
        <ele>157.4</ele>
        <time>2012-07-27T13:49:57.996Z</time>
      </trkpt>
      <trkpt lat="50.40194" lon="4.52005">
        <ele>156.5</ele>
        <time>2012-07-27T13:49:59.000Z</time>
      </trkpt>
      <trkpt lat="50.40188" lon="4.52013">
        <ele>157.2</ele>
        <time>2012-07-27T13:50:01.000Z</time>
      </trkpt>
      <trkpt lat="50.40184" lon="4.52018">
        <ele>157.4</ele>
        <time>2012-07-27T13:50:02.000Z</time>
      </trkpt>
      <trkpt lat="50.40179" lon="4.52023">
        <ele>157.7</ele>
        <time>2012-07-27T13:50:02.998Z</time>
      </trkpt>
      <trkpt lat="50.40174" lon="4.52028">
        <ele>158</ele>
        <time>2012-07-27T13:50:04.000Z</time>
      </trkpt>
      <trkpt lat="50.4017" lon="4.52032">
        <ele>158.1</ele>
        <time>2012-07-27T13:50:05.001Z</time>
      </trkpt>
      <trkpt lat="50.40166" lon="4.52037">
        <ele>158.3</ele>
        <time>2012-07-27T13:50:06.000Z</time>
      </trkpt>
      <trkpt lat="50.40159" lon="4.52041">
        <ele>158.3</ele>
        <time>2012-07-27T13:50:07.000Z</time>
      </trkpt>
      <trkpt lat="50.40153" lon="4.52045">
        <ele>158.2</ele>
        <time>2012-07-27T13:50:08.000Z</time>
      </trkpt>
      <trkpt lat="50.40148" lon="4.52049">
        <ele>158.1</ele>
        <time>2012-07-27T13:50:08.999Z</time>
      </trkpt>
      <trkpt lat="50.40143" lon="4.52054">
        <ele>158.5</ele>
        <time>2012-07-27T13:50:10.000Z</time>
      </trkpt>
      <trkpt lat="50.40136" lon="4.52059">
        <ele>158.6</ele>
        <time>2012-07-27T13:50:11.000Z</time>
      </trkpt>
      <trkpt lat="50.40131" lon="4.52063">
        <ele>158.5</ele>
        <time>2012-07-27T13:50:12.000Z</time>
      </trkpt>
      <trkpt lat="50.40127" lon="4.52066">
        <ele>158.4</ele>
        <time>2012-07-27T13:50:13.000Z</time>
      </trkpt>
      <trkpt lat="50.40131" lon="4.52071">
        <ele>160.2</ele>
        <time>2012-07-27T13:50:14.000Z</time>
      </trkpt>
      <trkpt lat="50.40126" lon="4.52075">
        <ele>159.3</ele>
        <time>2012-07-27T13:50:15.000Z</time>
      </trkpt>
      <trkpt lat="50.40124" lon="4.52082">
        <ele>158.1</ele>
        <time>2012-07-27T13:50:16.000Z</time>
      </trkpt>
      <trkpt lat="50.40117" lon="4.52088">
        <ele>157.7</ele>
        <time>2012-07-27T13:50:18.000Z</time>
      </trkpt>
      <trkpt lat="50.40106" lon="4.52093">
        <ele>158.2</ele>
        <time>2012-07-27T13:50:19.000Z</time>
      </trkpt>
      <trkpt lat="50.40101" lon="4.52098">
        <ele>158.5</ele>
        <time>2012-07-27T13:50:20.000Z</time>
      </trkpt>
      <trkpt lat="50.40094" lon="4.52103">
        <ele>159.1</ele>
        <time>2012-07-27T13:50:21.000Z</time>
      </trkpt>
      <trkpt lat="50.40081" lon="4.52104">
        <ele>155.6</ele>
        <time>2012-07-27T13:50:22.000Z</time>
      </trkpt>
      <trkpt lat="50.40076" lon="4.52109">
        <ele>155.4</ele>
        <time>2012-07-27T13:50:23.000Z</time>
      </trkpt>
      <trkpt lat="50.40072" lon="4.52116">
        <ele>154.2</ele>
        <time>2012-07-27T13:50:24.000Z</time>
      </trkpt>
      <trkpt lat="50.40066" lon="4.52121">
        <ele>153.4</ele>
        <time>2012-07-27T13:50:25.000Z</time>
      </trkpt>
      <trkpt lat="50.40061" lon="4.52124">
        <ele>153.6</ele>
        <time>2012-07-27T13:50:26.000Z</time>
      </trkpt>
      <trkpt lat="50.40058" lon="4.52136">
        <ele>152</ele>
        <time>2012-07-27T13:50:28.000Z</time>
      </trkpt>
      <trkpt lat="50.40051" lon="4.52141">
        <ele>151.9</ele>
        <time>2012-07-27T13:50:29.000Z</time>
      </trkpt>
      <trkpt lat="50.40048" lon="4.52146">
        <ele>151.3</ele>
        <time>2012-07-27T13:50:30.000Z</time>
      </trkpt>
      <trkpt lat="50.40044" lon="4.52152">
        <ele>152.2</ele>
        <time>2012-07-27T13:50:31.000Z</time>
      </trkpt>
      <trkpt lat="50.40039" lon="4.52157">
        <ele>152.5</ele>
        <time>2012-07-27T13:50:32.000Z</time>
      </trkpt>
      <trkpt lat="50.40035" lon="4.52162">
        <ele>152.7</ele>
        <time>2012-07-27T13:50:32.999Z</time>
      </trkpt>
      <trkpt lat="50.40031" lon="4.52166">
        <ele>154.8</ele>
        <time>2012-07-27T13:50:34.000Z</time>
      </trkpt>
      <trkpt lat="50.40026" lon="4.52173">
        <ele>155.6</ele>
        <time>2012-07-27T13:50:35.000Z</time>
      </trkpt>
      <trkpt lat="50.40022" lon="4.52177">
        <ele>156.7</ele>
        <time>2012-07-27T13:50:36.000Z</time>
      </trkpt>
      <trkpt lat="50.40019" lon="4.52183">
        <ele>157.6</ele>
        <time>2012-07-27T13:50:37.000Z</time>
      </trkpt>
      <trkpt lat="50.40011" lon="4.52187">
        <ele>157</ele>
        <time>2012-07-27T13:50:38.000Z</time>
      </trkpt>
      <trkpt lat="50.40006" lon="4.52192">
        <ele>156.9</ele>
        <time>2012-07-27T13:50:39.000Z</time>
      </trkpt>
      <trkpt lat="50.40002" lon="4.52196">
        <ele>157</ele>
        <time>2012-07-27T13:50:40.000Z</time>
      </trkpt>
      <trkpt lat="50.39997" lon="4.52199">
        <ele>157.1</ele>
        <time>2012-07-27T13:50:41.000Z</time>
      </trkpt>
      <trkpt lat="50.39993" lon="4.52202">
        <ele>157.5</ele>
        <time>2012-07-27T13:50:42.000Z</time>
      </trkpt>
      <trkpt lat="50.39989" lon="4.52208">
        <ele>154.4</ele>
        <time>2012-07-27T13:50:44.000Z</time>
      </trkpt>
      <trkpt lat="50.39987" lon="4.52215">
        <ele>156</ele>
        <time>2012-07-27T13:50:45.000Z</time>
      </trkpt>
      <trkpt lat="50.39984" lon="4.52222">
        <ele>157.3</ele>
        <time>2012-07-27T13:50:46.000Z</time>
      </trkpt>
      <trkpt lat="50.39979" lon="4.52226">
        <ele>156.7</ele>
        <time>2012-07-27T13:50:49.000Z</time>
      </trkpt>
      <trkpt lat="50.39972" lon="4.5223">
        <ele>155.9</ele>
        <time>2012-07-27T13:50:51.000Z</time>
      </trkpt>
      <trkpt lat="50.39967" lon="4.52232">
        <ele>155.9</ele>
        <time>2012-07-27T13:50:52.000Z</time>
      </trkpt>
      <trkpt lat="50.3996" lon="4.5223">
        <ele>153.7</ele>
        <time>2012-07-27T13:50:54.000Z</time>
      </trkpt>
      <trkpt lat="50.39956" lon="4.52228">
        <ele>153.1</ele>
        <time>2012-07-27T13:50:55.000Z</time>
      </trkpt>
      <trkpt lat="50.39951" lon="4.52224">
        <ele>152.5</ele>
        <time>2012-07-27T13:50:56.000Z</time>
      </trkpt>
      <trkpt lat="50.39947" lon="4.52218">
        <ele>152.4</ele>
        <time>2012-07-27T13:50:57.000Z</time>
      </trkpt>
      <trkpt lat="50.39942" lon="4.52213">
        <ele>153</ele>
        <time>2012-07-27T13:50:58.000Z</time>
      </trkpt>
      <trkpt lat="50.39935" lon="4.52208">
        <ele>153.1</ele>
        <time>2012-07-27T13:50:59.000Z</time>
      </trkpt>
      <trkpt lat="50.39929" lon="4.52206">
        <ele>153.9</ele>
        <time>2012-07-27T13:51:00.000Z</time>
      </trkpt>
      <trkpt lat="50.39923" lon="4.52206">
        <ele>153.7</ele>
        <time>2012-07-27T13:51:01.000Z</time>
      </trkpt>
      <trkpt lat="50.39917" lon="4.52209">
        <ele>153.6</ele>
        <time>2012-07-27T13:51:02.000Z</time>
      </trkpt>
      <trkpt lat="50.39912" lon="4.52213">
        <ele>154</ele>
        <time>2012-07-27T13:51:03.000Z</time>
      </trkpt>
      <trkpt lat="50.39907" lon="4.52218">
        <ele>153.6</ele>
        <time>2012-07-27T13:51:04.000Z</time>
      </trkpt>
      <trkpt lat="50.39903" lon="4.52225">
        <ele>153.6</ele>
        <time>2012-07-27T13:51:05.000Z</time>
      </trkpt>
      <trkpt lat="50.399" lon="4.52232">
        <ele>153.8</ele>
        <time>2012-07-27T13:51:06.000Z</time>
      </trkpt>
      <trkpt lat="50.39897" lon="4.52239">
        <ele>153.5</ele>
        <time>2012-07-27T13:51:07.000Z</time>
      </trkpt>
      <trkpt lat="50.39894" lon="4.52246">
        <ele>153</ele>
        <time>2012-07-27T13:51:08.000Z</time>
      </trkpt>
      <trkpt lat="50.3989" lon="4.52252">
        <ele>152.3</ele>
        <time>2012-07-27T13:51:09.000Z</time>
      </trkpt>
      <trkpt lat="50.39885" lon="4.52254">
        <ele>152</ele>
        <time>2012-07-27T13:51:10.000Z</time>
      </trkpt>
      <trkpt lat="50.39879" lon="4.52254">
        <ele>151.6</ele>
        <time>2012-07-27T13:51:11.000Z</time>
      </trkpt>
      <trkpt lat="50.39874" lon="4.52252">
        <ele>151.9</ele>
        <time>2012-07-27T13:51:12.000Z</time>
      </trkpt>
      <trkpt lat="50.39869" lon="4.5225">
        <ele>151.8</ele>
        <time>2012-07-27T13:51:13.000Z</time>
      </trkpt>
      <trkpt lat="50.39864" lon="4.52248">
        <ele>151.8</ele>
        <time>2012-07-27T13:51:14.000Z</time>
      </trkpt>
      <trkpt lat="50.39859" lon="4.52245">
        <ele>151.9</ele>
        <time>2012-07-27T13:51:15.000Z</time>
      </trkpt>
      <trkpt lat="50.39854" lon="4.52242">
        <ele>151.5</ele>
        <time>2012-07-27T13:51:16.000Z</time>
      </trkpt>
      <trkpt lat="50.3985" lon="4.5224">
        <ele>150.9</ele>
        <time>2012-07-27T13:51:18.000Z</time>
      </trkpt>
      <trkpt lat="50.39845" lon="4.52238">
        <ele>151.3</ele>
        <time>2012-07-27T13:51:21.000Z</time>
      </trkpt>
      <trkpt lat="50.3984" lon="4.52237">
        <ele>150.4</ele>
        <time>2012-07-27T13:51:24.000Z</time>
      </trkpt>
      <trkpt lat="50.39834" lon="4.52232">
        <ele>151.7</ele>
        <time>2012-07-27T13:51:28.000Z</time>
      </trkpt>
      <trkpt lat="50.39829" lon="4.52229">
        <ele>151.5</ele>
        <time>2012-07-27T13:51:30.000Z</time>
      </trkpt>
      <trkpt lat="50.39824" lon="4.52224">
        <ele>151.6</ele>
        <time>2012-07-27T13:51:32.000Z</time>
      </trkpt>
      <trkpt lat="50.39817" lon="4.52218">
        <ele>151.6</ele>
        <time>2012-07-27T13:51:34.000Z</time>
      </trkpt>
      <trkpt lat="50.3981" lon="4.5221">
        <ele>152.1</ele>
        <time>2012-07-27T13:51:36.000Z</time>
      </trkpt>
      <trkpt lat="50.39806" lon="4.52207">
        <ele>152</ele>
        <time>2012-07-27T13:51:37.000Z</time>
      </trkpt>
      <trkpt lat="50.39802" lon="4.52203">
        <ele>151.6</ele>
        <time>2012-07-27T13:51:38.000Z</time>
      </trkpt>
      <trkpt lat="50.39798" lon="4.52199">
        <ele>151.4</ele>
        <time>2012-07-27T13:51:39.000Z</time>
      </trkpt>
      <trkpt lat="50.39794" lon="4.52195">
        <ele>151.6</ele>
        <time>2012-07-27T13:51:40.000Z</time>
      </trkpt>
      <trkpt lat="50.3979" lon="4.5219">
        <ele>151.8</ele>
        <time>2012-07-27T13:51:41.000Z</time>
      </trkpt>
      <trkpt lat="50.39785" lon="4.52186">
        <ele>151</ele>
        <time>2012-07-27T13:51:42.000Z</time>
      </trkpt>
      <trkpt lat="50.3978" lon="4.52181">
        <ele>151</ele>
        <time>2012-07-27T13:51:43.000Z</time>
      </trkpt>
      <trkpt lat="50.39776" lon="4.52177">
        <ele>150.7</ele>
        <time>2012-07-27T13:51:44.000Z</time>
      </trkpt>
      <trkpt lat="50.39772" lon="4.52172">
        <ele>150.7</ele>
        <time>2012-07-27T13:51:45.000Z</time>
      </trkpt>
      <trkpt lat="50.39767" lon="4.52167">
        <ele>150.7</ele>
        <time>2012-07-27T13:51:46.000Z</time>
      </trkpt>
      <trkpt lat="50.39763" lon="4.52163">
        <ele>150.6</ele>
        <time>2012-07-27T13:51:47.000Z</time>
      </trkpt>
      <trkpt lat="50.39758" lon="4.52159">
        <ele>150.7</ele>
        <time>2012-07-27T13:51:48.000Z</time>
      </trkpt>
      <trkpt lat="50.39753" lon="4.52156">
        <ele>150.9</ele>
        <time>2012-07-27T13:51:49.000Z</time>
      </trkpt>
      <trkpt lat="50.39748" lon="4.5215">
        <ele>150.9</ele>
        <time>2012-07-27T13:51:50.000Z</time>
      </trkpt>
      <trkpt lat="50.39743" lon="4.52146">
        <ele>150.7</ele>
        <time>2012-07-27T13:51:51.000Z</time>
      </trkpt>
      <trkpt lat="50.39739" lon="4.52141">
        <ele>150.4</ele>
        <time>2012-07-27T13:51:52.000Z</time>
      </trkpt>
      <trkpt lat="50.39734" lon="4.52136">
        <ele>151</ele>
        <time>2012-07-27T13:51:53.000Z</time>
      </trkpt>
      <trkpt lat="50.3973" lon="4.5213">
        <ele>151.1</ele>
        <time>2012-07-27T13:51:54.000Z</time>
      </trkpt>
      <trkpt lat="50.39725" lon="4.52124">
        <ele>150.9</ele>
        <time>2012-07-27T13:51:55.000Z</time>
      </trkpt>
      <trkpt lat="50.3972" lon="4.5212">
        <ele>150.7</ele>
        <time>2012-07-27T13:51:56.000Z</time>
      </trkpt>
      <trkpt lat="50.39715" lon="4.52114">
        <ele>149.9</ele>
        <time>2012-07-27T13:51:57.000Z</time>
      </trkpt>
      <trkpt lat="50.39711" lon="4.5211">
        <ele>150.8</ele>
        <time>2012-07-27T13:51:58.000Z</time>
      </trkpt>
      <trkpt lat="50.39705" lon="4.52106">
        <ele>150.3</ele>
        <time>2012-07-27T13:51:59.000Z</time>
      </trkpt>
      <trkpt lat="50.39701" lon="4.52102">
        <ele>150.4</ele>
        <time>2012-07-27T13:52:00.000Z</time>
      </trkpt>
      <trkpt lat="50.39696" lon="4.52097">
        <ele>150.6</ele>
        <time>2012-07-27T13:52:01.000Z</time>
      </trkpt>
      <trkpt lat="50.3969" lon="4.52094">
        <ele>148.5</ele>
        <time>2012-07-27T13:52:02.000Z</time>
      </trkpt>
      <trkpt lat="50.39685" lon="4.5209">
        <ele>148.2</ele>
        <time>2012-07-27T13:52:03.000Z</time>
      </trkpt>
      <trkpt lat="50.3968" lon="4.52086">
        <ele>148.2</ele>
        <time>2012-07-27T13:52:04.000Z</time>
      </trkpt>
      <trkpt lat="50.39672" lon="4.5208">
        <ele>148</ele>
        <time>2012-07-27T13:52:06.000Z</time>
      </trkpt>
      <trkpt lat="50.39667" lon="4.52076">
        <ele>149</ele>
        <time>2012-07-27T13:52:07.000Z</time>
      </trkpt>
      <trkpt lat="50.39663" lon="4.52072">
        <ele>149.7</ele>
        <time>2012-07-27T13:52:08.000Z</time>
      </trkpt>
      <trkpt lat="50.39657" lon="4.52069">
        <ele>149.4</ele>
        <time>2012-07-27T13:52:09.000Z</time>
      </trkpt>
      <trkpt lat="50.39652" lon="4.52065">
        <ele>149.3</ele>
        <time>2012-07-27T13:52:10.000Z</time>
      </trkpt>
      <trkpt lat="50.39647" lon="4.52061">
        <ele>149.7</ele>
        <time>2012-07-27T13:52:11.000Z</time>
      </trkpt>
      <trkpt lat="50.39642" lon="4.52056">
        <ele>149.7</ele>
        <time>2012-07-27T13:52:12.000Z</time>
      </trkpt>
      <trkpt lat="50.39638" lon="4.52052">
        <ele>148.5</ele>
        <time>2012-07-27T13:52:13.000Z</time>
      </trkpt>
      <trkpt lat="50.39633" lon="4.52048">
        <ele>148.5</ele>
        <time>2012-07-27T13:52:14.000Z</time>
      </trkpt>
      <trkpt lat="50.39628" lon="4.52042">
        <ele>148.7</ele>
        <time>2012-07-27T13:52:15.000Z</time>
      </trkpt>
      <trkpt lat="50.39623" lon="4.52037">
        <ele>148.7</ele>
        <time>2012-07-27T13:52:16.000Z</time>
      </trkpt>
      <trkpt lat="50.3962" lon="4.52033">
        <ele>149.5</ele>
        <time>2012-07-27T13:52:17.000Z</time>
      </trkpt>
      <trkpt lat="50.39615" lon="4.52029">
        <ele>149.3</ele>
        <time>2012-07-27T13:52:18.000Z</time>
      </trkpt>
      <trkpt lat="50.39608" lon="4.5202">
        <ele>149.6</ele>
        <time>2012-07-27T13:52:20.000Z</time>
      </trkpt>
      <trkpt lat="50.39604" lon="4.52015">
        <ele>149.9</ele>
        <time>2012-07-27T13:52:21.000Z</time>
      </trkpt>
      <trkpt lat="50.39601" lon="4.5201">
        <ele>149.7</ele>
        <time>2012-07-27T13:52:22.000Z</time>
      </trkpt>
      <trkpt lat="50.39598" lon="4.52004">
        <ele>150.3</ele>
        <time>2012-07-27T13:52:23.000Z</time>
      </trkpt>
      <trkpt lat="50.39594" lon="4.51999">
        <ele>150.6</ele>
        <time>2012-07-27T13:52:24.000Z</time>
      </trkpt>
      <trkpt lat="50.39591" lon="4.51993">
        <ele>151.1</ele>
        <time>2012-07-27T13:52:25.000Z</time>
      </trkpt>
      <trkpt lat="50.39588" lon="4.51988">
        <ele>151.1</ele>
        <time>2012-07-27T13:52:26.000Z</time>
      </trkpt>
      <trkpt lat="50.39584" lon="4.51982">
        <ele>151.5</ele>
        <time>2012-07-27T13:52:27.000Z</time>
      </trkpt>
      <trkpt lat="50.39579" lon="4.51977">
        <ele>151.9</ele>
        <time>2012-07-27T13:52:28.000Z</time>
      </trkpt>
      <trkpt lat="50.39573" lon="4.51965">
        <ele>152</ele>
        <time>2012-07-27T13:52:30.000Z</time>
      </trkpt>
      <trkpt lat="50.39569" lon="4.51959">
        <ele>151.2</ele>
        <time>2012-07-27T13:52:31.000Z</time>
      </trkpt>
      <trkpt lat="50.39566" lon="4.51954">
        <ele>151.1</ele>
        <time>2012-07-27T13:52:32.000Z</time>
      </trkpt>
      <trkpt lat="50.39562" lon="4.51948">
        <ele>150.7</ele>
        <time>2012-07-27T13:52:33.000Z</time>
      </trkpt>
      <trkpt lat="50.39558" lon="4.51941">
        <ele>151.1</ele>
        <time>2012-07-27T13:52:34.000Z</time>
      </trkpt>
      <trkpt lat="50.39553" lon="4.51937">
        <ele>151</ele>
        <time>2012-07-27T13:52:35.000Z</time>
      </trkpt>
      <trkpt lat="50.39549" lon="4.51929">
        <ele>150.8</ele>
        <time>2012-07-27T13:52:36.000Z</time>
      </trkpt>
      <trkpt lat="50.39545" lon="4.51923">
        <ele>150.5</ele>
        <time>2012-07-27T13:52:36.999Z</time>
      </trkpt>
      <trkpt lat="50.3954" lon="4.51917">
        <ele>150</ele>
        <time>2012-07-27T13:52:38.000Z</time>
      </trkpt>
      <trkpt lat="50.39535" lon="4.51913">
        <ele>148.8</ele>
        <time>2012-07-27T13:52:39.000Z</time>
      </trkpt>
      <trkpt lat="50.3953" lon="4.51907">
        <ele>148.6</ele>
        <time>2012-07-27T13:52:40.000Z</time>
      </trkpt>
      <trkpt lat="50.39526" lon="4.51901">
        <ele>148.3</ele>
        <time>2012-07-27T13:52:41.000Z</time>
      </trkpt>
      <trkpt lat="50.3952" lon="4.51895">
        <ele>148.8</ele>
        <time>2012-07-27T13:52:42.000Z</time>
      </trkpt>
      <trkpt lat="50.39515" lon="4.5189">
        <ele>148.5</ele>
        <time>2012-07-27T13:52:43.000Z</time>
      </trkpt>
      <trkpt lat="50.39509" lon="4.51885">
        <ele>147.7</ele>
        <time>2012-07-27T13:52:44.000Z</time>
      </trkpt>
      <trkpt lat="50.39501" lon="4.51876">
        <ele>148.4</ele>
        <time>2012-07-27T13:52:46.000Z</time>
      </trkpt>
      <trkpt lat="50.39496" lon="4.51873">
        <ele>148.2</ele>
        <time>2012-07-27T13:52:47.000Z</time>
      </trkpt>
      <trkpt lat="50.39492" lon="4.51867">
        <ele>149.3</ele>
        <time>2012-07-27T13:52:48.000Z</time>
      </trkpt>
      <trkpt lat="50.39487" lon="4.51863">
        <ele>149.1</ele>
        <time>2012-07-27T13:52:49.000Z</time>
      </trkpt>
      <trkpt lat="50.39482" lon="4.5186">
        <ele>148.8</ele>
        <time>2012-07-27T13:52:50.000Z</time>
      </trkpt>
      <trkpt lat="50.39476" lon="4.51855">
        <ele>149.5</ele>
        <time>2012-07-27T13:52:51.000Z</time>
      </trkpt>
      <trkpt lat="50.3947" lon="4.51852">
        <ele>148.6</ele>
        <time>2012-07-27T13:52:52.000Z</time>
      </trkpt>
      <trkpt lat="50.39465" lon="4.51848">
        <ele>146.4</ele>
        <time>2012-07-27T13:52:53.000Z</time>
      </trkpt>
      <trkpt lat="50.39459" lon="4.51845">
        <ele>145.2</ele>
        <time>2012-07-27T13:52:54.000Z</time>
      </trkpt>
      <trkpt lat="50.39451" lon="4.51838">
        <ele>146.1</ele>
        <time>2012-07-27T13:52:56.000Z</time>
      </trkpt>
      <trkpt lat="50.39447" lon="4.51834">
        <ele>146.6</ele>
        <time>2012-07-27T13:52:57.000Z</time>
      </trkpt>
      <trkpt lat="50.39442" lon="4.51831">
        <ele>147.8</ele>
        <time>2012-07-27T13:52:58.000Z</time>
      </trkpt>
      <trkpt lat="50.39437" lon="4.51828">
        <ele>148.4</ele>
        <time>2012-07-27T13:52:59.000Z</time>
      </trkpt>
      <trkpt lat="50.39433" lon="4.51826">
        <ele>149.3</ele>
        <time>2012-07-27T13:53:00.000Z</time>
      </trkpt>
      <trkpt lat="50.39428" lon="4.51824">
        <ele>150.7</ele>
        <time>2012-07-27T13:53:01.000Z</time>
      </trkpt>
      <trkpt lat="50.39423" lon="4.51816">
        <ele>151.9</ele>
        <time>2012-07-27T13:53:03.000Z</time>
      </trkpt>
      <trkpt lat="50.39419" lon="4.5181">
        <ele>151.8</ele>
        <time>2012-07-27T13:53:05.000Z</time>
      </trkpt>
      <trkpt lat="50.39413" lon="4.51807">
        <ele>150.3</ele>
        <time>2012-07-27T13:53:06.000Z</time>
      </trkpt>
      <trkpt lat="50.39409" lon="4.51803">
        <ele>150.3</ele>
        <time>2012-07-27T13:53:07.000Z</time>
      </trkpt>
      <trkpt lat="50.39404" lon="4.51799">
        <ele>149.4</ele>
        <time>2012-07-27T13:53:08.000Z</time>
      </trkpt>
      <trkpt lat="50.39399" lon="4.51796">
        <ele>150.3</ele>
        <time>2012-07-27T13:53:09.000Z</time>
      </trkpt>
      <trkpt lat="50.39391" lon="4.51791">
        <ele>151.2</ele>
        <time>2012-07-27T13:53:11.000Z</time>
      </trkpt>
      <trkpt lat="50.39386" lon="4.5179">
        <ele>151.7</ele>
        <time>2012-07-27T13:53:12.000Z</time>
      </trkpt>
      <trkpt lat="50.39382" lon="4.51785">
        <ele>151.7</ele>
        <time>2012-07-27T13:53:13.000Z</time>
      </trkpt>
      <trkpt lat="50.39377" lon="4.51782">
        <ele>152.6</ele>
        <time>2012-07-27T13:53:13.912Z</time>
      </trkpt>
      <trkpt lat="50.39372" lon="4.51778">
        <ele>152.9</ele>
        <time>2012-07-27T13:53:15.000Z</time>
      </trkpt>
      <trkpt lat="50.39366" lon="4.51775">
        <ele>153.5</ele>
        <time>2012-07-27T13:53:16.000Z</time>
      </trkpt>
      <trkpt lat="50.39361" lon="4.51772">
        <ele>153.7</ele>
        <time>2012-07-27T13:53:17.000Z</time>
      </trkpt>
      <trkpt lat="50.39358" lon="4.51766">
        <ele>155.5</ele>
        <time>2012-07-27T13:53:18.000Z</time>
      </trkpt>
      <trkpt lat="50.39353" lon="4.51761">
        <ele>155.1</ele>
        <time>2012-07-27T13:53:19.000Z</time>
      </trkpt>
      <trkpt lat="50.39348" lon="4.51758">
        <ele>154.5</ele>
        <time>2012-07-27T13:53:20.000Z</time>
      </trkpt>
      <trkpt lat="50.39343" lon="4.51755">
        <ele>155.1</ele>
        <time>2012-07-27T13:53:21.000Z</time>
      </trkpt>
      <trkpt lat="50.39338" lon="4.51752">
        <ele>155.1</ele>
        <time>2012-07-27T13:53:22.000Z</time>
      </trkpt>
      <trkpt lat="50.39329" lon="4.51744">
        <ele>155</ele>
        <time>2012-07-27T13:53:24.000Z</time>
      </trkpt>
      <trkpt lat="50.39324" lon="4.51742">
        <ele>155.8</ele>
        <time>2012-07-27T13:53:25.000Z</time>
      </trkpt>
      <trkpt lat="50.39316" lon="4.51734">
        <ele>157.3</ele>
        <time>2012-07-27T13:53:27.000Z</time>
      </trkpt>
      <trkpt lat="50.39312" lon="4.5173">
        <ele>157.3</ele>
        <time>2012-07-27T13:53:28.000Z</time>
      </trkpt>
      <trkpt lat="50.39309" lon="4.51725">
        <ele>158.3</ele>
        <time>2012-07-27T13:53:29.000Z</time>
      </trkpt>
      <trkpt lat="50.39301" lon="4.51719">
        <ele>159.3</ele>
        <time>2012-07-27T13:53:31.000Z</time>
      </trkpt>
      <trkpt lat="50.39293" lon="4.51713">
        <ele>159.4</ele>
        <time>2012-07-27T13:53:33.000Z</time>
      </trkpt>
      <trkpt lat="50.39288" lon="4.51709">
        <ele>159.5</ele>
        <time>2012-07-27T13:53:34.000Z</time>
      </trkpt>
      <trkpt lat="50.39283" lon="4.51706">
        <ele>159.6</ele>
        <time>2012-07-27T13:53:35.000Z</time>
      </trkpt>
      <trkpt lat="50.39278" lon="4.51703">
        <ele>159.4</ele>
        <time>2012-07-27T13:53:36.000Z</time>
      </trkpt>
      <trkpt lat="50.39274" lon="4.517">
        <ele>159.7</ele>
        <time>2012-07-27T13:53:37.000Z</time>
      </trkpt>
      <trkpt lat="50.39268" lon="4.51696">
        <ele>160.1</ele>
        <time>2012-07-27T13:53:38.000Z</time>
      </trkpt>
      <trkpt lat="50.39264" lon="4.51692">
        <ele>160.1</ele>
        <time>2012-07-27T13:53:39.000Z</time>
      </trkpt>
      <trkpt lat="50.39256" lon="4.51684">
        <ele>155</ele>
        <time>2012-07-27T13:53:40.000Z</time>
      </trkpt>
      <trkpt lat="50.39248" lon="4.51682">
        <ele>153.8</ele>
        <time>2012-07-27T13:53:41.000Z</time>
      </trkpt>
      <trkpt lat="50.39241" lon="4.5168">
        <ele>152.9</ele>
        <time>2012-07-27T13:53:42.000Z</time>
      </trkpt>
      <trkpt lat="50.39233" lon="4.51678">
        <ele>153</ele>
        <time>2012-07-27T13:53:43.000Z</time>
      </trkpt>
      <trkpt lat="50.39228" lon="4.51669">
        <ele>151.1</ele>
        <time>2012-07-27T13:53:45.000Z</time>
      </trkpt>
      <trkpt lat="50.39221" lon="4.51662">
        <ele>152.8</ele>
        <time>2012-07-27T13:53:47.000Z</time>
      </trkpt>
      <trkpt lat="50.39215" lon="4.51658">
        <ele>153.2</ele>
        <time>2012-07-27T13:53:48.000Z</time>
      </trkpt>
      <trkpt lat="50.3921" lon="4.51654">
        <ele>154.3</ele>
        <time>2012-07-27T13:53:50.000Z</time>
      </trkpt>
      <trkpt lat="50.39204" lon="4.51647">
        <ele>155.2</ele>
        <time>2012-07-27T13:53:52.000Z</time>
      </trkpt>
      <trkpt lat="50.39198" lon="4.51644">
        <ele>154.5</ele>
        <time>2012-07-27T13:53:53.000Z</time>
      </trkpt>
      <trkpt lat="50.39192" lon="4.51642">
        <ele>155.5</ele>
        <time>2012-07-27T13:53:56.000Z</time>
      </trkpt>
      <trkpt lat="50.39186" lon="4.5164">
        <ele>156.1</ele>
        <time>2012-07-27T13:53:58.000Z</time>
      </trkpt>
      <trkpt lat="50.3918" lon="4.51635">
        <ele>158.1</ele>
        <time>2012-07-27T13:54:01.000Z</time>
      </trkpt>
      <trkpt lat="50.39176" lon="4.5163">
        <ele>160.2</ele>
        <time>2012-07-27T13:54:03.000Z</time>
      </trkpt>
      <trkpt lat="50.3917" lon="4.51626">
        <ele>160.1</ele>
        <time>2012-07-27T13:54:05.000Z</time>
      </trkpt>
      <trkpt lat="50.39165" lon="4.51624">
        <ele>161.4</ele>
        <time>2012-07-27T13:54:07.000Z</time>
      </trkpt>
      <trkpt lat="50.39161" lon="4.51614">
        <ele>162.4</ele>
        <time>2012-07-27T13:54:09.000Z</time>
      </trkpt>
      <trkpt lat="50.3916" lon="4.51606">
        <ele>162.4</ele>
        <time>2012-07-27T13:54:10.000Z</time>
      </trkpt>
      <trkpt lat="50.39159" lon="4.51598">
        <ele>162.6</ele>
        <time>2012-07-27T13:54:11.000Z</time>
      </trkpt>
      <trkpt lat="50.39154" lon="4.51592">
        <ele>163.2</ele>
        <time>2012-07-27T13:54:12.000Z</time>
      </trkpt>
      <trkpt lat="50.39147" lon="4.51589">
        <ele>162.6</ele>
        <time>2012-07-27T13:54:13.000Z</time>
      </trkpt>
      <trkpt lat="50.39143" lon="4.51588">
        <ele>163.6</ele>
        <time>2012-07-27T13:54:14.000Z</time>
      </trkpt>
      <trkpt lat="50.39139" lon="4.51585">
        <ele>162.9</ele>
        <time>2012-07-27T13:54:15.000Z</time>
      </trkpt>
      <trkpt lat="50.39132" lon="4.51586">
        <ele>163.4</ele>
        <time>2012-07-27T13:54:16.000Z</time>
      </trkpt>
      <trkpt lat="50.39127" lon="4.51585">
        <ele>163.2</ele>
        <time>2012-07-27T13:54:17.000Z</time>
      </trkpt>
      <trkpt lat="50.39121" lon="4.51586">
        <ele>163.8</ele>
        <time>2012-07-27T13:54:18.000Z</time>
      </trkpt>
      <trkpt lat="50.39111" lon="4.51596">
        <ele>163.7</ele>
        <time>2012-07-27T13:54:19.000Z</time>
      </trkpt>
      <trkpt lat="50.39105" lon="4.51598">
        <ele>163.4</ele>
        <time>2012-07-27T13:54:20.000Z</time>
      </trkpt>
      <trkpt lat="50.39096" lon="4.51603">
        <ele>163</ele>
        <time>2012-07-27T13:54:21.000Z</time>
      </trkpt>
      <trkpt lat="50.39088" lon="4.5161">
        <ele>164.2</ele>
        <time>2012-07-27T13:54:22.000Z</time>
      </trkpt>
      <trkpt lat="50.39081" lon="4.51613">
        <ele>164.2</ele>
        <time>2012-07-27T13:54:23.000Z</time>
      </trkpt>
      <trkpt lat="50.39078" lon="4.51621">
        <ele>162.9</ele>
        <time>2012-07-27T13:54:24.000Z</time>
      </trkpt>
      <trkpt lat="50.3907" lon="4.51623">
        <ele>162.5</ele>
        <time>2012-07-27T13:54:26.000Z</time>
      </trkpt>
      <trkpt lat="50.39063" lon="4.51616">
        <ele>164.1</ele>
        <time>2012-07-27T13:54:27.000Z</time>
      </trkpt>
      <trkpt lat="50.39059" lon="4.51606">
        <ele>164</ele>
        <time>2012-07-27T13:54:29.000Z</time>
      </trkpt>
      <trkpt lat="50.39054" lon="4.51597">
        <ele>161.9</ele>
        <time>2012-07-27T13:54:31.000Z</time>
      </trkpt>
      <trkpt lat="50.39051" lon="4.5159">
        <ele>160.5</ele>
        <time>2012-07-27T13:54:32.000Z</time>
      </trkpt>
      <trkpt lat="50.39048" lon="4.51583">
        <ele>159.9</ele>
        <time>2012-07-27T13:54:33.000Z</time>
      </trkpt>
      <trkpt lat="50.39045" lon="4.51577">
        <ele>159.8</ele>
        <time>2012-07-27T13:54:34.000Z</time>
      </trkpt>
      <trkpt lat="50.39043" lon="4.51571">
        <ele>160.4</ele>
        <time>2012-07-27T13:54:35.000Z</time>
      </trkpt>
      <trkpt lat="50.39041" lon="4.51564">
        <ele>160.4</ele>
        <time>2012-07-27T13:54:36.000Z</time>
      </trkpt>
      <trkpt lat="50.39036" lon="4.51555">
        <ele>161.1</ele>
        <time>2012-07-27T13:54:38.000Z</time>
      </trkpt>
      <trkpt lat="50.39033" lon="4.51547">
        <ele>162.6</ele>
        <time>2012-07-27T13:54:40.000Z</time>
      </trkpt>
      <trkpt lat="50.3903" lon="4.51538">
        <ele>163.2</ele>
        <time>2012-07-27T13:54:41.000Z</time>
      </trkpt>
      <trkpt lat="50.39029" lon="4.5153">
        <ele>164.6</ele>
        <time>2012-07-27T13:54:42.000Z</time>
      </trkpt>
      <trkpt lat="50.39026" lon="4.51521">
        <ele>165</ele>
        <time>2012-07-27T13:54:43.000Z</time>
      </trkpt>
      <trkpt lat="50.39023" lon="4.51511">
        <ele>165.4</ele>
        <time>2012-07-27T13:54:44.000Z</time>
      </trkpt>
      <trkpt lat="50.39022" lon="4.51503">
        <ele>164.6</ele>
        <time>2012-07-27T13:54:45.000Z</time>
      </trkpt>
      <trkpt lat="50.39021" lon="4.51495">
        <ele>164.9</ele>
        <time>2012-07-27T13:54:46.000Z</time>
      </trkpt>
      <trkpt lat="50.39021" lon="4.5148">
        <ele>163.6</ele>
        <time>2012-07-27T13:54:48.000Z</time>
      </trkpt>
      <trkpt lat="50.39023" lon="4.51471">
        <ele>163.1</ele>
        <time>2012-07-27T13:54:49.000Z</time>
      </trkpt>
      <trkpt lat="50.39023" lon="4.51464">
        <ele>163.7</ele>
        <time>2012-07-27T13:54:49.999Z</time>
      </trkpt>
      <trkpt lat="50.39022" lon="4.51455">
        <ele>163.9</ele>
        <time>2012-07-27T13:54:51.000Z</time>
      </trkpt>
      <trkpt lat="50.39021" lon="4.51448">
        <ele>165.1</ele>
        <time>2012-07-27T13:54:52.000Z</time>
      </trkpt>
      <trkpt lat="50.39021" lon="4.51436">
        <ele>164.6</ele>
        <time>2012-07-27T13:54:54.000Z</time>
      </trkpt>
      <trkpt lat="50.39019" lon="4.51424">
        <ele>163.2</ele>
        <time>2012-07-27T13:54:56.000Z</time>
      </trkpt>
      <trkpt lat="50.39019" lon="4.51417">
        <ele>164.3</ele>
        <time>2012-07-27T13:54:57.000Z</time>
      </trkpt>
      <trkpt lat="50.39018" lon="4.51407">
        <ele>164.2</ele>
        <time>2012-07-27T13:54:59.000Z</time>
      </trkpt>
      <trkpt lat="50.39016" lon="4.514">
        <ele>164</ele>
        <time>2012-07-27T13:55:00.000Z</time>
      </trkpt>
      <trkpt lat="50.39011" lon="4.51389">
        <ele>163.7</ele>
        <time>2012-07-27T13:55:02.000Z</time>
      </trkpt>
      <trkpt lat="50.39006" lon="4.51379">
        <ele>162.4</ele>
        <time>2012-07-27T13:55:04.000Z</time>
      </trkpt>
      <trkpt lat="50.39002" lon="4.51371">
        <ele>161.5</ele>
        <time>2012-07-27T13:55:06.000Z</time>
      </trkpt>
      <trkpt lat="50.38997" lon="4.51362">
        <ele>161.2</ele>
        <time>2012-07-27T13:55:08.000Z</time>
      </trkpt>
      <trkpt lat="50.38996" lon="4.51355">
        <ele>163.7</ele>
        <time>2012-07-27T13:55:10.000Z</time>
      </trkpt>
      <trkpt lat="50.38994" lon="4.51348">
        <ele>164.2</ele>
        <time>2012-07-27T13:55:12.000Z</time>
      </trkpt>
      <trkpt lat="50.38996" lon="4.51338">
        <ele>164.6</ele>
        <time>2012-07-27T13:55:14.000Z</time>
      </trkpt>
      <trkpt lat="50.38997" lon="4.5133">
        <ele>164</ele>
        <time>2012-07-27T13:55:16.000Z</time>
      </trkpt>
      <trkpt lat="50.39" lon="4.51322">
        <ele>165.5</ele>
        <time>2012-07-27T13:55:18.000Z</time>
      </trkpt>
      <trkpt lat="50.39003" lon="4.51315">
        <ele>166.3</ele>
        <time>2012-07-27T13:55:21.000Z</time>
      </trkpt>
      <trkpt lat="50.39004" lon="4.51308">
        <ele>166.7</ele>
        <time>2012-07-27T13:55:23.999Z</time>
      </trkpt>
      <trkpt lat="50.38999" lon="4.51308">
        <ele>166.9</ele>
        <time>2012-07-27T13:56:48.000Z</time>
      </trkpt>
    </trkseg>
  </trk>
</gpx>